[[{"header":{"parameterUnit":"m.s-1","parameterCategory":1,"la1":31.0,"la2":29.5877,"lo1":-88.7671,"lo2":-86.6584,"dy":0.0162,"dx":0.0185,"nx":115,"ny":88,"refTime":"2023-07-16T12:00:00:Z","depth":0,"parameterNumber":2,"parameterNumberName":"U-component_of_WINDS"},"data":[0.0,0.0,0.0,0.0,0.0,0.0,0.0,0.0,0.0,0.0,0.0,0.0,0.0,0.0,0.0,0.0,0.0,0.0,0.0,0.0,0.0,0.0,0.0,0.0,0.0,0.0,0.0,0.0,0.0,0.0,0.0,0.0,0.0,0.0,0.0,0.0,0.0,0.0,0.0,0.0,0.0,0.0,0.0,0.0,0.0,0.0,0.0,0.0,0.0,0.0,0.0,0.0,0.0,0.0,0.0,0.0,0.0,0.0,0.0,0.0,0.0,0.0,0.0,0.0,0.0,0.0,0.0,0.0,0.0,0.0,0.0,0.0,0.0,0.0,0.0,0.0,0.0,0.0,0.0,0.0,0.0,0.0,0.0,0.0,0.0,0.0,0.0,0.0,0.0,0.0,0.0,0.0,0.0,0.0,0.0,0.0,0.0,0.0,0.0,0.0,0.0,0.0,0.0,0.0,0.0,0.0,0.0,0.0,0.0,0.0,0.0,0.0,0.0,0.0,0.0,0.0,0.0,0.0,0.0,0.0,0.0,0.0,0.0,0.0,0.0,0.0,0.0,0.0,0.0,0.0,0.0,0.0,0.0,0.0,0.0,0.0,0.0,0.0,0.0,0.0,0.0,0.0,0.0,0.0,0.0,0.0,0.0,0.0,0.0,0.0,0.0,0.0,0.0,0.0,0.0,0.0,0.0,0.0,0.0,0.0,0.0,0.0,0.0,0.0,0.0,0.0,0.0,0.0,0.0,0.0,0.0,0.0,0.0,0.0,0.0,0.0,0.0,0.0,0.0,0.0,0.0,0.0,0.0,0.0,0.0,0.0,0.0,0.0,0.0,0.0,0.0,0.0,0.0,0.0,0.0,0.0,0.0,0.0,0.0,0.0,0.0,0.0,0.0,0.0,0.0,0.0,0.0,0.0,0.0,0.0,0.0,0.0,0.0,0.0,0.0,0.0,0.0,0.0,0.0,0.0,0.0,0.0,0.0,0.0,0.0,0.0,0.0,0.0,0.0,0.0,0.0,0.0,0.0,0.0,0.0,0.0,0.0,0.0,0.0,0.0,0.0,0.0,0.0,0.0,0.0,0.0,0.0,0.0,0.0,0.0,0.0,0.0,0.0,0.0,0.0,0.0,0.0,0.0,0.0,0.0,0.0,0.0,0.0,0.0,0.0,0.0,0.0,0.0,0.0,0.0,0.0,0.0,0.0,0.0,0.0,0.0,0.0,0.0,0.0,0.0,0.0,0.0,0.0,0.0,0.0,0.0,0.0,0.0,0.0,0.0,0.0,0.0,0.0,0.0,0.0,0.0,0.0,0.0,0.0,0.0,0.0,0.0,0.0,0.0,0.0,0.0,0.0,0.0,0.0,0.0,0.0,0.0,0.0,0.0,0.0,0.0,0.0,0.0,0.0,0.0,0.0,0.0,0.0,0.0,0.0,0.0,0.0,0.0,0.0,0.0,0.0,0.0,0.0,0.0,0.0,0.0,0.0,0.0,0.0,0.0,0.0,0.0,0.0,0.0,0.0,0.0,0.0,0.0,0.0,0.0,0.0,0.0,0.0,0.0,0.0,0.0,0.0,0.0,0.0,0.0,0.0,0.0,0.0,0.0,0.0,0.0,0.0,0.0,0.0,0.0,0.0,0.0,0.0,0.0,0.0,0.0,0.0,0.0,0.0,0.0,0.0,0.0,0.0,0.0,0.0,0.0,0.0,0.0,0.0,0.0,0.0,0.0,0.0,0.0,0.0,0.0,0.0,0.0,0.0,0.0,0.0,0.0,0.0,0.0,0.0,0.0,0.0,0.0,0.0,0.0,0.0,0.0,0.0,0.0,0.0,0.0,0.0,0.0,0.0,0.0,0.0,0.0,0.0,0.0,0.0,0.0,0.0,0.0,0.0,0.0,0.0,0.0,0.0,0.0,0.0,0.0,0.0,0.0,0.0,0.0,0.0,0.0,0.0,0.0,0.0,0.0,0.0,0.0,0.0,0.0,0.0,0.0,0.0,0.0,0.0,0.0,0.0,0.0,0.0,0.0,0.0,0.0,0.0,0.0,0.0,0.0,0.0,0.0,0.0,0.0,0.0,0.0,0.0,0.0,0.0,0.0,0.0,0.0,0.0,0.0,0.0,0.0,0.0,0.0,0.0,0.0,0.0,0.0,0.0,0.0,0.0,0.0,0.0,0.0,0.0,0.0,0.0,0.0,0.0,0.0,0.0,0.0,0.0,0.0,0.0,0.0,0.0,0.0,0.0,0.0,0.0,0.0,0.0,0.0,0.0,0.0,0.0,0.0,0.0,0.0,0.0,0.0,0.0,0.0,0.0,0.0,0.0,0.0,0.0,0.0,0.0,0.0,0.0,0.0,0.0,0.0,0.0,0.0,0.0,0.0,0.0,0.0,0.0,0.0,0.0,0.0,0.0,0.0,0.0,0.0,0.0,0.0,0.0,0.0,0.0,0.0,0.0,0.0,0.0,0.0,0.0,0.0,0.0,0.0,0.0,0.0,0.0,0.0,0.0,0.0,0.0,0.0,0.0,0.0,0.0,0.0,0.0,0.0,0.0,0.0,0.0,0.0,0.0,0.0,0.0,0.0,0.0,0.0,0.0,0.0,0.0,0.0,0.0,0.0,0.0,0.0,0.0,0.0,0.0,0.0,0.0,0.0,0.0,0.0,0.0,0.0,0.0,0.0,0.0,0.0,0.0,0.0,0.0,0.0,0.0,0.0,0.0,0.0,0.0,0.0,0.0,0.0,0.0,0.0,0.0,0.0,0.0,0.0,0.0,0.0,0.0,0.0,0.0,0.0,0.0,0.0,0.0,0.0,0.0,0.0,0.0,0.0,0.0,0.0,0.0,0.0,0.0,0.0,0.0,0.0,0.0,0.0,0.0,0.0,0.0,0.0,0.0,0.0,0.0,0.0,0.0,0.0,0.0,0.0,0.0,0.0,0.0,0.0,0.0,0.0,0.0,0.0,0.0,0.0,0.0,0.0,0.0,0.0,0.0,0.0,0.0,0.0,0.0,0.0,0.0,0.0,0.0,0.0,0.0,0.0,0.0,0.0,0.0,0.0,0.0,0.0,0.0,0.0,0.0,0.0,0.0,0.0,0.0,0.0,0.0,0.0,0.0,0.0,0.0,0.0,0.0,0.0,0.0,0.0,0.0,0.0,0.0,0.0,0.0,0.0,0.0,0.0,0.0,0.0,0.0,0.0,0.0,0.0,0.0,0.0,0.0,0.0,0.0,0.0,0.0,0.0,0.0,0.0,0.0,0.0,0.0,0.0,0.0,0.0,0.0,0.0,0.0,0.0,0.0,0.0,0.0,0.0,0.0,0.0,0.0,0.0,0.0,0.0,0.0,0.0,0.0,0.0,0.0,0.0,0.0,0.0,0.0,0.0,0.0,0.0,0.0,0.0,0.0,0.0,0.0,0.0,0.0,0.0,0.0,0.0,0.0,0.0,0.0,0.0,0.0,0.0,0.0,0.0,0.0,0.0,0.0,0.0,0.0,0.0,0.0,0.0,0.0,0.0,0.0,0.0,0.0,0.0,0.0,0.0,0.0,0.0,0.0,0.0,0.0,0.0,0.0,0.0,0.0,0.0,0.0,0.0,0.0,0.0,0.0,0.0,0.0,0.0,0.0,0.0,0.0,0.0,0.0,0.0,0.0,0.0,0.0,0.0,0.0,0.0,0.0,0.0,0.0,0.0,0.0,0.0,0.0,0.0,0.0,0.0,0.0,0.0,0.0,0.0,0.0,0.0,0.0,0.0,0.0,0.0,0.0,0.0,0.0,0.0,0.0,0.0,0.0,0.0,0.0,0.0,0.0,0.0,0.0,0.0,0.0,0.0,0.0,0.0,0.0,0.0,0.0,0.0,0.0,0.0,0.0,0.0,0.0,0.0,0.0,0.0,0.0,0.0,0.0,0.0,0.0,0.0,0.0,0.0,0.0,0.0,0.0,0.0,0.0,0.0,0.0,0.0,0.0,0.0,0.0,0.0,0.0,0.0,0.0,0.0,0.0,0.0,0.0,0.0,0.0,0.0,0.0,0.0,0.0,0.0,0.0,0.0,0.0,0.0,0.0,0.0,0.0,0.0,0.0,0.0,0.0,0.0,0.0,0.0,0.0,0.0,0.0,0.0,0.0,0.0,0.0,0.0,0.0,0.0,0.0,0.0,0.0,0.0,0.0,0.0,0.0,0.0,0.0,0.0,0.0,0.0,0.0,0.0,0.0,0.0,0.0,0.0,0.0,0.0,0.0,0.0,0.0,0.0,-3.1921,0.0,0.0,0.0,0.0,0.0,0.0,0.0,0.0,0.0,0.0,0.0,0.0,0.0,0.0,0.0,0.0,0.0,0.0,0.0,0.0,0.0,0.0,0.0,0.0,0.0,0.0,0.0,0.0,0.0,0.0,0.0,0.0,0.0,0.0,0.0,0.0,0.0,0.0,0.0,0.0,0.0,0.0,0.0,0.0,0.0,0.0,0.0,0.0,0.0,0.0,0.0,0.0,0.0,0.0,0.0,0.0,0.0,0.0,0.0,0.0,0.0,0.0,0.0,0.0,0.0,0.0,0.0,0.0,0.0,0.0,0.0,0.0,0.0,0.0,0.0,0.0,0.0,0.0,0.0,0.0,0.0,0.0,0.0,0.0,0.0,0.0,0.0,0.0,0.0,0.0,0.0,0.0,0.0,0.0,0.0,0.0,0.0,0.0,0.0,0.0,0.0,0.0,0.0,0.0,0.0,0.0,0.0,0.0,0.0,0.0,-3.3726,-3.3753,-3.3753,-3.3478,-3.2879,0.0,0.0,0.0,0.0,0.0,0.0,0.0,0.0,0.0,0.0,0.0,0.0,0.0,0.0,0.0,0.0,0.0,0.0,0.0,0.0,0.0,0.0,0.0,0.0,0.0,0.0,0.0,0.0,0.0,0.0,0.0,0.0,0.0,0.0,0.0,0.0,0.0,0.0,0.0,0.0,0.0,0.0,0.0,0.0,0.0,0.0,0.0,0.0,0.0,0.0,0.0,0.0,0.0,0.0,0.0,0.0,0.0,0.0,0.0,0.0,0.0,0.0,0.0,0.0,0.0,0.0,0.0,0.0,0.0,0.0,0.0,0.0,0.0,0.0,0.0,0.0,0.0,0.0,0.0,0.0,0.0,0.0,0.0,0.0,0.0,0.0,0.0,0.0,0.0,0.0,0.0,0.0,0.0,0.0,0.0,0.0,0.0,0.0,0.0,0.0,0.0,0.0,0.0,0.0,0.0,0.0,0.0,0.0,0.0,0.0,0.0,0.0,-3.3807,-3.3698,-3.3415,0.0,0.0,0.0,0.0,0.0,0.0,0.0,0.0,0.0,0.0,0.0,0.0,0.0,0.0,0.0,0.0,0.0,0.0,0.0,0.0,0.0,0.0,0.0,0.0,0.0,0.0,0.0,0.0,0.0,0.0,0.0,0.0,0.0,0.0,0.0,0.0,0.0,0.0,0.0,0.0,0.0,0.0,0.0,0.0,0.0,0.0,0.0,0.0,0.0,0.0,0.0,0.0,0.0,0.0,0.0,0.0,0.0,0.0,0.0,0.0,0.0,0.0,0.0,0.0,0.0,0.0,0.0,0.0,0.0,0.0,0.0,0.0,0.0,0.0,0.0,0.0,0.0,0.0,0.0,0.0,0.0,0.0,0.0,0.0,0.0,0.0,0.0,0.0,0.0,0.0,0.0,0.0,0.0,0.0,0.0,0.0,0.0,0.0,0.0,0.0,0.0,0.0,0.0,0.0,0.0,0.0,0.0,0.0,0.0,0.0,-3.3788,-3.3807,-3.3807,0.0,-3.322,0.0,0.0,0.0,0.0,0.0,0.0,0.0,0.0,0.0,0.0,0.0,0.0,0.0,0.0,0.0,0.0,0.0,0.0,0.0,0.0,0.0,0.0,0.0,0.0,0.0,0.0,0.0,0.0,0.0,0.0,0.0,0.0,0.0,0.0,0.0,0.0,0.0,0.0,0.0,0.0,0.0,0.0,0.0,0.0,0.0,0.0,0.0,0.0,0.0,0.0,0.0,0.0,0.0,0.0,0.0,0.0,0.0,0.0,0.0,0.0,0.0,0.0,0.0,0.0,0.0,0.0,0.0,0.0,0.0,0.0,0.0,0.0,0.0,0.0,0.0,0.0,0.0,0.0,0.0,0.0,0.0,0.0,0.0,0.0,0.0,0.0,0.0,0.0,0.0,0.0,0.0,0.0,0.0,0.0,0.0,0.0,0.0,0.0,0.0,0.0,0.0,0.0,0.0,0.0,0.0,0.0,0.0,0.0,0.0,0.0,-3.3807,-3.3807,-3.3726,-3.3512,0.0,0.0,0.0,0.0,0.0,0.0,0.0,0.0,0.0,0.0,0.0,0.0,0.0,0.0,0.0,0.0,0.0,0.0,0.0,0.0,0.0,0.0,0.0,0.0,0.0,0.0,0.0,0.0,0.0,0.0,0.0,0.0,0.0,0.0,0.0,0.0,0.0,0.0,0.0,0.0,0.0,0.0,0.0,0.0,0.0,0.0,0.0,0.0,0.0,0.0,0.0,0.0,0.0,0.0,0.0,0.0,0.0,0.0,0.0,0.0,0.0,0.0,0.0,0.0,0.0,0.0,0.0,0.0,0.0,0.0,0.0,0.0,0.0,0.0,0.0,0.0,0.0,0.0,0.0,0.0,0.0,0.0,0.0,0.0,0.0,0.0,0.0,0.0,0.0,0.0,0.0,0.0,0.0,0.0,0.0,0.0,0.0,0.0,0.0,0.0,0.0,0.0,0.0,0.0,0.0,0.0,0.0,0.0,0.0,0.0,-3.3807,-3.3807,-3.3807,-3.3698,-3.352,-3.325,0.0,0.0,0.0,0.0,0.0,0.0,0.0,0.0,0.0,0.0,0.0,0.0,0.0,0.0,0.0,0.0,0.0,0.0,0.0,0.0,0.0,0.0,0.0,0.0,0.0,0.0,0.0,0.0,0.0,0.0,0.0,0.0,0.0,0.0,0.0,0.0,0.0,0.0,0.0,0.0,0.0,0.0,0.0,0.0,0.0,0.0,0.0,0.0,0.0,0.0,0.0,0.0,0.0,0.0,0.0,0.0,0.0,0.0,0.0,0.0,0.0,0.0,0.0,0.0,0.0,0.0,0.0,0.0,0.0,0.0,0.0,0.0,0.0,0.0,0.0,0.0,0.0,0.0,0.0,0.0,0.0,0.0,0.0,0.0,0.0,0.0,0.0,0.0,0.0,0.0,0.0,0.0,0.0,0.0,0.0,0.0,0.0,0.0,0.0,0.0,0.0,0.0,0.0,0.0,0.0,0.0,0.0,0.0,-3.3807,-3.3807,-3.3807,-3.3788,-3.3726,-3.3605,0.0,0.0,0.0,0.0,0.0,0.0,0.0,0.0,0.0,0.0,0.0,0.0,0.0,0.0,0.0,0.0,0.0,0.0,0.0,0.0,0.0,0.0,0.0,0.0,0.0,0.0,0.0,0.0,0.0,0.0,0.0,0.0,0.0,0.0,0.0,0.0,0.0,0.0,0.0,0.0,0.0,0.0,0.0,0.0,0.0,0.0,0.0,0.0,0.0,0.0,0.0,0.0,0.0,0.0,0.0,0.0,0.0,0.0,0.0,0.0,0.0,0.0,0.0,0.0,0.0,0.0,0.0,0.0,0.0,0.0,0.0,0.0,0.0,0.0,0.0,0.0,0.0,0.0,0.0,0.0,0.0,0.0,0.0,0.0,0.0,0.0,0.0,0.0,0.0,0.0,0.0,0.0,0.0,0.0,0.0,0.0,0.0,0.0,0.0,0.0,0.0,0.0,0.0,0.0,0.0,0.0,0.0,0.0,0.0,-3.3807,-3.3807,-3.3807,-3.3788,-3.3726,-3.3605,0.0,0.0,0.0,0.0,0.0,0.0,0.0,0.0,0.0,0.0,0.0,0.0,0.0,0.0,0.0,0.0,0.0,0.0,0.0,0.0,0.0,0.0,0.0,0.0,0.0,0.0,0.0,0.0,0.0,0.0,0.0,0.0,0.0,0.0,0.0,0.0,0.0,0.0,0.0,0.0,0.0,0.0,0.0,0.0,0.0,0.0,0.0,0.0,0.0,0.0,0.0,0.0,0.0,0.0,0.0,0.0,0.0,0.0,0.0,0.0,0.0,0.0,0.0,0.0,0.0,0.0,0.0,0.0,0.0,0.0,0.0,0.0,0.0,0.0,0.0,0.0,0.0,0.0,0.0,0.0,0.0,0.0,0.0,0.0,0.0,0.0,0.0,0.0,0.0,0.0,0.0,0.0,0.0,0.0,0.0,0.0,0.0,0.0,0.0,0.0,0.0,0.0,0.0,0.0,0.0,0.0,0.0,0.0,0.0,-3.3807,0.0,-3.3807,-3.3788,-3.3753,-3.3615,0.0,0.0,0.0,0.0,0.0,0.0,0.0,0.0,0.0,0.0,0.0,0.0,0.0,0.0,0.0,0.0,0.0,0.0,0.0,0.0,0.0,0.0,0.0,0.0,0.0,0.0,0.0,0.0,0.0,0.0,0.0,0.0,0.0,0.0,0.0,0.0,0.0,0.0,0.0,0.0,0.0,0.0,0.0,0.0,0.0,0.0,0.0,0.0,0.0,0.0,0.0,0.0,0.0,0.0,0.0,0.0,0.0,0.0,0.0,0.0,0.0,0.0,0.0,0.0,0.0,0.0,0.0,0.0,0.0,0.0,0.0,0.0,0.0,0.0,0.0,0.0,0.0,0.0,0.0,0.0,0.0,0.0,0.0,0.0,0.0,0.0,0.0,0.0,0.0,0.0,0.0,0.0,0.0,0.0,0.0,0.0,0.0,0.0,0.0,0.0,0.0,0.0,0.0,0.0,0.0,0.0,0.0,0.0,-3.3781,-3.3807,-3.3862,-3.3935,-3.3844,-3.3899,-3.3725,0.0,0.0,0.0,0.0,0.0,0.0,0.0,0.0,0.0,0.0,0.0,0.0,0.0,0.0,0.0,0.0,0.0,0.0,0.0,0.0,0.0,0.0,0.0,0.0,0.0,0.0,0.0,0.0,0.0,0.0,0.0,0.0,0.0,0.0,0.0,0.0,0.0,0.0,0.0,0.0,0.0,0.0,0.0,0.0,0.0,0.0,0.0,0.0,0.0,0.0,0.0,0.0,0.0,0.0,0.0,0.0,0.0,0.0,0.0,0.0,0.0,0.0,0.0,0.0,0.0,0.0,0.0,0.0,0.0,0.0,0.0,0.0,0.0,0.0,0.0,0.0,0.0,0.0,0.0,0.0,0.0,0.0,0.0,0.0,0.0,0.0,0.0,0.0,0.0,0.0,0.0,0.0,0.0,0.0,0.0,0.0,0.0,0.0,0.0,0.0,0.0,0.0,0.0,0.0,0.0,0.0,0.0,0.0,0.0,-3.4642,-3.522,-3.5514,-3.5532,-3.5514,-3.5371,0.0,0.0,0.0,0.0,0.0,0.0,0.0,0.0,0.0,0.0,0.0,0.0,0.0,0.0,0.0,0.0,0.0,0.0,0.0,0.0,0.0,0.0,0.0,0.0,0.0,0.0,0.0,0.0,0.0,0.0,0.0,0.0,0.0,0.0,0.0,0.0,0.0,0.0,0.0,0.0,0.0,0.0,0.0,0.0,0.0,0.0,0.0,0.0,0.0,0.0,0.0,0.0,0.0,0.0,0.0,0.0,0.0,0.0,0.0,0.0,0.0,0.0,0.0,0.0,0.0,0.0,0.0,0.0,0.0,0.0,0.0,0.0,0.0,0.0,0.0,0.0,0.0,0.0,0.0,0.0,0.0,0.0,0.0,0.0,0.0,0.0,0.0,0.0,0.0,0.0,0.0,0.0,0.0,0.0,0.0,0.0,0.0,0.0,0.0,0.0,0.0,0.0,0.0,0.0,0.0,0.0,0.0,0.0,0.0,-3.6853,-3.7074,-3.7202,-3.7202,-3.7136,-3.6693,-3.5833,0.0,0.0,0.0,0.0,0.0,0.0,0.0,0.0,0.0,0.0,0.0,0.0,0.0,0.0,0.0,0.0,0.0,0.0,0.0,0.0,0.0,0.0,0.0,0.0,0.0,0.0,0.0,0.0,0.0,0.0,0.0,0.0,0.0,0.0,0.0,0.0,0.0,0.0,0.0,0.0,0.0,0.0,0.0,0.0,0.0,0.0,0.0,0.0,0.0,0.0,0.0,0.0,0.0,0.0,0.0,0.0,0.0,0.0,0.0,0.0,0.0,0.0,0.0,0.0,0.0,0.0,0.0,0.0,0.0,0.0,0.0,0.0,0.0,0.0,0.0,0.0,0.0,0.0,0.0,0.0,0.0,0.0,0.0,0.0,0.0,0.0,0.0,0.0,0.0,0.0,0.0,0.0,0.0,0.0,0.0,0.0,0.0,0.0,0.0,0.0,0.0,0.0,0.0,0.0,0.0,0.0,0.0,0.0,-4.0157,-3.9478,-3.9111,-3.9001,-3.8761,-3.7849,0.0,0.0,0.0,0.0,0.0,0.0,0.0,0.0,0.0,0.0,0.0,0.0,0.0,0.0,0.0,0.0,0.0,0.0,0.0,0.0,0.0,0.0,0.0,0.0,0.0,0.0,0.0,0.0,0.0,0.0,0.0,0.0,0.0,0.0,0.0,0.0,0.0,0.0,0.0,0.0,0.0,0.0,0.0,0.0,0.0,0.0,0.0,0.0,0.0,0.0,0.0,0.0,0.0,0.0,0.0,0.0,0.0,0.0,0.0,0.0,0.0,0.0,0.0,0.0,0.0,0.0,0.0,0.0,0.0,0.0,0.0,0.0,0.0,0.0,0.0,0.0,0.0,0.0,0.0,0.0,0.0,0.0,0.0,0.0,0.0,0.0,0.0,0.0,0.0,0.0,0.0,0.0,0.0,0.0,0.0,0.0,0.0,0.0,0.0,0.0,0.0,0.0,0.0,0.0,0.0,0.0,0.0,0.0,0.0,-4.3301,-4.3793,-4.3442,-4.2268,-4.1027,-3.9987,0.0,0.0,0.0,0.0,0.0,0.0,0.0,0.0,0.0,0.0,0.0,0.0,0.0,0.0,0.0,0.0,0.0,0.0,0.0,0.0,0.0,0.0,0.0,0.0,0.0,0.0,0.0,0.0,0.0,0.0,0.0,0.0,0.0,0.0,0.0,0.0,0.0,0.0,0.0,0.0,0.0,0.0,0.0,0.0,0.0,0.0,0.0,0.0,0.0,0.0,0.0,0.0,0.0,0.0,0.0,0.0,0.0,0.0,0.0,0.0,0.0,0.0,0.0,0.0,0.0,0.0,0.0,0.0,0.0,0.0,0.0,0.0,0.0,0.0,0.0,0.0,0.0,0.0,0.0,0.0,0.0,0.0,0.0,0.0,0.0,0.0,0.0,0.0,0.0,0.0,0.0,0.0,0.0,0.0,0.0,0.0,0.0,0.0,0.0,0.0,0.0,0.0,0.0,0.0,0.0,0.0,0.0,0.0,-4.2301,-4.44,-4.5822,-4.6209,-4.5553,-4.3487,-4.1723,0.0,0.0,0.0,0.0,0.0,0.0,0.0,0.0,0.0,0.0,0.0,0.0,0.0,0.0,0.0,0.0,0.0,0.0,0.0,0.0,0.0,0.0,0.0,0.0,0.0,0.0,0.0,0.0,0.0,0.0,0.0,0.0,0.0,0.0,0.0,0.0,0.0,0.0,0.0,0.0,0.0,0.0,0.0,0.0,0.0,0.0,0.0,0.0,0.0,0.0,0.0,0.0,0.0,0.0,0.0,0.0,0.0,0.0,0.0,0.0,0.0,0.0,0.0,0.0,0.0,0.0,0.0,0.0,0.0,0.0,0.0,0.0,0.0,0.0,0.0,0.0,0.0,0.0,0.0,0.0,0.0,0.0,0.0,0.0,0.0,0.0,0.0,0.0,0.0,0.0,0.0,0.0,0.0,0.0,0.0,0.0,0.0,0.0,0.0,0.0,0.0,0.0,0.0,0.0,0.0,0.0,0.0,0.0,-4.2816,-4.4277,-4.6248,-4.7572,-4.8002,-4.5619,-4.3083,0.0,0.0,0.0,0.0,0.0,0.0,0.0,0.0,0.0,0.0,0.0,0.0,0.0,0.0,0.0,0.0,0.0,0.0,0.0,0.0,0.0,0.0,0.0,0.0,0.0,0.0,0.0,0.0,0.0,0.0,0.0,0.0,0.0,0.0,0.0,0.0,0.0,0.0,0.0,0.0,0.0,0.0,0.0,0.0,0.0,0.0,0.0,0.0,0.0,0.0,0.0,0.0,0.0,0.0,0.0,0.0,0.0,0.0,0.0,0.0,0.0,0.0,0.0,0.0,0.0,0.0,0.0,0.0,0.0,0.0,0.0,0.0,0.0,0.0,0.0,0.0,0.0,0.0,0.0,0.0,0.0,0.0,0.0,0.0,0.0,0.0,0.0,0.0,0.0,0.0,0.0,0.0,0.0,0.0,0.0,0.0,0.0,0.0,0.0,0.0,0.0,0.0,0.0,0.0,0.0,0.0,0.0,0.0,-4.3377,-4.4875,-4.6021,-4.6664,-4.6783,-4.507,-4.3496,0.0,0.0,0.0,0.0,0.0,0.0,0.0,0.0,0.0,0.0,0.0,0.0,0.0,0.0,0.0,0.0,0.0,0.0,0.0,0.0,0.0,0.0,0.0,0.0,0.0,0.0,0.0,0.0,0.0,0.0,0.0,0.0,0.0,0.0,0.0,0.0,0.0,0.0,0.0,0.0,0.0,0.0,0.0,0.0,0.0,0.0,0.0,0.0,-3.8413,0.0,0.0,0.0,0.0,0.0,0.0,0.0,0.0,0.0,0.0,0.0,0.0,0.0,0.0,0.0,0.0,0.0,0.0,0.0,0.0,0.0,0.0,0.0,0.0,0.0,0.0,0.0,0.0,0.0,0.0,0.0,0.0,0.0,0.0,0.0,0.0,0.0,0.0,0.0,0.0,0.0,0.0,0.0,0.0,0.0,0.0,0.0,0.0,0.0,0.0,0.0,0.0,0.0,0.0,0.0,0.0,0.0,0.0,0.0,-4.3067,-4.4922,-4.5628,-4.6112,-4.6312,-4.5107,-4.3764,0.0,0.0,0.0,0.0,0.0,0.0,0.0,0.0,0.0,0.0,0.0,0.0,0.0,0.0,0.0,0.0,0.0,0.0,0.0,0.0,0.0,0.0,0.0,0.0,0.0,0.0,0.0,0.0,0.0,0.0,0.0,0.0,0.0,0.0,0.0,0.0,0.0,0.0,0.0,0.0,0.0,0.0,0.0,0.0,0.0,0.0,0.0,0.0,0.0,0.0,0.0,0.0,0.0,0.0,0.0,0.0,0.0,0.0,0.0,0.0,0.0,0.0,0.0,0.0,0.0,0.0,0.0,0.0,0.0,0.0,0.0,0.0,0.0,0.0,0.0,0.0,0.0,0.0,0.0,0.0,0.0,0.0,0.0,0.0,0.0,0.0,0.0,0.0,0.0,0.0,0.0,0.0,0.0,0.0,0.0,0.0,0.0,0.0,0.0,0.0,0.0,0.0,0.0,0.0,0.0,0.0,0.0,-4.0999,-4.2671,-4.4657,-4.5131,-4.5597,-4.6094,-4.5117,-4.3857,-4.2319,0.0,0.0,0.0,0.0,0.0,0.0,0.0,0.0,0.0,0.0,0.0,0.0,0.0,0.0,0.0,0.0,0.0,0.0,0.0,0.0,0.0,0.0,0.0,0.0,0.0,0.0,0.0,0.0,0.0,0.0,0.0,0.0,0.0,0.0,0.0,0.0,0.0,0.0,-3.446,-3.6163,0.0,0.0,0.0,0.0,0.0,0.0,0.0,0.0,-4.0307,0.0,0.0,0.0,0.0,0.0,0.0,0.0,0.0,0.0,0.0,0.0,0.0,0.0,0.0,0.0,0.0,0.0,0.0,0.0,0.0,0.0,0.0,0.0,0.0,0.0,0.0,0.0,0.0,0.0,0.0,0.0,0.0,0.0,0.0,0.0,0.0,0.0,0.0,0.0,0.0,0.0,0.0,0.0,0.0,0.0,0.0,0.0,0.0,0.0,0.0,0.0,0.0,0.0,0.0,0.0,0.0,-4.1069,-4.1903,-4.3059,-4.4593,-4.4708,-4.4814,-4.4889,-4.4048,-4.3195,-4.2277,0.0,0.0,0.0,0.0,0.0,0.0,0.0,0.0,0.0,0.0,0.0,0.0,0.0,0.0,0.0,0.0,0.0,0.0,0.0,0.0,0.0,0.0,0.0,0.0,0.0,0.0,0.0,0.0,0.0,0.0,0.0,0.0,0.0,0.0,0.0,0.0,0.0,0.0,0.0,-3.6561,-3.7402,0.0,0.0,0.0,0.0,0.0,0.0,0.0,0.0,-4.0925,0.0,0.0,0.0,0.0,0.0,0.0,0.0,0.0,0.0,0.0,0.0,0.0,0.0,0.0,0.0,0.0,0.0,0.0,0.0,0.0,0.0,0.0,0.0,0.0,0.0,0.0,0.0,0.0,0.0,0.0,0.0,0.0,0.0,0.0,0.0,0.0,0.0,0.0,0.0,0.0,0.0,0.0,0.0,0.0,0.0,0.0,0.0,0.0,0.0,0.0,0.0,0.0,0.0,0.0,0.0,-4.1256,-4.2426,-4.3491,-4.4519,-4.457,-4.457,-4.4553,-4.3826,-4.3047,0.0,0.0,0.0,0.0,0.0,0.0,0.0,0.0,0.0,0.0,0.0,0.0,0.0,0.0,0.0,0.0,0.0,0.0,0.0,0.0,0.0,0.0,0.0,0.0,0.0,0.0,0.0,0.0,0.0,0.0,0.0,0.0,0.0,0.0,0.0,0.0,0.0,0.0,0.0,0.0,-3.8014,-3.9007,-4.0337,0.0,0.0,0.0,0.0,0.0,0.0,-4.1466,-4.1017,0.0,0.0,0.0,0.0,0.0,0.0,0.0,0.0,0.0,0.0,0.0,0.0,0.0,0.0,0.0,0.0,0.0,0.0,0.0,0.0,0.0,0.0,0.0,0.0,0.0,0.0,0.0,0.0,0.0,0.0,0.0,0.0,0.0,0.0,0.0,0.0,0.0,0.0,0.0,0.0,0.0,0.0,0.0,0.0,0.0,0.0,0.0,0.0,0.0,0.0,0.0,0.0,0.0,0.0,0.0,-4.1407,-4.2743,-4.3792,-4.4536,-4.457,-4.457,-4.4553,-4.3635,-4.2787,0.0,0.0,0.0,0.0,0.0,0.0,0.0,0.0,0.0,0.0,0.0,0.0,0.0,0.0,0.0,0.0,0.0,0.0,0.0,0.0,0.0,0.0,0.0,0.0,0.0,0.0,0.0,0.0,0.0,0.0,0.0,0.0,0.0,0.0,0.0,0.0,0.0,0.0,0.0,0.0,0.0,-4.0212,-4.1572,-4.1272,0.0,0.0,0.0,0.0,-4.2004,-4.1502,0.0,0.0,0.0,0.0,0.0,0.0,0.0,0.0,0.0,0.0,0.0,0.0,0.0,0.0,0.0,0.0,0.0,0.0,0.0,0.0,0.0,0.0,0.0,0.0,0.0,0.0,0.0,0.0,0.0,0.0,0.0,0.0,0.0,0.0,0.0,0.0,0.0,0.0,0.0,0.0,0.0,0.0,0.0,0.0,0.0,0.0,0.0,0.0,0.0,0.0,0.0,0.0,0.0,0.0,0.0,0.0,-4.21,-4.2997,-4.3792,-4.4519,-4.457,-4.457,-4.4553,-4.2964,-4.2009,0.0,0.0,0.0,0.0,0.0,0.0,0.0,0.0,0.0,0.0,0.0,0.0,0.0,0.0,0.0,0.0,0.0,0.0,0.0,0.0,0.0,0.0,0.0,0.0,0.0,0.0,0.0,0.0,0.0,0.0,0.0,0.0,0.0,0.0,0.0,0.0,0.0,0.0,0.0,0.0,0.0,-3.915,-4.1163,-4.0449,-4.0045,0.0,0.0,-4.2004,-4.2088,-4.1896,0.0,0.0,0.0,0.0,0.0,0.0,0.0,0.0,0.0,0.0,0.0,0.0,0.0,0.0,0.0,0.0,0.0,0.0,0.0,0.0,0.0,0.0,0.0,0.0,0.0,0.0,0.0,0.0,0.0,0.0,0.0,0.0,0.0,0.0,0.0,0.0,0.0,0.0,0.0,0.0,0.0,0.0,0.0,0.0,0.0,0.0,0.0,0.0,0.0,0.0,0.0,0.0,0.0,0.0,0.0,-4.051,-4.2269,-4.347,-4.4248,-4.457,-4.457,-4.4367,-4.3873,-4.2528,-4.1521,0.0,0.0,0.0,0.0,0.0,0.0,0.0,0.0,0.0,0.0,0.0,0.0,0.0,0.0,0.0,0.0,0.0,0.0,0.0,0.0,0.0,0.0,0.0,0.0,0.0,0.0,0.0,0.0,0.0,0.0,0.0,0.0,0.0,0.0,0.0,0.0,0.0,0.0,0.0,0.0,0.0,0.0,-4.0324,-4.0615,0.0,0.0,0.0,-4.1988,-4.2378,0.0,0.0,0.0,0.0,0.0,0.0,0.0,0.0,0.0,0.0,0.0,0.0,0.0,0.0,0.0,0.0,0.0,0.0,0.0,0.0,0.0,0.0,0.0,0.0,0.0,0.0,0.0,0.0,0.0,0.0,0.0,0.0,0.0,0.0,0.0,0.0,0.0,0.0,0.0,0.0,0.0,0.0,0.0,0.0,0.0,0.0,0.0,0.0,0.0,0.0,0.0,0.0,0.0,0.0,0.0,0.0,0.0,-4.193,-4.3496,-4.4179,-4.3931,-4.3931,-4.3621,-4.2953,-4.1953,0.0,0.0,0.0,0.0,0.0,0.0,0.0,0.0,0.0,0.0,0.0,0.0,0.0,0.0,0.0,0.0,0.0,0.0,0.0,0.0,0.0,0.0,0.0,0.0,0.0,0.0,0.0,-2.9139,0.0,0.0,0.0,0.0,0.0,0.0,0.0,0.0,0.0,0.0,0.0,0.0,0.0,0.0,-3.9203,-3.9677,-4.0607,-4.1238,0.0,0.0,-4.1666,-4.2101,-4.1211,-4.0576,0.0,0.0,0.0,0.0,0.0,0.0,0.0,0.0,0.0,0.0,0.0,0.0,0.0,0.0,0.0,0.0,0.0,0.0,0.0,0.0,0.0,0.0,0.0,0.0,0.0,0.0,0.0,0.0,0.0,0.0,0.0,0.0,0.0,0.0,0.0,0.0,0.0,0.0,0.0,0.0,0.0,0.0,0.0,0.0,0.0,0.0,0.0,0.0,0.0,0.0,0.0,0.0,0.0,0.0,-4.0925,-4.0927,-4.2548,-4.2986,-4.2252,-4.2189,-4.2125,-4.2045,-4.1056,-4.0198,0.0,0.0,0.0,0.0,0.0,0.0,0.0,0.0,0.0,0.0,0.0,0.0,0.0,0.0,0.0,0.0,0.0,0.0,0.0,0.0,0.0,0.0,0.0,0.0,0.0,0.0,0.0,0.0,0.0,0.0,0.0,0.0,0.0,0.0,0.0,0.0,0.0,0.0,0.0,0.0,0.0,-3.8376,-3.9757,-3.9913,-4.0075,0.0,-4.0879,-4.0942,-4.0864,-4.0742,-4.0546,-4.0138,0.0,0.0,0.0,0.0,0.0,0.0,0.0,0.0,0.0,0.0,0.0,0.0,0.0,0.0,0.0,0.0,0.0,0.0,0.0,0.0,0.0,0.0,0.0,0.0,0.0,0.0,0.0,0.0,0.0,0.0,0.0,0.0,0.0,0.0,0.0,0.0,0.0,0.0,0.0,0.0,0.0,0.0,0.0,0.0,0.0,0.0,0.0,0.0,0.0,0.0,0.0,0.0,0.0,-4.0238,-4.0577,-4.1869,-4.2316,-4.1997,-4.1981,-4.1739,-4.1213,-4.0635,-3.97,0.0,0.0,0.0,0.0,0.0,0.0,0.0,0.0,0.0,0.0,0.0,0.0,0.0,0.0,0.0,0.0,0.0,0.0,0.0,0.0,0.0,0.0,0.0,0.0,0.0,0.0,0.0,0.0,-3.0972,-3.112,-3.124,0.0,0.0,0.0,0.0,0.0,0.0,0.0,0.0,0.0,0.0,-3.7918,-3.9047,-3.9642,0.0,0.0,-4.1022,-4.1294,-4.1762,-4.1117,-4.0512,-4.0427,-3.961,0.0,0.0,0.0,0.0,0.0,0.0,0.0,0.0,0.0,0.0,0.0,0.0,0.0,0.0,0.0,0.0,0.0,0.0,0.0,0.0,0.0,0.0,0.0,0.0,0.0,0.0,0.0,0.0,0.0,0.0,0.0,0.0,0.0,0.0,0.0,0.0,0.0,0.0,0.0,0.0,0.0,0.0,0.0,0.0,0.0,0.0,0.0,0.0,0.0,0.0,0.0,0.0,-3.9677,-3.9872,-4.104,-4.1478,-4.1229,-4.1213,-4.0961,-4.0363,-4.0053,-3.9379,0.0,0.0,0.0,0.0,0.0,0.0,0.0,0.0,0.0,0.0,0.0,0.0,0.0,0.0,0.0,0.0,0.0,0.0,0.0,0.0,0.0,0.0,0.0,0.0,0.0,0.0,0.0,0.0,-3.1298,-3.1415,-3.1331,0.0,0.0,0.0,0.0,0.0,0.0,0.0,0.0,0.0,0.0,-3.8012,-3.8772,-3.9576,-4.0249,-4.0846,-4.1009,-4.127,-4.2093,-4.137,-4.0738,-4.0928,0.0,0.0,0.0,0.0,0.0,0.0,0.0,0.0,0.0,0.0,0.0,0.0,0.0,0.0,0.0,0.0,0.0,0.0,0.0,0.0,0.0,0.0,0.0,0.0,0.0,0.0,0.0,0.0,0.0,0.0,-3.6705,0.0,0.0,0.0,0.0,0.0,0.0,0.0,0.0,0.0,0.0,0.0,0.0,0.0,0.0,0.0,0.0,0.0,0.0,0.0,0.0,0.0,0.0,-3.947,-3.8691,-4.0008,-4.0309,-3.9553,-3.9496,-3.9481,-3.9481,-3.9409,-3.908,-3.8377,0.0,0.0,0.0,0.0,0.0,0.0,0.0,0.0,0.0,0.0,0.0,0.0,0.0,0.0,0.0,0.0,0.0,0.0,0.0,0.0,0.0,0.0,0.0,0.0,0.0,0.0,-3.067,-3.1085,-3.1254,0.0,0.0,0.0,0.0,0.0,0.0,0.0,0.0,0.0,0.0,-3.8136,-3.8616,-3.9275,-3.9538,-3.9922,-4.0396,-4.0633,-4.0917,-4.1415,-4.143,-4.1369,0.0,0.0,0.0,0.0,0.0,0.0,0.0,0.0,0.0,0.0,0.0,0.0,0.0,0.0,0.0,0.0,0.0,0.0,0.0,0.0,0.0,0.0,0.0,0.0,0.0,0.0,0.0,-3.8616,-3.8599,0.0,0.0,0.0,0.0,0.0,0.0,0.0,0.0,0.0,0.0,0.0,-4.0249,-3.9691,0.0,0.0,0.0,0.0,0.0,0.0,0.0,0.0,0.0,0.0,0.0,0.0,-3.8577,-3.8193,-3.9252,-3.9666,-3.9424,-3.9424,-3.9424,-3.9424,-3.9424,-3.9095,-3.8407,0.0,0.0,0.0,0.0,0.0,0.0,0.0,0.0,0.0,0.0,0.0,0.0,0.0,0.0,0.0,0.0,0.0,0.0,0.0,0.0,0.0,0.0,0.0,0.0,0.0,-3.1135,0.0,0.0,0.0,0.0,0.0,0.0,0.0,0.0,0.0,0.0,0.0,-3.5303,-3.645,-3.7069,-3.777,-3.8649,-3.9104,-3.9652,0.0,0.0,0.0,0.0,0.0,0.0,0.0,0.0,0.0,0.0,0.0,0.0,0.0,0.0,-3.6456,-3.5994,-3.6318,-3.6458,-3.6204,0.0,0.0,0.0,0.0,0.0,0.0,0.0,0.0,0.0,0.0,0.0,0.0,0.0,0.0,-4.0138,0.0,-3.9868,0.0,0.0,0.0,0.0,0.0,0.0,0.0,0.0,-4.0991,-4.0916,-4.0875,-4.0331,-3.9721,0.0,-3.9094,-3.8385,0.0,0.0,0.0,0.0,0.0,0.0,0.0,0.0,-3.7962,-3.7888,-3.8877,-3.9424,-3.9424,-3.9424,-3.9424,-3.9424,-3.9424,-3.9215,-3.8766,-3.8108,-3.7569,0.0,0.0,0.0,0.0,0.0,0.0,0.0,0.0,0.0,0.0,0.0,0.0,0.0,0.0,0.0,0.0,0.0,0.0,0.0,0.0,0.0,0.0,0.0,-3.1675,0.0,0.0,0.0,0.0,0.0,0.0,0.0,0.0,0.0,-3.3971,-3.4435,-3.4961,-3.5864,-3.6578,-3.7425,-3.8402,0.0,0.0,0.0,0.0,0.0,0.0,0.0,-4.1383,-4.0654,-4.0421,-3.9986,-3.9145,-3.8051,-3.7157,-3.6648,0.0,0.0,-3.5851,-3.5961,-3.6022,-3.5655,-3.5364,-3.5111,-3.529,-3.529,-3.5328,0.0,0.0,0.0,0.0,0.0,0.0,0.0,0.0,-4.2016,-4.2286,0.0,-4.1576,0.0,0.0,0.0,0.0,0.0,-4.071,0.0,0.0,-4.2354,-4.2255,-4.0722,-4.0467,-4.0322,-4.0291,-3.924,-3.862,-3.8411,-3.8589,0.0,0.0,0.0,0.0,0.0,0.0,-3.7707,-3.7797,-3.8837,-3.9424,-3.9424,-3.9424,-3.9424,-3.9424,-3.9424,-3.9337,-3.9307,-3.8695,-3.8336,-3.8277,-3.6421,0.0,0.0,0.0,0.0,0.0,0.0,0.0,0.0,0.0,0.0,0.0,0.0,0.0,0.0,0.0,0.0,0.0,0.0,0.0,0.0,-3.1599,0.0,0.0,0.0,0.0,0.0,0.0,0.0,0.0,0.0,0.0,-3.3911,-3.4618,-3.5282,-3.5842,0.0,0.0,0.0,0.0,-3.9396,-4.0689,-4.0952,-4.1169,-4.1792,-4.1267,-4.0845,-4.0845,0.0,0.0,-3.893,-3.7954,-3.7061,-3.6392,-3.6131,-3.5862,-3.5775,-3.5786,-3.5736,-3.5558,-3.5353,-3.5416,-3.6135,-3.5595,-3.4864,-4.2509,0.0,0.0,0.0,0.0,-4.166,-4.21,-4.2794,-4.2997,-4.3098,-4.3081,-4.2878,0.0,0.0,0.0,0.0,0.0,0.0,-4.0876,-4.0855,-4.0641,-4.0582,-4.0665,-4.0033,-3.9716,-3.9701,-3.9325,-3.9194,-3.9109,-3.9194,-3.8516,-3.7216,0.0,0.0,0.0,0.0,-3.7728,-3.8207,-3.8975,-3.9424,-3.9424,-3.9424,-3.9424,-3.9424,-3.9424,-3.9017,-3.8308,-3.8044,-3.7414,-3.6283,-3.5493,0.0,0.0,0.0,0.0,0.0,0.0,0.0,0.0,0.0,0.0,0.0,0.0,0.0,0.0,0.0,0.0,0.0,0.0,0.0,-3.1675,-3.2026,-3.2202,0.0,0.0,0.0,0.0,0.0,0.0,0.0,0.0,0.0,-3.3926,-3.4425,-3.4829,0.0,0.0,-3.73,-3.762,-3.8007,-3.8575,-3.9466,-3.9508,0.0,-4.012,-4.0031,-3.9784,-3.9489,-3.8792,-3.816,-3.7991,-3.7219,-3.6574,-3.64,-3.6319,-3.6269,-3.621,-3.6172,-3.616,-3.6105,-3.6092,-3.6117,-3.6324,-3.6074,-3.5881,-4.3606,-4.3132,-4.254,-4.2455,-4.2726,-4.2726,-4.3183,-4.3876,-4.3876,-4.3876,-4.3876,-4.3876,-4.3453,-4.2726,-4.2009,0.0,0.0,0.0,-4.0748,-4.0797,-4.022,-3.9979,-4.017,-3.9681,-3.9424,-3.9424,-3.9424,-3.9424,-3.9424,-3.9424,-3.8762,-3.7639,0.0,0.0,-3.7,-3.7533,-3.7988,-3.8392,-3.9065,-3.9424,-3.9424,-3.9424,-3.9424,-3.9424,-3.9017,-3.8457,-3.7829,-3.7343,-3.6683,-3.5701,-3.5077,-3.4407,0.0,0.0,0.0,0.0,0.0,0.0,0.0,0.0,0.0,0.0,0.0,-3.0482,-3.0143,0.0,0.0,0.0,-3.1122,-3.1612,-3.2478,-3.2554,0.0,0.0,0.0,0.0,0.0,0.0,0.0,-3.3345,-3.3696,-3.3985,-3.4198,-3.4679,-3.4908,-3.4956,-3.5934,-3.6814,-3.7163,0.0,-3.8014,-3.8727,-3.8755,-3.885,-3.9027,-3.8903,-3.8496,-3.7991,-3.7441,-3.7095,-3.7095,-3.6722,-3.6452,-3.637,-3.637,-3.637,-3.637,-3.637,-3.637,-3.637,-3.637,-3.637,-3.637,-3.637,-3.637,-4.457,-4.4451,-4.3064,-4.2878,-4.3504,-4.3504,-4.391,-4.457,-4.457,-4.457,-4.457,-4.457,-4.4181,-4.3288,-4.1634,0.0,-4.0864,-4.0737,-4.0698,-4.0622,-4.0622,-4.0185,-3.9424,-3.9424,-3.9424,-3.9424,-3.9424,-3.9424,-3.9424,-3.9424,-3.9095,-3.8497,-3.8467,-3.8138,-3.7554,-3.8093,-3.8407,-3.8482,-3.911,-3.9424,-3.9424,-3.9424,-3.9352,-3.9265,-3.8308,-3.7753,-3.751,-3.6618,-3.6053,-3.596,-3.4927,-3.4166,-3.394,0.0,0.0,0.0,0.0,0.0,0.0,0.0,0.0,0.0,0.0,0.0,0.0,0.0,0.0,0.0,-3.1964,0.0,-3.3031,-3.3081,0.0,0.0,0.0,-3.3081,-3.3081,-3.3119,-3.3345,-3.3847,0.0,0.0,-3.4713,-3.5265,-3.5429,-3.5211,-3.5682,-3.6182,-3.6884,-3.7208,-3.7638,-3.8211,-3.8328,-3.8315,-3.8238,-3.7808,-3.7268,-3.6722,-3.637,-3.6452,-3.6452,-3.6465,-3.637,-3.637,-3.637,-3.637,-3.637,-3.637,-3.637,-3.637,-3.637,-3.637,-3.637,-3.637,-3.637,-4.457,-4.4536,-4.4181,-4.413,-4.4299,-4.4299,-4.4401,-4.457,-4.457,-4.457,-4.457,-4.457,-4.4095,-4.328,-4.2207,-4.139,-4.0794,-4.0712,-4.0362,-3.9737,-3.9737,-3.961,-3.9424,-3.9424,-3.9424,-3.9424,-3.9424,-3.9424,-3.9424,-3.9424,-3.9334,-3.917,-3.917,-3.8841,-3.8197,-3.8317,-3.8646,-3.917,-3.9334,-3.9424,-3.9424,-3.9424,-3.9017,-3.8234,-3.7919,-3.7035,-3.5534,-3.521,-3.465,-3.3869,-3.3585,-3.3245,-3.2893,-3.1902,0.0,0.0,0.0,0.0,0.0,0.0,0.0,0.0,0.0,-3.062,-3.062,0.0,-3.1562,0.0,-3.2528,-3.293,-3.3056,-3.3081,0.0,0.0,-3.3081,-3.3081,-3.3081,-3.3445,-3.3746,-3.3884,-3.4638,-3.5203,-3.5328,-3.583,-3.6107,-3.6087,-3.6362,-3.6625,-3.6718,-3.6807,-3.6896,-3.707,-3.7083,-3.6896,-3.6896,-3.6815,-3.664,-3.6452,-3.637,-3.637,-3.637,-3.637,-3.637,-3.637,-3.637,-3.637,-3.637,-3.637,-3.637,-3.637,-3.637,-3.637,-3.637,-3.637,-3.637,-4.457,-4.457,-4.457,-4.457,-4.457,-4.457,-4.457,-4.457,-4.457,-4.457,-4.4587,-4.4196,-4.3562,-4.2645,-4.1804,-4.0961,-4.0115,-4.013,-3.9864,-3.9424,-3.9424,-3.9424,-3.9424,-3.9424,-3.9424,-3.9424,-3.9424,-3.9424,-3.9424,-3.9424,-3.9424,-3.9424,-3.9424,-3.923,-3.8871,-3.8856,-3.9035,-3.9424,-3.9424,-3.9192,-3.8708,-3.8708,-3.8088,-3.6869,-3.6396,-3.548,-3.414,-3.3587,-3.3039,-3.2412,-3.2315,-3.2273,-3.2041,-3.1644,-3.1241,0.0,0.0,0.0,0.0,0.0,0.0,0.0,0.0,0.0,0.0,0.0,-3.2265,-3.2579,-3.2893,-3.3081,-3.3081,-3.3081,-3.3081,-3.3081,-3.3081,-3.3081,-3.3081,-3.3571,-3.3997,-3.4248,-3.5027,-3.5642,-3.5881,-3.6157,-3.637,-3.637,-3.6439,-3.6534,-3.6546,-3.6546,-3.6534,-3.6534,-3.6452,-3.637,-3.637,-3.637,-3.637,-3.637,-3.637,-3.637,-3.637,-3.637,-3.637,-3.637,-3.637,-3.637,-3.637,-3.637,-3.637,-3.637,-3.637,-3.637,-3.637,-3.637,-3.637,-4.457,-4.457,-4.457,-4.457,-4.457,-4.457,-4.457,-4.457,-4.457,-4.457,-4.4514,-4.3562,-4.2707,-4.1933,-4.0946,-4.0115,-3.9424,-3.9424,-3.9424,-3.9424,-3.9424,-3.9424,-3.9424,-3.9424,-3.9424,-3.9424,-3.9424,-3.9424,-3.9424,-3.9424,-3.9424,-3.9424,-3.9424,-3.9424,-3.9424,-3.9424,-3.9424,-3.9424,-3.9352,-3.887,-3.7919,-3.7843,-3.7073,-3.5628,-3.4668,-3.3847,-3.3131,-3.2195,-3.1574,-3.1386,-3.1386,-3.1424,-3.1486,-3.1424,-3.1223,0.0,-3.1185,0.0,0.0,0.0,0.0,0.0,0.0,0.0,0.0,-3.2453,-3.3081,-3.3081,-3.3081,-3.3081,-3.3081,-3.3081,-3.3081,-3.3081,-3.3081,-3.3093,-3.3194,-3.3671,-3.4211,-3.4751,-3.5316,-3.583,-3.627,-3.637,-3.637,-3.637,-3.6452,-3.6465,-3.637,-3.6465,-3.6465,-3.637,-3.637,-3.637,-3.637,-3.637,-3.637,-3.637,-3.637,-3.637,-3.637,-3.637,-3.637,-3.637,-3.637,-3.637,-3.637,-3.637,-3.637,-3.637,-3.637,-3.637,-3.637,-3.637,-3.637,-4.457,-4.457,-4.457,-4.457,-4.457,-4.457,-4.457,-4.457,-4.457,-4.457,-4.444,-4.297,-4.2125,-4.1869,-4.0309,-3.9538,-3.9424,-3.9424,-3.9424,-3.9424,-3.9424,-3.9424,-3.9424,-3.9424,-3.9424,-3.9424,-3.9424,-3.9424,-3.9424,-3.9424,-3.9424,-3.9424,-3.9424,-3.9424,-3.9424,0.0,0.0,0.0,-3.9104,-3.8723,-3.8352,-3.7886,-3.6795,-3.5036,-3.4616,0.0,-3.2072,-3.1805,-3.1574,-3.1386,-3.1386,0.0,0.0,0.0,0.0,0.0,0.0,0.0,0.0,0.0,0.0,0.0,-3.1813,-3.2051,-3.2077,-3.2679,-3.3081,-3.3081,-3.3081,-3.3081,-3.3081,-3.3081,-3.3081,-3.3081,-3.3081,-3.3257,-3.3696,-3.4236,-3.4776,-3.5328,-3.5868,-3.6232,-3.6332,-3.637,-3.637,-3.637,-3.637,-3.637,-3.637,-3.637,-3.637,-3.637,-3.637,-3.637,-3.637,-3.637,-3.637,-3.637,-3.637,-3.637,-3.637,-3.637,-3.637,-3.637,-3.637,-3.637,-3.637,-3.637,-3.637,-3.637,-3.637,-3.637,-3.637,-3.637,-3.637,-4.457,0.0,-4.457,-4.457,0.0,-4.457,-4.457,-4.457,-4.457,-4.457,-4.4514,-4.2769,-4.1981,-4.1933,-4.02,-3.9424,-3.9424,-3.9424,-3.9424,-3.9424,-3.9424,-3.9424,-3.9424,-3.9424,-3.9424,-3.9424,-3.9424,-3.9424,-3.9424,-3.9424,-3.9424,-3.9424,-3.9424,-3.9104,-3.862,-3.8069,-3.8055,-3.8634,-3.789,-3.7266,-3.6674,-3.6346,-3.5357,-3.3778,0.0,0.0,0.0,0.0,0.0,0.0,0.0,0.0,0.0,0.0,0.0,-3.18,-3.2064,-3.2089,-3.1838,-3.2077,-3.2227,-3.224,-3.2478,-3.2641,-3.2641,-3.2905,-3.3081,-3.3081,-3.3081,-3.3081,-3.3081,-3.3081,-3.3081,-3.3081,-3.3081,-3.3294,-3.3834,-3.4387,-3.4926,-3.5479,-3.6019,-3.637,-3.637,-3.637,-3.637,-3.637,-3.637,-3.637,-3.637,-3.637,-3.637,-3.637,-3.637,-3.637,-3.637,-3.637,-3.637,-3.637,-3.637,-3.637,-3.637,-3.637,-3.637,-3.637,-3.637,-3.637,-3.637,-3.637,-3.637,-3.637,-3.637,-3.637,-3.637,-3.637,-3.637,-4.457,-4.457,-4.457,-4.457,-4.457,-4.457,-4.457,-4.457,0.0,0.0,0.0,-4.2769,-4.1981,-4.1853,-4.02,-3.9424,-3.9424,-3.9424,-3.9424,-3.9424,-3.9424,-3.9424,-3.9424,-3.9424,-3.9424,-3.9424,-3.9424,-3.9424,-3.9424,-3.9424,-3.9265,-3.9104,-3.9104,-3.856,-3.7496,-3.6462,-3.6383,-3.7204,-3.6462,-3.5668,-3.4828,-3.4664,-3.4001,-3.267,-3.2574,-3.232,-3.1762,-3.1749,-3.1574,-3.1386,-3.1386,-3.1436,-3.1549,-3.1964,-3.2051,-3.1763,-3.2554,-3.2867,-3.2416,-3.2805,-3.3081,-3.3081,-3.3081,-3.3081,-3.3081,-3.3081,-3.3081,-3.3081,-3.3081,-3.3081,-3.3081,-3.3081,-3.3081,-3.3081,-3.3081,-3.3332,-3.396,-3.4437,-3.4977,-3.5592,-3.6094,-3.637,-3.637,-3.637,-3.637,-3.637,-3.637,-3.637,-3.637,-3.637,-3.637,-3.637,-3.637,-3.637,-3.637,-3.637,-3.637,-3.637,-3.637,-3.637,-3.637,-3.637,-3.637,-3.637,-3.637,-3.637,-3.637,-3.637,-3.637,-3.637,-3.637,-3.637,-3.637,-3.637,-3.637,-4.457,-4.457,-4.457,-4.457,-4.457,-4.457,-4.457,-4.457,-4.457,-4.457,-4.4497,-4.2769,-4.1981,-4.1933,-4.0185,-3.9424,-3.9424,-3.9424,-3.9424,0.0,-3.9424,-3.9424,-3.9424,-3.9424,-3.9424,-3.9424,-3.9424,-3.9424,-3.9424,-3.9424,-3.8943,-3.8144,-3.7994,-3.7496,-3.6448,-3.544,-3.4979,-3.5142,-3.5548,-3.5534,-3.5224,-3.4703,-3.404,-3.3191,-3.2918,-3.2485,-3.1762,-3.1762,-3.1574,-3.1386,-3.1386,-3.1599,-3.2077,-3.2177,-3.239,-3.2805,-3.2993,-3.3043,-3.2955,-3.3031,-3.3081,-3.3081,-3.3081,-3.3081,-3.3081,-3.3081,-3.3081,-3.3081,-3.3081,-3.3081,-3.3081,-3.3081,-3.3081,-3.3081,-3.3081,-3.347,-3.4449,-3.465,-3.5115,-3.6069,-3.6307,-3.637,-3.637,-3.637,-3.637,-3.637,-3.637,-3.637,-3.637,-3.637,-3.637,-3.637,-3.637,-3.637,-3.637,-3.637,-3.637,-3.637,-3.637,-3.637,-3.637,-3.637,-3.637,-3.637,-3.637,-3.637,-3.637,-3.637,-3.637,-3.637,-3.637,-3.637,-3.6395,-3.6313,-3.6288,-4.457,-4.457,-4.457,-4.457,-4.457,-4.457,-4.457,-4.457,-4.457,-4.457,-4.444,-4.2769,-4.1981,-4.1869,-4.02,-3.9424,-3.9424,-3.9424,-3.9424,-3.9424,-3.9424,-3.9424,-3.9424,-3.9424,-3.9424,-3.9424,-3.9424,-3.9424,-3.9424,-3.9424,-3.887,-3.7753,-3.6724,-3.5842,-3.5359,-3.4345,-3.3784,-3.3797,-3.4121,-3.4191,-3.4108,-3.381,-3.3538,-3.3127,-3.3043,-3.2845,-3.2508,-3.2483,-3.2399,-3.2303,-3.2303,-3.2416,-3.2667,-3.2692,-3.2792,-3.3056,-3.3081,-3.3081,-3.3081,-3.3081,-3.3081,-3.3081,-3.3081,-3.3081,-3.3081,-3.3081,-3.3081,-3.3081,-3.3081,-3.3081,-3.3081,-3.3081,-3.3081,-3.3081,-3.3081,-3.3533,-3.4487,-3.4726,-3.5165,-3.6144,-3.637,-3.637,-3.637,-3.637,-3.637,-3.637,-3.637,-3.637,-3.637,-3.637,-3.637,-3.637,-3.637,-3.637,-3.637,-3.637,-3.637,-3.637,-3.637,-3.637,-3.637,-3.637,-3.637,-3.637,-3.637,-3.637,-3.637,-3.637,-3.637,-3.637,-3.637,-3.6433,-3.636,-3.5697,-3.5357,-4.457,-4.457,-4.457,-4.457,-4.457,-4.457,-4.457,-4.457,-4.457,-4.457,-4.4367,-4.2753,-4.1981,-4.1804,-4.02,-3.9424,-3.9424,-3.9424,-3.9424,-3.9424,-3.9424,-3.9424,-3.9424,-3.9424,-3.9424,-3.9424,-3.9424,-3.9424,-3.9424,-3.9424,-3.8694,-3.7343,-3.5373,-3.4345,-3.4345,-3.3471,-3.3081,-3.3081,-3.3081,-3.3081,-3.3081,-3.3081,-3.3081,-3.3081,-3.3081,-3.3081,-3.3081,-3.3081,-3.3081,-3.3081,-3.3081,-3.3081,-3.3081,-3.3081,-3.3081,-3.3081,-3.3081,-3.3081,-3.3081,-3.3081,-3.3081,-3.3081,-3.3081,-3.3081,-3.3081,-3.3081,-3.3081,-3.3081,-3.3081,-3.3081,-3.3081,-3.3081,-3.3081,-3.3081,-3.3081,-3.337,-3.3966,-3.4061,-3.4379,-3.5248,-3.5375,-3.5304,-3.5522,-3.5763,-3.6061,-3.6358,-3.637,-3.637,-3.637,-3.637,-3.637,-3.637,-3.637,-3.637,-3.637,-3.637,-3.637,-3.637,-3.637,-3.637,-3.637,-3.637,-3.637,-3.637,-3.637,-3.637,-3.637,-3.637,-3.637,-3.637,-3.637,-3.6281,-3.5868,-3.4363,-3.3673,-4.457,-4.457,-4.457,-4.457,-4.457,-4.457,-4.457,-4.457,-4.457,-4.457,-4.444,-4.2769,-4.1981,-4.1723,-4.02,-3.9424,-3.9424,-3.9424,-3.9424,-3.9424,-3.9424,-3.9424,-3.9424,-3.9424,-3.9424,-3.9424,-3.9424,-3.9337,-3.9265,-3.9265,-3.8279,-3.629,-3.4249,-3.3326,-3.324,-3.3154,-3.3081,-3.3081,-3.3081,-3.3081,-3.3081,-3.3081,-3.3081,-3.3081,-3.3081,-3.3081,-3.3081,-3.3081,-3.3081,-3.3081,-3.3081,-3.3081,-3.3081,-3.3081,-3.3081,-3.3081,-3.3081,-3.3081,-3.3081,-3.3081,-3.3081,-3.3081,-3.3081,-3.3081,-3.3081,-3.3081,-3.3081,-3.3081,-3.3081,-3.3081,-3.3081,-3.3081,-3.3081,-3.2896,-3.2982,-3.2959,-3.2473,-3.2388,-3.231,-3.2156,-3.2466,-3.2332,-3.2937,-3.3829,-3.4884,-3.5672,-3.5754,-3.5804,-3.5866,-3.5879,-3.5879,-3.6118,-3.6345,-3.6332,-3.6345,-3.637,-3.637,-3.637,-3.637,-3.637,-3.637,-3.637,-3.637,-3.637,-3.6263,-3.6168,-3.6263,-3.637,-3.6301,-3.6393,-3.626,-3.6065,-3.4726,-3.2764,-3.1861,-4.457,-4.457,-4.457,-4.457,-4.457,-4.457,-4.457,-4.457,-4.457,-4.457,-4.4384,-4.2769,-4.1981,-4.1869,-4.02,-3.9424,-3.9424,-3.9424,-3.9424,-3.9424,-3.9424,-3.9424,-3.9424,-3.9424,-3.9424,-3.9424,-3.9424,-3.9104,-3.8294,-3.719,-3.616,-3.5278,-3.3784,-3.3081,-3.3081,-3.3081,-3.3081,-3.3081,-3.3081,-3.3081,-3.3081,-3.3081,-3.3081,-3.3081,-3.3081,-3.3081,-3.3081,-3.3081,-3.3081,-3.3081,-3.3081,-3.3081,-3.3081,-3.3081,-3.3081,-3.3081,-3.3081,-3.3081,-3.3081,-3.3081,-3.3081,-3.3081,-3.3081,-3.3081,-3.3081,-3.2426,-3.1965,-3.2052,-3.2612,-3.3081,-3.3081,-3.3081,-3.2797,-3.214,-3.1965,-3.1704,-3.1021,-3.0986,-3.1004,-3.1258,-3.1274,-3.1341,-3.151,-3.1968,-3.2549,-3.3125,-3.3244,-3.347,-3.3622,-3.3596,-3.3608,-3.3608,-3.3596,-3.4535,-3.5734,-3.637,-3.6345,-3.6345,-3.637,-3.637,-3.6213,-3.6358,-3.637,-3.6332,-3.5593,-3.5198,-3.5174,-3.5077,-3.5014,-3.5575,-3.6196,-3.5609,-3.2634,-3.0647,-2.9829,-4.457,-4.457,-4.457,-4.457,-4.457,-4.457,-4.457,-4.457,-4.457,-4.4457,-4.4064,-4.2645,-4.1853,-4.1478,-4.006,-3.9424,-3.9424,-3.9424,-3.9424,-3.9424,-3.9424,-3.9424,-3.9424,-3.9424,-3.9424,-3.9424,-3.9424,-3.8855,-3.7677,-3.6015,-3.4979,-3.4581,-3.3628,-3.3081,-3.3081,-3.3081,-3.3081,-3.3081,-3.3081,-3.3081,-3.3081,-3.3081,-3.3081,-3.3081,-3.3081,-3.3081,-3.3081,-3.3081,-3.3081,-3.3081,-3.3081,-3.3081,-3.3081,-3.3081,-3.3081,-3.3081,-3.3081,-3.3081,-3.3081,-3.3081,-3.2982,-3.2612,-3.2612,-3.2426,-3.1965,-3.1223,-3.0765,-3.0765,-3.1601,-3.1977,-3.2064,-3.2064,-3.1689,-3.0855,-3.0676,-3.0387,-2.9598,-2.9476,-2.9558,-2.972,-2.9537,-2.9969,-3.037,-3.0533,-3.0663,-3.1134,-3.1112,-3.106,-3.1409,-3.1608,-3.1608,-3.151,-3.1499,-3.2414,-3.4437,-3.4627,-3.4915,-3.4915,-3.4639,-3.4615,-3.4915,-3.4902,-3.489,-3.3815,-3.3669,-3.3511,-3.3347,-3.3163,-3.3143,-3.4205,-3.4408,-3.3413,-3.0798,-2.8938,-2.8111,-4.457,-4.457,-4.457,-4.457,-4.457,-4.457,-4.457,-4.457,-4.457,-4.4138,-4.3366,-4.2442,-4.1543,-4.0758,-3.9793,-3.9424,-3.9424,-3.9424,-3.9424,-3.9424,-3.9424,-3.9424,-3.9424,-3.9424,-3.9424,-3.9352,-3.9265,-3.8708,-3.7677,-3.654,-3.5668,-3.4664,-3.3641,-3.3081,-3.3081,-3.3081,-3.3081,-3.3081,-3.3081,-3.3081,-3.3081,-3.3081,-3.3081,-3.3081,-3.3081,-3.3081,-3.3081,-3.3081,-3.3081,-3.3081,-3.3081,-3.3081,-3.3081,-3.3081,-3.3081,-3.3081,-3.3081,-3.3081,-3.3081,-3.3081,-3.2612,-3.1589,-3.1412,-3.0855,-3.0056,-2.9681,-2.9498,-2.9498,-2.9498,-2.959,-2.9579,-2.9863,-2.9772,-2.9498,-2.9487,-2.898,-2.7809,-2.7789,-2.7373,-2.6971,-2.6983,-2.7577,-2.8827,-2.9042,-2.9515,-3.027,-3.0807,-3.0745,-3.0574,-3.0812,-3.0715,-3.0715,-3.0715,-3.1016,-3.123,-3.2129,-3.188,-3.2011,-3.2425,-3.1643,-3.136,-3.123,-3.1371,-3.1394,-3.1422,-3.1434,-3.1191,-3.1105,-3.0949,-3.104,-3.0141,-2.8853,-2.899,-2.7965,-2.729,-4.457,-4.457,-4.457,-4.457,-4.457,-4.457,-4.457,-4.457,-4.457,-4.4138,-4.3246,-4.2395,-4.1528,-4.0706,-3.9793,-3.9424,-3.9424,-3.9424,-3.9424,-3.9424,-3.9424,-3.9424,-3.9424,-3.9424,-3.9424,-3.9265,-3.8708,-3.751,-3.5855,-3.4733,-3.4024,-3.37,-3.3326,-3.3081,-3.3081,-3.3081,-3.3081,-3.3081,-3.3081,-3.3081,-3.3081,-3.3081,-3.3081,-3.3081,-3.3081,-3.3081,-3.3081,-3.3081,-3.3081,-3.3081,-3.3081,-3.3081,-3.3081,-3.3081,-3.3081,-3.3081,-3.3081,-3.3081,-3.3081,-3.3081,-3.2525,-3.14,-3.1223,-3.0586,-2.959,-2.8773,-2.8215,-2.8121,-2.7484,-2.7115,-2.7389,-2.8402,-2.9039,-2.8402,-2.8226,-2.7767,-2.6754,-2.639,-2.6277,-2.6035,-2.5977,-2.6232,-2.6753,-2.6861,-2.7037,-2.7513,-2.761,-2.7852,-2.7981,-2.8043,-2.8229,-2.8142,-2.8043,-2.794,-2.761,-2.9891,-3.1078,-3.1078,-3.11,-3.1089,-3.083,-3.057,-3.07,-3.0356,-3.0044,-2.9548,-2.9526,-2.8929,-2.8842,-2.8489,-2.7432,-2.7452,-2.7562,-2.6878,-2.6725,-4.457,-4.457,-4.457,-4.457,-4.457,-4.457,-4.457,-4.457,-4.4327,-4.368,-4.2831,-4.1917,-4.108,-4.0309,-3.9681,-3.9424,-3.9424,-3.9424,-3.9424,-3.9424,-3.9424,-3.9424,-3.9424,-3.9424,-3.9424,-3.9265,-3.8294,-3.6894,-3.5292,-3.4108,-3.3484,-3.3154,-3.3081,-3.3081,-3.3081,-3.3081,-3.3081,-3.3081,-3.3081,-3.3081,-3.3081,-3.3081,-3.3081,-3.3081,-3.3081,-3.3081,-3.3081,-3.3081,-3.3081,-3.3081,-3.3081,-3.3081,-3.3081,-3.3081,-3.3081,-3.3081,-3.3081,-3.2896,-3.2513,-3.25,-3.1777,-3.0226,-2.9943,-2.9498,-2.8308,-2.7494,-2.703,-2.6754,-2.6294,-2.5732,-2.6014,-2.721,-2.7851,-2.7125,-2.6945,-2.6668,-2.583,-2.5732,-2.5732,-2.5752,-2.5762,-2.5752,-2.5732,-2.5742,-2.5762,-2.5732,-2.5732,-2.5889,-2.6103,-2.6182,-2.6172,-2.6172,-2.636,-2.6359,-2.6299,-2.7845,-2.8625,-2.8742,-2.901,-2.9386,-2.9654,-2.9633,-2.9525,-2.9203,-2.8805,-2.8219,-2.7638,-2.6943,-2.6673,-2.6621,-2.6426,-2.6448,-2.6387,-2.6226,-2.6145,-4.457,-4.457,-4.457,-4.457,-4.457,-4.457,-4.457,-4.444,-4.3739,-4.2986,-4.2125,-4.1147,-4.0378,-3.961,-3.9424,-3.9424,-3.9424,-3.9424,-3.9424,-3.9424,-3.9424,-3.9424,-3.9424,-3.9424,-3.9177,-3.9017,-3.8204,-3.7056,-3.5732,-3.4656,-3.3772,-3.3152,-3.2918,-3.2855,-3.3018,-3.2893,-3.2968,-3.293,-3.2893,-3.2955,-3.3056,-3.298,-3.2993,-3.3018,-3.3056,-3.3081,-3.3081,-3.3081,-3.3081,-3.3081,-3.3081,-3.3081,-3.3081,-3.3081,-3.3081,-3.3081,-3.3081,-3.2513,-3.1589,-3.1412,-3.0406,-2.868,-2.7872,-2.7494,-2.638,-2.6014,-2.5917,-2.5917,-2.582,-2.5732,-2.5732,-2.5917,-2.6014,-2.5723,-2.5917,-2.583,-2.5732,-2.5732,-2.5732,-2.5732,-2.5732,-2.5732,-2.5732,-2.5732,-2.5732,-2.5732,-2.5732,-2.5752,-2.582,-2.585,-2.5781,-2.5781,-2.584,-2.583,-2.5771,-2.5742,-2.5859,-2.5986,-2.6356,-2.6728,-2.7089,-2.711,-2.7344,-2.714,-2.7247,-2.6683,-2.6693,-2.6192,-2.6035,-2.5927,-2.5781,-2.5702,-2.578,-2.5848,-2.5751,-4.457,-4.457,-4.457,-4.457,-4.457,-4.457,-4.457,-4.4497,-4.368,-4.2785,-4.1933,-4.108,-4.0239,-3.9538,-3.9424,-3.9424,-3.9424,-3.9424,-3.9424,-3.9424,-3.9424,-3.9424,-3.9424,-3.9424,-3.862,-3.7334,-3.6507,-3.5227,-3.3652,-3.2808,-3.2219,-3.1996,-3.1938,-3.1926,-3.1964,-3.1913,-3.1913,-3.1913,-3.1926,-3.1913,-3.1964,-3.2303,-3.2478,-3.2528,-3.2867,-3.3081,-3.3081,-3.3081,-3.3081,-3.3081,-3.3081,-3.3081,-3.3081,-3.3081,-3.3081,-3.3081,-3.3081,-3.2982,-3.2525,-3.1589,-3.0406,-2.9039,-2.8049,-2.703,-2.5917,-2.5732,-2.5732,-2.5732,-2.5732,-2.5732,-2.5732,-2.5732,-2.5732,-2.5732,-2.5732,-2.5732,-2.5732,-2.5732,-2.5732,-2.5732,-2.5732,-2.5732,-2.5732,-2.5732,-2.5732,-2.5732,-2.5732,-2.5732,-2.5732,-2.5732,-2.5732,-2.5732,-2.5732,-2.5732,-2.5732,-2.5732,-2.5732,-2.5732,-2.5732,-2.5732,-2.5732,-2.5732,-2.5732,-2.5732,-2.5732,-2.5732,-2.5732,-2.5732,-2.5732,-2.5732,-2.5684,-2.5684,-2.5742,-2.5732,-2.5732,-4.457,-4.457,-4.457,-4.457,-4.457,-4.457,-4.457,-4.444,-4.3697,-4.2785,-4.1917,-4.108,-4.0239,-3.9553,-3.9424,-3.9424,-3.9424,-3.9424,-3.9424,-3.9424,-3.9424,-3.9424,-3.9364,-3.9125,-3.8179,-3.6555,-3.5502,-3.416,-3.2521,-3.182,-3.1386,-3.1386,-3.1386,-3.1411,-3.1386,-3.1386,-3.1386,-3.1386,-3.1399,-3.1386,-3.1449,-3.1725,-3.1901,-3.1964,-3.2265,-3.2541,-3.2729,-3.2754,-3.2867,-3.3031,-3.3081,-3.3081,-3.3081,-3.2698,-3.2426,-3.2339,-3.1965,-3.1512,-3.1057,-3.0135,-2.9315,-2.8121,-2.7305,-2.6562,-2.582,-2.5732,-2.5732,-2.5732,-2.5732,-2.5732,-2.5732,-2.5732,-2.5732,-2.5732,-2.5732,-2.5732,-2.5732,-2.5732,-2.5732,-2.5732,-2.5732,-2.5732,-2.5732,-2.5732,-2.5732,-2.5732,-2.5732,-2.5732,-2.5732,-2.5732,-2.5732,-2.5732,-2.5732,-2.5732,-2.5732,-2.5732,-2.5732,-2.5732,-2.5732,-2.5732,-2.5732,-2.5732,-2.5732,-2.5732,-2.5732,-2.5732,-2.5732,-2.5732,-2.5732,-2.5732,-2.5732,-2.5732,-2.5732,-2.5732,-2.5732,-4.457,-4.457,-4.457,-4.457,-4.457,-4.457,-4.457,-4.444,-4.368,-4.2785,-4.1933,-4.108,-4.0255,-3.9553,-3.9424,-3.9424,-3.9409,-3.929,-3.926,-3.9245,-3.92,-3.914,-3.9155,-3.8475,-3.7505,-3.6425,-3.4952,-3.3707,-3.2502,-3.1589,-3.1298,-3.116,-3.1135,-3.126,-3.1135,-3.126,-3.1173,-3.1135,-3.1198,-3.1185,-3.121,-3.1336,-3.1348,-3.1348,-3.1474,-3.1725,-3.2102,-3.2252,-3.2444,-3.2895,-3.2797,-3.2711,-3.2612,-3.1689,-3.1134,-3.1045,-3.0045,-2.9223,-2.8132,-2.8132,-2.7484,-2.6562,-2.61,-2.5732,-2.5732,-2.5732,-2.5732,-2.5732,-2.5732,-2.5732,-2.5732,-2.5732,-2.5732,-2.5732,-2.5732,-2.5732,-2.5732,-2.5732,-2.5732,-2.5732,-2.5732,-2.5732,-2.5732,-2.5732,-2.5732,-2.5732,-2.5732,-2.5732,-2.5732,-2.5732,-2.5732,-2.5732,-2.5732,-2.5732,-2.5732,-2.5732,-2.5732,-2.5732,-2.5732,-2.5732,-2.5732,-2.5732,-2.5732,-2.5732,-2.5732,-2.5732,-2.5732,-2.5732,-2.5732,-2.5732,-2.5732,-2.5732,-2.5732,-2.5732,-2.5732,-4.457,-4.457,-4.457,-4.457,-4.457,-4.457,-4.457,-4.4514,-4.368,-4.2785,-4.1933,-4.108,-4.0239,-3.9409,-3.9409,-3.9424,-3.9245,-3.8871,-3.8676,-3.8571,-3.8138,-3.8257,-3.8296,-3.7311,-3.6144,-3.5018,-3.3697,-3.2238,-3.1236,-3.0615,-3.0281,-3.0218,-3.0306,-3.0256,-3.0206,-3.0269,-3.0218,-3.0206,-3.0218,-3.0244,-3.0319,-3.0645,-3.0809,-3.0859,-3.116,-3.1411,-3.1637,-3.2001,-3.2017,-3.1716,-3.1689,-3.1235,-3.0687,-3.0135,-2.9954,-2.9761,-2.9487,-2.9223,-2.8762,-2.8038,-2.74,-2.7125,-2.611,-2.5732,-2.5732,-2.5732,-2.5732,-2.5732,-2.5732,-2.5732,-2.5732,-2.5732,-2.5732,-2.5732,-2.5732,-2.5732,-2.5732,-2.5732,-2.5732,-2.5732,-2.5732,-2.5732,-2.5732,-2.5732,-2.5732,-2.5732,-2.5732,-2.5732,-2.5732,-2.5732,-2.5732,-2.5732,-2.5732,-2.5732,-2.5732,-2.5732,-2.5732,-2.5732,-2.5732,-2.5732,-2.5732,-2.5732,-2.5732,-2.5732,-2.5732,-2.5732,-2.5732,-2.5732,-2.5732,-2.5732,-2.5732,-2.5732,-2.5732,-2.5732,-2.5732,-4.457,-4.457,-4.457,-4.457,-4.457,-4.457,-4.457,-4.444,-4.368,-4.2785,-4.1933,-4.108,-4.0071,-3.9077,-3.899,-3.8811,-3.8542,-3.8167,-3.7988,-3.7868,-3.7345,-3.7419,-3.7535,-3.6649,-3.5439,-3.4021,-3.2935,-3.1672,-3.0441,-2.993,-2.9804,-2.9829,-2.9779,-2.9779,-2.9842,-2.9779,-2.9779,-2.9804,-2.9779,-2.9779,-2.9829,-3.0093,-3.0231,-3.0306,-3.0595,-3.0796,-3.1072,-3.115,-3.1247,-3.1527,-3.1807,-3.1412,-3.0214,-2.9681,-2.9223,-2.8762,-2.8215,-2.7851,-2.7757,-2.7125,-2.6849,-2.6658,-2.6004,-2.582,-2.5732,-2.5732,-2.5732,-2.5732,-2.5732,-2.5732,-2.5732,-2.5732,-2.5732,-2.5732,-2.5732,-2.5732,-2.5732,-2.5732,-2.5732,-2.5732,-2.5732,-2.5732,-2.5732,-2.5732,-2.5732,-2.5732,-2.5732,-2.5732,-2.5732,-2.5732,-2.5732,-2.5732,-2.5732,-2.5732,-2.5732,-2.5732,-2.5732,-2.5732,-2.5732,-2.5732,-2.5732,-2.5732,-2.5732,-2.5732,-2.5732,-2.5732,-2.5732,-2.5732,-2.5732,-2.5732,-2.5732,-2.5732,-2.5732,-2.5732,-2.5732,-4.457,-4.457,-4.457,-4.457,-4.4553,-4.4485,-4.4384,-4.4288,-4.3365,-4.2505,-4.1582,-4.0814,-3.9566,-3.8287,-3.8287,-3.7988,-3.7494,-3.7404,-3.7225,-3.7015,-3.6671,-3.6671,-3.6918,-3.6011,-3.4681,-3.3266,-3.2626,-3.1373,-3.0228,-2.9817,-2.9792,-2.9779,-2.9779,-2.9779,-2.9779,-2.9779,-2.9779,-2.9779,-2.9779,-2.9779,-2.9779,-2.9867,-2.9892,-2.9905,-2.9917,-3.0156,-3.0306,-3.0347,-3.0493,-3.1738,-3.2226,-3.1161,-3.0232,-2.9306,-2.8544,-2.7484,-2.6562,-2.6004,-2.582,-2.6014,-2.583,-2.582,-2.582,-2.5732,-2.5732,-2.5732,-2.5732,-2.5732,-2.5732,-2.5732,-2.5732,-2.5732,-2.5732,-2.5732,-2.5732,-2.5732,-2.5732,-2.5732,-2.5732,-2.5732,-2.5732,-2.5732,-2.5732,-2.5732,-2.5732,-2.5732,-2.5732,-2.5732,-2.5732,-2.5732,-2.5732,-2.5732,-2.5732,-2.5732,-2.5732,-2.5732,-2.5732,-2.5732,-2.5732,-2.5732,-2.5732,-2.5732,-2.5732,-2.5732,-2.5732,-2.5732,-2.5732,-2.5732,-2.5732,-2.5732,-2.5732,-2.5732,-2.5732,-2.5732,-2.5732,-4.457,-4.457,-4.457,-4.457,-4.4468,-4.3944,-4.3673,-4.3567,-4.2235,-4.1222,-4.032,-3.9499,-3.8601,-3.7629,-3.7614,-3.7524,-3.724,-3.6866,-3.6432,-3.5908,-3.5818,-3.5774,-3.5577,-3.4412,-3.2985,-3.1857,-3.0862,-3.0228,-2.9869,-2.9779,-2.9779,-2.9779,-2.9779,-2.9779,-2.9779,-2.9779,-2.9779,-2.9779,-2.9779,-2.9779,-2.9779,-2.9779,-2.9779,-2.9779,-2.9779,-2.9842,-3.003,-3.0244,-3.0138,-2.9475,-2.8482,-2.7687,-2.702,-2.6568,-2.6273,-2.626,-2.5984,-2.5713,-2.5732,-2.5732,-2.5732,-2.5732,-2.5732,-2.5732,-2.5732,-2.5732,-2.5732,-2.5732,-2.5732,-2.5732,-2.5732,-2.5732,-2.5732,-2.5732,-2.5732,-2.5732,-2.5732,-2.5732,-2.5732,-2.5732,-2.5732,-2.5732,-2.5732,-2.5732,-2.5732,-2.5732,-2.5732,-2.5732,-2.5732,-2.5732,-2.5732,-2.5732,-2.5732,-2.5732,-2.5732,-2.5732,-2.5732,-2.5732,-2.5732,-2.5732,-2.5732,-2.5644,-2.5615,-2.5664,-2.5732,-2.5732,-2.5732,-2.5732,-2.5732,-2.5732,-2.5732,-2.5732,-2.5732,-2.5732,-2.5732,-4.3826,-4.3521,-4.3504,-4.3504,-4.3436,-4.3081,-4.2895,-4.2576,-4.1239,-4.0324,-3.9702,-3.866,-3.7682,-3.6985,-3.6956,-3.6836,-3.6507,-3.6207,-3.5863,-3.5579,-3.5439,-3.5001,-3.4056,-3.3255,-3.2249,-3.1756,-3.097,-3.0279,-2.9934,-2.9779,-2.9779,-2.9779,-2.9779,-2.9779,-2.9779,-2.9779,-2.9779,-2.9779,-2.9779,-2.9779,-2.9779,-2.9779,-2.9779,-2.9779,-2.9779,-2.9624,-2.9077,-2.8715,-2.8011,-2.6981,-2.5667,-2.5166,-2.5615,-2.5665,-2.5628,-2.5418,-2.542,-2.5557,-2.5654,-2.5732,-2.5732,-2.5732,-2.5732,-2.5732,-2.5732,-2.5732,-2.5732,-2.5732,-2.5732,-2.5732,-2.5732,-2.5732,-2.5732,-2.5732,-2.5732,-2.5732,-2.5732,-2.5732,-2.5732,-2.5732,-2.5732,-2.5732,-2.5732,-2.5732,-2.5732,-2.5732,-2.5732,-2.5732,-2.5732,-2.5732,-2.5732,-2.5732,-2.5732,-2.5732,-2.5732,-2.5732,-2.5732,-2.5732,-2.5732,-2.5732,-2.5732,-2.5605,-2.5469,-2.5537,-2.5625,-2.5723,-2.5732,-2.5732,-2.5664,-2.5713,-2.5713,-2.5723,-2.5703,-2.5654,-2.5674,-4.2861,-4.2303,-4.2303,-4.2303,-4.2286,-4.2185,-4.2134,-4.1887,-4.0326,-3.9466,-3.9245,-3.7846,-3.6738,-3.6417,-3.6342,-3.5998,-3.5684,-3.5564,-3.5534,-3.5519,-3.5489,-3.4839,-3.3685,-3.3031,-3.2536,-3.2464,-3.1267,-3.0419,-2.9921,-2.9779,-2.9779,-2.9779,-2.9779,-2.9779,-2.9779,-2.9779,-2.9779,-2.9779,-2.9779,-2.9779,-2.9779,-2.9779,-2.9779,-2.9792,-2.9443,-2.9028,-2.8187,-2.7336,-2.6174,-2.4872,-2.3877,-2.4378,-2.5211,-2.582,-2.5756,-2.5016,-2.4971,-2.5166,-2.5469,-2.5586,-2.5605,-2.5693,-2.5732,-2.5732,-2.5732,-2.5732,-2.5732,-2.5732,-2.5732,-2.5732,-2.5732,-2.5732,-2.5732,-2.5732,-2.5732,-2.5732,-2.5732,-2.5732,-2.5732,-2.5732,-2.5732,-2.5732,-2.5732,-2.5732,-2.5732,-2.5723,-2.5713,-2.5703,-2.5684,-2.5703,-2.5684,-2.5723,-2.5732,-2.5547,-2.5508,-2.5254,-2.5312,-2.5381,-2.5459,-2.5459,-2.5449,-2.5234,-2.5088,-2.5381,-2.5498,-2.5498,-2.541,-2.5264,-2.5303,-2.5537,-2.5469,-2.5244,-2.5322,-2.5518,-2.5498,-4.2405,-4.2303,-4.2303,-4.2286,-4.2185,-4.1644,-4.139,-4.0975,-3.917,-3.8174,-3.7987,-3.6547,-3.5914,-3.5714,-3.5669,-3.5579,-3.5519,-3.5489,-3.5489,-3.5489,-3.5489,-3.4986,-3.4341,-3.3101,-3.2593,-3.2119,-3.1057,-2.9998,-2.9856,-2.9779,-2.9779,-2.9779,-2.9779,-2.9779,-2.9779,-2.9779,-2.9779,-2.9779,-2.9779,-2.9779,-2.9779,-2.9779,-2.9779,-2.9714,-2.9028,-2.8347,-2.7936,-2.7035,-2.5964,-2.4957,-2.4617,-2.4227,-2.4045,-2.4157,-2.4345,-2.4506,-2.4531,-2.4717,-2.5098,-2.5185,-2.5381,-2.5615,-2.5684,-2.5693,-2.5703,-2.5732,-2.5732,-2.5732,-2.5732,-2.5732,-2.5732,-2.5684,-2.5713,-2.5713,-2.5644,-2.5635,-2.5644,-2.5625,-2.5596,-2.5537,-2.5605,-2.5625,-2.5508,-2.5439,-2.542,-2.5391,-2.54,-2.542,-2.5439,-2.5508,-2.5586,-2.5654,-2.5732,-2.5469,-2.5225,-2.4863,-2.4687,-2.4766,-2.4814,-2.4824,-2.4775,-2.4639,-2.4668,-2.4883,-2.4922,-2.4834,-2.4766,-2.4775,-2.4957,-2.5218,-2.4957,-2.4678,-2.4711,-2.4753,-2.4863,-4.1491,-4.1153,-4.1153,-4.1153,-4.1068,-4.0798,-4.0629,-4.039,-3.9035,-3.8149,-3.7573,-3.6585,-3.5831,-3.5619,-3.5489,-3.5489,-3.5489,-3.5489,-3.5489,-3.5489,-3.5489,-3.4839,-3.4192,-3.2961,-3.2046,-3.1193,-3.0216,-2.9779,-2.9779,-2.9779,-2.9779,-2.9779,-2.9779,-2.9779,-2.9779,-2.9779,-2.9779,-2.9779,-2.9779,-2.9779,-2.9779,-2.9779,-2.9779,-2.9456,-2.8688,-2.7855,-2.7128,-2.6213,-2.5052,-2.4135,-2.3877,-2.3637,-2.3368,-2.335,-2.3652,-2.3994,-2.4102,-2.4277,-2.4639,-2.4736,-2.4834,-2.501,-2.5244,-2.5381,-2.5459,-2.5557,-2.5674,-2.5713,-2.5732,-2.5732,-2.5732,-2.5518,-2.541,-2.5342,-2.5225,-2.5107,-2.5078,-2.5078,-2.5098,-2.5146,-2.5205,-2.5146,-2.4971,-2.4961,-2.5019,-2.5059,-2.5088,-2.5117,-2.5156,-2.5185,-2.5244,-2.5185,-2.5185,-2.5019,-2.4766,-2.4492,-2.4209,-2.4238,-2.4268,-2.4268,-2.4258,-2.4189,-2.417,-2.4268,-2.4238,-2.4258,-2.4424,-2.4541,-2.4726,-2.4881,-2.4657,-2.4322,-2.4069,-2.3948,-2.4195,-4.0612,-4.0087,-4.0087,-4.0087,-4.0087,-4.0087,-4.0104,-3.9952,-3.9262,-3.8486,-3.7748,-3.6919,-3.6165,-3.5668,-3.5489,-3.5489,-3.5489,-3.5489,-3.5489,-3.5489,-3.5489,-3.4558,-3.331,-3.2451,-3.1901,-3.0696,-2.9934,-2.9779,-2.9779,-2.9779,-2.9779,-2.9779,-2.9779,-2.9779,-2.9779,-2.9779,-2.9779,-2.9779,-2.9779,-2.9779,-2.9779,-2.9779,-2.9624,-2.9365,-2.8359,-2.7197,-2.6213,-2.5052,-2.4135,-2.3474,-2.3222,-2.3135,-2.3135,-2.3144,-2.3301,-2.3584,-2.3662,-2.3896,-2.417,-2.4297,-2.4365,-2.456,-2.4775,-2.4902,-2.498,-2.5166,-2.54,-2.5478,-2.543,-2.5381,-2.5283,-2.5127,-2.498,-2.4883,-2.4668,-2.4453,-2.4521,-2.4541,-2.4502,-2.457,-2.4707,-2.4707,-2.458,-2.4629,-2.4727,-2.4727,-2.4756,-2.4727,-2.4746,-2.4678,-2.4668,-2.456,-2.4492,-2.4404,-2.4248,-2.4121,-2.3906,-2.3838,-2.3848,-2.3848,-2.3848,-2.3828,-2.3809,-2.3779,-2.3828,-2.3896,-2.4102,-2.417,-2.4094,-2.4045,-2.4102,-2.3981,-2.3687,-2.3567,-2.3767,-4.0155,-4.0087,-4.0087,-4.0087,-4.0087,-4.0087,-4.0087,-4.002,-3.9262,-3.8469,-3.7764,-3.698,-3.6165,-3.5668,-3.5489,-3.5489,-3.5489,-3.5489,-3.5489,-3.5489,-3.5424,-3.4839,-3.3739,-3.2947,-3.196,-3.0696,-3.0075,-2.9856,-2.9779,-2.9779,-2.9779,-2.9779,-2.9779,-2.9779,-2.9779,-2.9779,-2.9779,-2.9779,-2.9779,-2.9779,-2.9779,-2.9702,-2.9197,-2.8359,-2.7279,-2.6213,-2.521,-2.4135,-2.3299,-2.3222,-2.3144,-2.3144,-2.3144,-2.3144,-2.3057,-2.3203,-2.3262,-2.3408,-2.3769,-2.3857,-2.3975,-2.4189,-2.4434,-2.4482,-2.46,-2.4619,-2.4727,-2.458,-2.4619,-2.4687,-2.4736,-2.456,-2.4492,-2.4453,-2.4336,-2.4287,-2.4307,-2.4062,-2.4014,-2.3955,-2.4062,-2.4228,-2.4258,-2.4355,-2.4443,-2.4424,-2.4404,-2.4355,-2.4287,-2.4189,-2.415,-2.4053,-2.3965,-2.3877,-2.3828,-2.3691,-2.3633,-2.3506,-2.3496,-2.3496,-2.3496,-2.3496,-2.3369,-2.3359,-2.3437,-2.3477,-2.3574,-2.3545,-2.3369,-2.3428,-2.3613,-2.3496,-2.3183,-2.332,-2.3477,-4.0087,-4.0087,-4.0087,-4.0087,-4.0087,-4.0087,-4.0087,-3.9952,-3.9262,-3.8469,-3.7748,-3.6964,-3.6165,-3.5604,-3.5489,-3.5489,-3.5489,-3.5489,-3.5489,-3.5489,-3.5359,-3.4706,-3.3394,-3.2749,-3.1974,-3.0633,-3.0075,-2.9856,-2.9779,-2.9779,-2.9779,-2.9779,-2.9779,-2.9779,-2.9779,-2.9779,-2.9779,-2.9779,-2.9779,-2.9779,-2.9624,-2.9197,-2.8597,-2.8004,-2.6449,-2.5462,-2.4628,-2.3714,-2.3135,-2.3144,-2.3144,-2.3144,-2.3144,-2.3144,-2.3144,-2.3144,-2.3144,-2.3242,-2.3389,-2.3418,-2.3564,-2.3711,-2.3926,-2.417,-2.4326,-2.4385,-2.4385,-2.4434,-2.4424,-2.4394,-2.4316,-2.4189,-2.4102,-2.4023,-2.3916,-2.3818,-2.3789,-2.3701,-2.3555,-2.3486,-2.3457,-2.3672,-2.3818,-2.3809,-2.3828,-2.3809,-2.3769,-2.3721,-2.3662,-2.3574,-2.3564,-2.3594,-2.3506,-2.3428,-2.3398,-2.333,-2.3369,-2.3301,-2.3291,-2.3281,-2.3232,-2.3174,-2.3144,-2.3144,-2.3242,-2.3232,-2.3144,-2.3174,-2.3232,-2.3193,-2.3144,-2.3144,-2.3144,-2.3164,-2.3281,-3.9529,-3.9563,-3.9968,-4.0087,-4.0087,-4.0087,-4.0087,-4.002,-3.9246,-3.8469,-3.769,-3.6737,-3.5943,-3.5604,-3.5489,-3.5489,-3.5489,-3.5489,-3.5489,-3.5489,-3.5279,-3.4341,-3.3241,-3.2464,-3.1623,-2.9779,-2.9856,-2.9779,-2.9779,-2.9779,-2.9779,-2.9779,-2.9779,-2.9779,-2.9779,-2.9779,-2.9779,-2.9792,-2.9456,-2.9287,-2.9106,-2.8187,-2.7602,-2.6849,-2.5775,-2.4702,-2.4296,-2.3627,-2.3135,-2.3144,-2.3144,-2.3144,-2.3144,-2.3144,-2.3144,-2.3144,-2.3144,-2.3144,-2.3193,-2.3193,-2.3144,-2.3242,-2.3369,-2.373,-2.3955,-2.4102,-2.4092,-2.3994,-2.4004,-2.4033,-2.4033,-2.3769,-2.3682,-2.3535,-2.3398,-2.3242,-2.3154,-2.3281,-2.334,-2.331,-2.3271,-2.3223,-2.331,-2.3232,-2.3203,-2.3184,-2.3144,-2.3144,-2.3154,-2.3184,-2.3232,-2.334,-2.3301,-2.3242,-2.3203,-2.3154,-2.3144,-2.3144,-2.3144,-2.3144,-2.3144,-2.3144,-2.3144,-2.3144,-2.3144,-2.3144,-2.3144,-2.3144,-2.3144,-2.3144,-2.3144,-2.3144,-2.3144,-2.3144,-2.3144,-3.8058,-3.8176,-3.9495,-4.0003,-3.9986,-4.0087,-4.0037,-3.9817,-3.9093,-3.8284,-3.725,-3.6291,-3.5424,-3.537,-3.5265,-3.5295,-3.5429,-3.5489,-3.5325,-3.5325,-3.5329,-3.4138,-3.2932,-3.2075,-3.1548,-2.9935,-2.9541,-2.9566,-2.9704,-2.949,-2.9641,-2.9779,-2.9716,-2.9754,-2.9779,-2.9779,-2.9779,-2.9624,-2.9118,-2.8688,-2.8279,-2.7452,-2.6389,-2.5452,-2.4957,-2.4286,-2.3309,-2.3135,-2.3144,-2.3144,-2.3144,-2.3144,-2.3144,-2.3144,-2.3144,-2.3144,-2.3144,-2.3144,-2.3144,-2.3144,-2.3144,-2.3154,-2.3213,-2.3301,-2.3447,-2.331,-2.3262,-2.3369,-2.3477,-2.3398,-2.334,-2.3213,-2.3291,-2.3271,-2.3223,-2.3193,-2.3144,-2.3154,-2.3193,-2.3154,-2.3144,-2.3144,-2.3144,-2.3144,-2.3144,-2.3144,-2.3144,-2.3144,-2.3144,-2.3154,-2.3154,-2.3193,-2.3184,-2.3164,-2.3154,-2.3144,-2.3144,-2.3144,-2.3144,-2.3144,-2.3144,-2.3144,-2.3144,-2.3144,-2.3144,-2.3144,-2.3144,-2.3144,-2.3144,-2.3144,-2.3144,-2.3144,-2.3144,-2.3144,-2.3144,-3.7922,-3.7973,-3.8531,-3.8734,-3.8751,-3.8751,-3.8751,-3.8504,-3.7449,-3.6213,-3.5199,-3.4559,-3.4262,-3.4292,-3.4262,-3.4277,-3.4277,-3.4262,-3.4307,-3.4277,-3.4059,-3.3151,-3.2047,-3.1294,-3.0525,-2.9147,-2.8787,-2.8762,-2.8712,-2.8875,-2.8775,-2.89,-2.9402,-2.9729,-2.9779,-2.9679,-2.9729,-2.9677,-2.9353,-2.9106,-2.8779,-2.7383,-2.6307,-2.5891,-2.4135,-2.3714,-2.3135,-2.3135,-2.3144,-2.3144,-2.3144,-2.3144,-2.3144,-2.3144,-2.3144,-2.3144,-2.3144,-2.3144,-2.3144,-2.3144,-2.3144,-2.3144,-2.3144,-2.3144,-2.3144,-2.3144,-2.3144,-2.3154,-2.3144,-2.3144,-2.3154,-2.3154,-2.3174,-2.3144,-2.3144,-2.3144,-2.3144,-2.3144,-2.3144,-2.3144,-2.3144,-2.3144,-2.3144,-2.3144,-2.3144,-2.3144,-2.3144,-2.3144,-2.3144,-2.3144,-2.3144,-2.3144,-2.3144,-2.3144,-2.3144,-2.3144,-2.3144,-2.3144,-2.3144,-2.3144,-2.3144,-2.3144,-2.3144,-2.3144,-2.3047,-2.3047,-2.3047,-2.3047,-2.3144,-2.3144,-2.3144,-2.3144,-2.3144,-2.3144,-2.3144,-3.7212,-3.7229,-3.7212,-3.7516,-3.7872,-3.7922,-3.7922,-3.7679,-3.661,-3.5196,-3.3804,-3.3607,-3.3499,-3.3499,-3.3529,-3.3559,-3.3634,-3.3604,-3.3559,-3.3589,-3.3419,-3.2411,-3.1331,-3.0583,-3.0017,-2.8507,-2.8109,-2.8172,-2.8222,-2.8134,-2.821,-2.8473,-2.8837,-2.9126,-2.9227,-2.9302,-2.9365,-2.9503,-2.8795,-2.8773,-2.8323,-2.6554,-2.54,-2.5147,-2.381,-2.3309,-2.3135,-2.3144,-2.3144,-2.3144,-2.3144,-2.3144,-2.3144,-2.3144,-2.3144,-2.3144,-2.3144,-2.3144,-2.3144,-2.3144,-2.3144,-2.3144,-2.3144,-2.3144,-2.3144,-2.3144,-2.3144,-2.3144,-2.3144,-2.3144,-2.3144,-2.3144,-2.3144,-2.3144,-2.3144,-2.3144,-2.3144,-2.3144,-2.3144,-2.3144,-2.3144,-2.3144,-2.3144,-2.3144,-2.3144,-2.3144,-2.3144,-2.3144,-2.3144,-2.3144,-2.3144,-2.3144,-2.3144,-2.3144,-2.3144,-2.3144,-2.3144,-2.3144,-2.3144,-2.3144,-2.3144,-2.3047,-2.3047,-2.3144,-2.3047,-2.295,-2.2803,-2.2665,-2.2823,-2.3067,-2.3076,-2.3106,-2.3144,-2.3144,-2.3144,-3.574,-3.5673,-3.574,-3.6552,-3.7702,-3.7872,-3.7821,-3.754,-3.6687,-3.5486,-3.4063,-3.3578,-3.332,-3.3305,-3.317,-3.3155,-3.3185,-3.326,-3.326,-3.3185,-3.3035,-3.2237,-3.1293,-3.0429,-2.9618,-2.8431,-2.7896,-2.7808,-2.7959,-2.7821,-2.7896,-2.7921,-2.8034,-2.8247,-2.8172,-2.8185,-2.8448,-2.8549,-2.7011,-2.6862,-2.6598,-2.5174,-2.4176,-2.3921,-2.3246,-2.2891,-2.2998,-2.3008,-2.3037,-2.3125,-2.3135,-2.3144,-2.3144,-2.3144,-2.3144,-2.3144,-2.3144,-2.3144,-2.3144,-2.3144,-2.3144,-2.3144,-2.3144,-2.3144,-2.3144,-2.3144,-2.3144,-2.3144,-2.3144,-2.3144,-2.3144,-2.3144,-2.3144,-2.3144,-2.3144,-2.3144,-2.3144,-2.3144,-2.3144,-2.3144,-2.3144,-2.3144,-2.3144,-2.3144,-2.3144,-2.3144,-2.3144,-2.3144,-2.3144,-2.3144,-2.3144,-2.3144,-2.3144,-2.3144,-2.3144,-2.3144,-2.3144,-2.3144,-2.3144,-2.3144,-2.296,-2.2775,-2.2862,-2.296,-2.2413,-2.1765,-2.1937,-2.211,-2.1928,-2.1756,-2.288,-2.3086,-2.3106,-2.2794,-2.2539,-3.5639,-3.5639,-3.5639,-3.591,-3.6366,-3.64,-3.64,-3.6182,-3.5119,-3.3878,-3.2719,-3.2242,-3.2198,-3.2198,-3.2258,-3.2287,-3.2258,-3.2198,-3.2183,-3.2228,-3.2287,-3.1467,-3.0606,-2.9799,-2.9025,-2.8004,-2.7411,-2.7092,-2.6967,-2.713,-2.7067,-2.7017,-2.7231,-2.7457,-2.7921,-2.8122,-2.826,-2.8274,-2.7679,-2.7375,-2.7227,-2.544,-2.4182,-2.4111,-2.3016,-2.249,-2.2695,-2.2725,-2.2812,-2.2998,-2.3027,-2.3057,-2.3086,-2.3096,-2.3125,-2.3135,-2.3144,-2.3144,-2.3144,-2.3144,-2.3144,-2.3144,-2.3144,-2.3144,-2.3144,-2.3144,-2.3144,-2.3144,-2.3144,-2.3144,-2.3144,-2.3144,-2.3144,-2.3144,-2.3144,-2.3144,-2.3144,-2.3144,-2.3144,-2.3144,-2.3144,-2.3144,-2.3144,-2.3144,-2.3144,-2.3144,-2.3144,-2.3144,-2.3144,-2.3144,-2.3144,-2.3144,-2.3144,-2.3144,-2.3057,-2.3047,-2.2862,-2.2775,-2.295,-2.3144,-2.2862,-2.2403,-2.2031,-2.1854,-2.1221,-2.0593,-2.0753,-2.0698,-2.0215,-2.0271,-2.1122,-2.1616,-2.1356,-2.1186,-2.1068,-3.5766,-3.5622,-3.5639,-3.5639,-3.5639,-3.5639,-3.5639,-3.5362,-3.4186,-3.3024,-3.2327,-3.1811,-3.1511,-3.1511,-3.1467,-3.1467,-3.1467,-3.1482,-3.1482,-3.1467,-3.1482,-3.0805,-2.996,-2.9254,-2.8395,-2.7484,-2.6905,-2.6559,-2.6634,-2.6559,-2.6596,-2.6622,-2.6533,-2.6879,-2.7331,-2.7457,-2.7582,-2.7466,-2.698,-2.6419,-2.6019,-2.4993,-2.3727,-2.3426,-2.2757,-2.2041,-2.2217,-2.2334,-2.2412,-2.2646,-2.2734,-2.2793,-2.2861,-2.292,-2.2998,-2.3076,-2.3144,-2.3144,-2.3144,-2.3144,-2.3144,-2.3144,-2.3144,-2.3144,-2.3144,-2.3144,-2.3144,-2.3144,-2.3144,-2.3144,-2.3144,-2.3144,-2.3144,-2.3144,-2.3144,-2.3144,-2.3144,-2.3144,-2.3144,-2.3144,-2.3144,-2.3144,-2.3144,-2.3144,-2.3144,-2.3144,-2.3144,-2.3144,-2.3144,-2.3144,-2.3047,-2.295,-2.2862,-2.2677,-2.2765,-2.2862,-2.2677,-2.2492,-2.2492,-2.2492,-2.2041,-2.1391,-2.1025,-2.0666,-2.0215,-1.9786,-1.9387,-1.9104,-1.8472,-1.8303,-1.8759,-1.912,-1.933,-1.9314,-1.9239,-3.6114,-3.5667,-3.5622,-3.5639,-3.5639,-3.5639,-3.5577,-3.5424,-3.4202,-3.3598,-3.3391,-3.2048,-3.1582,-3.1524,-3.1467,-3.1467,-3.1467,-3.1467,-3.1467,-3.1467,-3.1467,-3.051,-2.9752,-2.9129,-2.8376,-2.7297,-2.6589,-2.6521,-2.6521,-2.6521,-2.6521,-2.6521,-2.6521,-2.6684,-2.6691,-2.6779,-2.6942,-2.6788,-2.6215,-2.5698,-2.5263,-2.3667,-2.2842,-2.2372,-2.1937,-2.1699,-2.1816,-2.1885,-2.1924,-2.1992,-2.1992,-2.2187,-2.2353,-2.248,-2.2744,-2.2969,-2.3066,-2.3066,-2.3144,-2.3144,-2.3144,-2.3144,-2.3144,-2.3144,-2.3144,-2.3144,-2.3144,-2.3144,-2.3144,-2.3144,-2.3144,-2.3144,-2.3144,-2.3144,-2.3144,-2.3144,-2.3144,-2.3144,-2.3144,-2.3144,-2.3144,-2.3144,-2.3144,-2.3144,-2.296,-2.3144,-2.3144,-2.3144,-2.3144,-2.3144,-2.296,-2.258,-2.2403,-2.2217,-2.2217,-2.1943,-2.1765,-2.1311,-2.1212,-2.1203,-2.0747,-2.0395,-1.9761,-1.9405,-1.9314,-1.8972,-1.8187,-1.7347,-1.648,-1.6602,-1.7276,-1.7542,-1.8033,-1.7305,-1.7198,-3.6291,-3.6139,-3.5783,-3.5639,-3.5639,-3.5622,-3.5362,-3.483,-3.4431,-3.3836,-3.2841,-3.2477,-3.1951,-3.1524,-3.1467,-3.1467,-3.1467,-3.1467,-3.1467,-3.1467,-3.1467,-3.1146,-3.045,-2.9518,-2.8748,-2.792,-2.7162,-2.6521,-2.6521,-2.6521,-2.6521,-2.6521,-2.6521,-2.6521,-2.6521,-2.6452,-2.659,-2.6469,-2.5802,-2.5348,-2.4687,-2.3482,-2.264,-2.1971,-2.1293,-2.1252,-2.1367,-2.1416,-2.1514,-2.1777,-2.1846,-2.1992,-2.2021,-2.208,-2.2236,-2.2617,-2.2715,-2.2793,-2.3066,-2.3135,-2.3115,-2.3096,-2.3125,-2.3135,-2.3144,-2.3144,-2.3144,-2.3144,-2.3144,-2.3144,-2.3144,-2.3144,-2.3144,-2.3144,-2.3144,-2.3144,-2.3144,-2.3144,-2.3144,-2.3144,-2.3144,-2.295,-2.296,-2.2862,-2.2765,-2.296,-2.296,-2.2862,-2.296,-2.296,-2.2677,-2.2306,-2.1943,-2.1578,-2.0755,-2.0305,-2.0215,-2.0124,-2.0034,-1.9935,-1.967,-1.9222,-1.8495,-1.8133,-1.794,-1.7404,-1.669,-1.6008,-1.5833,-1.5792,-1.6278,-1.6466,-1.6432,-1.5971,-1.5769,-3.6133,-3.5849,-3.5044,-3.4742,-3.4793,-3.5064,-3.4925,-3.4605,-3.4587,-3.3987,-3.3039,-3.2695,-3.216,-3.1582,-3.1467,-3.1467,-3.1467,-3.1467,-3.1467,-3.1467,-3.1467,-3.0837,-3.0269,-2.9566,-2.8556,-2.792,-2.7217,-2.6521,-2.6521,-2.6521,-2.6521,-2.6521,-2.6521,-2.6521,-2.6521,-2.6452,-2.6176,-2.605,-2.5676,-2.5288,-2.4409,-2.3441,-2.2403,-2.1593,-2.0789,-2.083,-2.0937,-2.0986,-2.1152,-2.1338,-2.1367,-2.1475,-2.1602,-2.1777,-2.1924,-2.2246,-2.2275,-2.2363,-2.2549,-2.2793,-2.2852,-2.2939,-2.3027,-2.3135,-2.3144,-2.3144,-2.3144,-2.3144,-2.3144,-2.3144,-2.3144,-2.3144,-2.3144,-2.3144,-2.3144,-2.3144,-2.3144,-2.3144,-2.3144,-2.3144,-2.296,-2.2765,-2.2589,-2.258,-2.2129,-2.1498,-2.1221,-2.1221,-2.1765,-2.2492,-2.2217,-2.1756,-2.1391,-2.0935,-1.9844,-1.894,-1.9039,-1.9047,-1.8772,-1.868,-1.8495,-1.801,-1.7166,-1.6727,-1.6473,-1.6055,-1.5946,-1.5939,-1.5805,-1.5718,-1.5551,-1.5835,-1.5828,-1.5577,-1.5418,-3.5696,-3.5156,-3.3894,-3.3525,-3.3508,-3.415,-3.4404,-3.4445,-3.4422,-3.4121,-3.3499,-3.2949,-3.2272,-3.1625,-3.1467,-3.1467,-3.1467,-3.1467,-3.1467,-3.1467,-3.1467,-3.097,-3.0086,-2.8989,-2.8492,-2.7297,-2.6533,-2.6521,-2.6521,-2.6521,-2.6521,-2.6521,-2.6521,-2.6521,-2.6521,-2.6521,-2.6245,-2.5804,-2.53,-2.4719,-2.3514,-2.2478,-2.1593,-2.0867,-2.0644,-2.0605,-2.0605,-2.0586,-2.0576,-2.0586,-2.0654,-2.0859,-2.1152,-2.1445,-2.1641,-2.1816,-2.1826,-2.1953,-2.2109,-2.2334,-2.2432,-2.2588,-2.2803,-2.291,-2.291,-2.3086,-2.3135,-2.3135,-2.3144,-2.3144,-2.3144,-2.3144,-2.3144,-2.3144,-2.3144,-2.3144,-2.3144,-2.3144,-2.3144,-2.3144,-2.3047,-2.2775,-2.2403,-2.2306,-2.1747,-2.0486,-1.9861,-1.9943,-2.0296,-2.1471,-2.1167,-2.0712,-2.0305,-1.9579,-1.8488,-1.7762,-1.8041,-1.7956,-1.7747,-1.7502,-1.7235,-1.6614,-1.5819,-1.5718,-1.569,-1.5577,-1.5424,-1.549,-1.5416,-1.5113,-1.513,-1.5314,-1.5251,-1.5073,-1.5054,-3.5348,-3.483,-3.3836,-3.3389,-3.3406,-3.3592,-3.366,-3.3677,-3.3684,-3.365,-3.3524,-3.3292,-3.2579,-3.1549,-3.1435,-3.1392,-3.1467,-3.1467,-3.1467,-3.1467,-3.1467,-3.1219,-3.0524,-2.9442,-2.8748,-2.8117,-2.7417,-2.6521,-2.6521,-2.6521,-2.6521,-2.6521,-2.6521,-2.6521,-2.6521,-2.6521,-2.6233,-2.5734,-2.5004,-2.3975,-2.2627,-2.2178,-2.1593,-2.0944,-2.0576,-2.0576,-2.0576,-2.0576,-2.0576,-2.0576,-2.0576,-2.0644,-2.0723,-2.085,-2.1074,-2.1309,-2.1387,-2.1523,-2.1728,-2.1904,-2.2012,-2.2051,-2.2207,-2.2393,-2.2617,-2.2939,-2.3028,-2.3115,-2.3144,-2.3144,-2.3144,-2.3144,-2.3144,-2.3144,-2.3144,-2.3144,-2.3144,-2.3144,-2.3144,-2.3144,-2.3144,-2.2677,-2.2306,-2.1756,-2.1293,-2.0657,-1.9943,-1.9571,-1.9356,-1.9785,-1.9249,-1.8811,-1.8664,-1.7956,-1.7008,-1.6671,-1.6901,-1.6807,-1.6507,-1.6258,-1.6075,-1.5722,-1.5371,-1.5224,-1.5117,-1.5144,-1.515,-1.5187,-1.5003,-1.4754,-1.4606,-1.473,-1.4757,-1.4546,-1.4754,-3.473,-3.4182,-3.2916,-3.2425,-3.2493,-3.2763,-3.2916,-3.2966,-3.3254,-3.329,-3.3048,-3.2736,-3.2045,-3.1114,-3.1076,-3.13,-3.142,-3.1467,-3.1467,-3.1467,-3.1362,-3.1204,-3.051,-2.9586,-2.8798,-2.8168,-2.7217,-2.6521,-2.6521,-2.6521,-2.6521,-2.6521,-2.6521,-2.6521,-2.6521,-2.6452,-2.6245,-2.5746,-2.485,-2.3588,-2.2103,-2.1876,-2.1517,-2.0867,-2.0576,-2.0576,-2.0576,-2.0576,-2.0576,-2.0576,-2.0576,-2.0576,-2.0605,-2.0644,-2.0713,-2.0859,-2.0967,-2.1045,-2.1299,-2.1484,-2.1582,-2.1602,-2.1826,-2.2109,-2.2158,-2.2471,-2.2812,-2.2852,-2.3105,-2.3144,-2.3144,-2.3144,-2.3144,-2.3144,-2.3144,-2.3144,-2.3144,-2.3144,-2.3144,-2.3144,-2.2677,-2.1578,-2.0944,-1.977,-1.9206,-1.8195,-1.784,-1.7858,-1.785,-1.817,-1.7492,-1.7224,-1.7198,-1.685,-1.6144,-1.5817,-1.5783,-1.5611,-1.5518,-1.5449,-1.5477,-1.5271,-1.4983,-1.4923,-1.489,-1.4897,-1.4972,-1.4892,-1.4643,-1.4476,-1.4276,-1.4182,-1.4216,-1.4263,-1.4369,-3.4038,-3.3334,-3.1891,-3.1207,-3.1292,-3.185,-3.2138,-3.2256,-3.2797,-3.2653,-3.19,-3.1404,-3.0869,-3.0639,-3.0402,-3.0821,-3.1031,-3.0911,-3.1091,-3.112,-3.112,-3.0674,-3.0026,-2.926,-2.8356,-2.7617,-2.685,-2.6589,-2.6521,-2.6521,-2.6521,-2.6521,-2.6521,-2.6521,-2.6521,-2.6383,-2.6164,-2.5217,-2.4253,-2.3147,-2.2403,-2.1876,-2.1298,-2.0789,-2.0576,-2.0576,-2.0576,-2.0576,-2.0576,-2.0576,-2.0576,-2.0576,-2.0576,-2.0576,-2.0576,-2.0664,-2.0684,-2.0693,-2.0762,-2.1006,-2.1094,-2.123,-2.1572,-2.1728,-2.1758,-2.1973,-2.2305,-2.2407,-2.265,-2.2573,-2.2476,-2.2485,-2.2485,-2.2398,-2.2398,-2.2398,-2.2398,-2.2398,-2.2398,-2.2408,-2.1581,-2.0401,-1.9602,-1.8355,-1.7365,-1.6275,-1.5671,-1.5545,-1.5701,-1.6253,-1.6189,-1.6218,-1.6267,-1.5908,-1.5436,-1.5317,-1.5271,-1.5237,-1.5204,-1.5044,-1.4883,-1.4736,-1.4676,-1.473,-1.471,-1.4629,-1.4657,-1.4576,-1.4309,-1.4195,-1.4137,-1.4097,-1.4143,-1.4195,-1.4148,-3.346,-3.2611,-3.1614,-3.119,-3.1224,-3.1376,-3.1393,-3.141,-3.1562,-3.1033,-3.0384,-3.0041,-2.9926,-3.0483,-2.9961,-2.9983,-3.0193,-3.0178,-3.0013,-2.9939,-3.0223,-2.9866,-2.9376,-2.8727,-2.7715,-2.6958,-2.64,-2.6471,-2.6151,-2.6264,-2.6483,-2.642,-2.6445,-2.6458,-2.6471,-2.6296,-2.584,-2.4943,-2.3996,-2.2959,-2.2008,-2.1445,-2.0924,-2.0644,-2.0576,-2.0576,-2.0576,-2.0576,-2.0576,-2.0576,-2.0576,-2.0576,-2.0576,-2.0576,-2.0576,-2.0576,-2.0576,-2.0576,-2.0664,-2.0723,-2.082,-2.0801,-2.1055,-2.1133,-2.1121,-2.1196,-2.1322,-2.1303,-2.1231,-2.0589,-2.0427,-2.0386,-2.0309,-2.0128,-2.0042,-1.9955,-1.9955,-1.9964,-1.9964,-1.9878,-1.9522,-1.9087,-1.8825,-1.7783,-1.6907,-1.6035,-1.5524,-1.5318,-1.5097,-1.505,-1.5017,-1.519,-1.5487,-1.5334,-1.5044,-1.5044,-1.501,-1.497,-1.4897,-1.475,-1.4576,-1.4349,-1.4322,-1.4436,-1.4376,-1.4269,-1.4208,-1.4269,-1.4208,-1.4128,-1.4115,-1.4115,-1.4088,-1.4088,-1.4088]},{"header":{"parameterUnit":"m.s-1","parameterCategory":1,"la1":31.0,"la2":29.5877,"lo1":-88.7671,"lo2":-86.6584,"dy":0.0162,"dx":0.0185,"nx":115,"ny":88,"refTime":"2023-07-16T12:00:00:Z","depth":0,"parameterNumber":3,"parameterNumberName":"V-component_of_WINDS"},"data":[0.0,0.0,0.0,0.0,0.0,0.0,0.0,0.0,0.0,0.0,0.0,0.0,0.0,0.0,0.0,0.0,0.0,0.0,0.0,0.0,0.0,0.0,0.0,0.0,0.0,0.0,0.0,0.0,0.0,0.0,0.0,0.0,0.0,0.0,0.0,0.0,0.0,0.0,0.0,0.0,0.0,0.0,0.0,0.0,0.0,0.0,0.0,0.0,0.0,0.0,0.0,0.0,0.0,0.0,0.0,0.0,0.0,0.0,0.0,0.0,0.0,0.0,0.0,0.0,0.0,0.0,0.0,0.0,0.0,0.0,0.0,0.0,0.0,0.0,0.0,0.0,0.0,0.0,0.0,0.0,0.0,0.0,0.0,0.0,0.0,0.0,0.0,0.0,0.0,0.0,0.0,0.0,0.0,0.0,0.0,0.0,0.0,0.0,0.0,0.0,0.0,0.0,0.0,0.0,0.0,0.0,0.0,0.0,0.0,0.0,0.0,0.0,0.0,0.0,0.0,0.0,0.0,0.0,0.0,0.0,0.0,0.0,0.0,0.0,0.0,0.0,0.0,0.0,0.0,0.0,0.0,0.0,0.0,0.0,0.0,0.0,0.0,0.0,0.0,0.0,0.0,0.0,0.0,0.0,0.0,0.0,0.0,0.0,0.0,0.0,0.0,0.0,0.0,0.0,0.0,0.0,0.0,0.0,0.0,0.0,0.0,0.0,0.0,0.0,0.0,0.0,0.0,0.0,0.0,0.0,0.0,0.0,0.0,0.0,0.0,0.0,0.0,0.0,0.0,0.0,0.0,0.0,0.0,0.0,0.0,0.0,0.0,0.0,0.0,0.0,0.0,0.0,0.0,0.0,0.0,0.0,0.0,0.0,0.0,0.0,0.0,0.0,0.0,0.0,0.0,0.0,0.0,0.0,0.0,0.0,0.0,0.0,0.0,0.0,0.0,0.0,0.0,0.0,0.0,0.0,0.0,0.0,0.0,0.0,0.0,0.0,0.0,0.0,0.0,0.0,0.0,0.0,0.0,0.0,0.0,0.0,0.0,0.0,0.0,0.0,0.0,0.0,0.0,0.0,0.0,0.0,0.0,0.0,0.0,0.0,0.0,0.0,0.0,0.0,0.0,0.0,0.0,0.0,0.0,0.0,0.0,0.0,0.0,0.0,0.0,0.0,0.0,0.0,0.0,0.0,0.0,0.0,0.0,0.0,0.0,0.0,0.0,0.0,0.0,0.0,0.0,0.0,0.0,0.0,0.0,0.0,0.0,0.0,0.0,0.0,0.0,0.0,0.0,0.0,0.0,0.0,0.0,0.0,0.0,0.0,0.0,0.0,0.0,0.0,0.0,0.0,0.0,0.0,0.0,0.0,0.0,0.0,0.0,0.0,0.0,0.0,0.0,0.0,0.0,0.0,0.0,0.0,0.0,0.0,0.0,0.0,0.0,0.0,0.0,0.0,0.0,0.0,0.0,0.0,0.0,0.0,0.0,0.0,0.0,0.0,0.0,0.0,0.0,0.0,0.0,0.0,0.0,0.0,0.0,0.0,0.0,0.0,0.0,0.0,0.0,0.0,0.0,0.0,0.0,0.0,0.0,0.0,0.0,0.0,0.0,0.0,0.0,0.0,0.0,0.0,0.0,0.0,0.0,0.0,0.0,0.0,0.0,0.0,0.0,0.0,0.0,0.0,0.0,0.0,0.0,0.0,0.0,0.0,0.0,0.0,0.0,0.0,0.0,0.0,0.0,0.0,0.0,0.0,0.0,0.0,0.0,0.0,0.0,0.0,0.0,0.0,0.0,0.0,0.0,0.0,0.0,0.0,0.0,0.0,0.0,0.0,0.0,0.0,0.0,0.0,0.0,0.0,0.0,0.0,0.0,0.0,0.0,0.0,0.0,0.0,0.0,0.0,0.0,0.0,0.0,0.0,0.0,0.0,0.0,0.0,0.0,0.0,0.0,0.0,0.0,0.0,0.0,0.0,0.0,0.0,0.0,0.0,0.0,0.0,0.0,0.0,0.0,0.0,0.0,0.0,0.0,0.0,0.0,0.0,0.0,0.0,0.0,0.0,0.0,0.0,0.0,0.0,0.0,0.0,0.0,0.0,0.0,0.0,0.0,0.0,0.0,0.0,0.0,0.0,0.0,0.0,0.0,0.0,0.0,0.0,0.0,0.0,0.0,0.0,0.0,0.0,0.0,0.0,0.0,0.0,0.0,0.0,0.0,0.0,0.0,0.0,0.0,0.0,0.0,0.0,0.0,0.0,0.0,0.0,0.0,0.0,0.0,0.0,0.0,0.0,0.0,0.0,0.0,0.0,0.0,0.0,0.0,0.0,0.0,0.0,0.0,0.0,0.0,0.0,0.0,0.0,0.0,0.0,0.0,0.0,0.0,0.0,0.0,0.0,0.0,0.0,0.0,0.0,0.0,0.0,0.0,0.0,0.0,0.0,0.0,0.0,0.0,0.0,0.0,0.0,0.0,0.0,0.0,0.0,0.0,0.0,0.0,0.0,0.0,0.0,0.0,0.0,0.0,0.0,0.0,0.0,0.0,0.0,0.0,0.0,0.0,0.0,0.0,0.0,0.0,0.0,0.0,0.0,0.0,0.0,0.0,0.0,0.0,0.0,0.0,0.0,0.0,0.0,0.0,0.0,0.0,0.0,0.0,0.0,0.0,0.0,0.0,0.0,0.0,0.0,0.0,0.0,0.0,0.0,0.0,0.0,0.0,0.0,0.0,0.0,0.0,0.0,0.0,0.0,0.0,0.0,0.0,0.0,0.0,0.0,0.0,0.0,0.0,0.0,0.0,0.0,0.0,0.0,0.0,0.0,0.0,0.0,0.0,0.0,0.0,0.0,0.0,0.0,0.0,0.0,0.0,0.0,0.0,0.0,0.0,0.0,0.0,0.0,0.0,0.0,0.0,0.0,0.0,0.0,0.0,0.0,0.0,0.0,0.0,0.0,0.0,0.0,0.0,0.0,0.0,0.0,0.0,0.0,0.0,0.0,0.0,0.0,0.0,0.0,0.0,0.0,0.0,0.0,0.0,0.0,0.0,0.0,0.0,0.0,0.0,0.0,0.0,0.0,0.0,0.0,0.0,0.0,0.0,0.0,0.0,0.0,0.0,0.0,0.0,0.0,0.0,0.0,0.0,0.0,0.0,0.0,0.0,0.0,0.0,0.0,0.0,0.0,0.0,0.0,0.0,0.0,0.0,0.0,0.0,0.0,0.0,0.0,0.0,0.0,0.0,0.0,0.0,0.0,0.0,0.0,0.0,0.0,0.0,0.0,0.0,0.0,0.0,0.0,0.0,0.0,0.0,0.0,0.0,0.0,0.0,0.0,0.0,0.0,0.0,0.0,0.0,0.0,0.0,0.0,0.0,0.0,0.0,0.0,0.0,0.0,0.0,0.0,0.0,0.0,0.0,0.0,0.0,0.0,0.0,0.0,0.0,0.0,0.0,0.0,0.0,0.0,0.0,0.0,0.0,0.0,0.0,0.0,0.0,0.0,0.0,0.0,0.0,0.0,0.0,0.0,0.0,0.0,0.0,0.0,0.0,0.0,0.0,0.0,0.0,0.0,0.0,0.0,0.0,0.0,0.0,0.0,0.0,0.0,0.0,0.0,0.0,0.0,0.0,0.0,0.0,0.0,0.0,0.0,0.0,0.0,0.0,0.0,0.0,0.0,0.0,0.0,0.0,0.0,0.0,0.0,0.0,0.0,0.0,0.0,0.0,0.0,0.0,0.0,0.0,0.0,0.0,0.0,0.0,0.0,0.0,0.0,0.0,0.0,0.0,0.0,0.0,0.0,0.0,0.0,0.0,0.0,0.0,0.0,0.0,0.0,0.0,0.0,0.0,0.0,0.0,0.0,0.0,0.0,0.0,0.0,0.0,0.0,0.0,0.0,0.0,0.0,0.0,0.0,0.0,0.0,0.0,0.0,0.0,0.0,0.0,0.0,0.0,0.0,0.0,0.0,0.0,0.0,0.0,0.0,0.0,0.0,0.0,0.0,0.0,0.0,0.0,0.0,0.0,0.0,0.0,0.0,0.0,0.0,0.0,0.0,0.0,0.0,0.0,0.0,0.0,0.0,0.0,0.0,0.0,0.0,0.0,0.0,0.0,0.0,0.0,0.0,0.0,0.0,0.0,0.0,0.0,0.0,0.0,0.0,0.0,0.0,0.0,0.0,0.0,0.0,0.0,0.0,0.0,0.0,0.0,0.0,0.0,0.0,0.0,0.0,0.0,0.0,0.0,0.0,0.0,0.0,-1.3222,0.0,0.0,0.0,0.0,0.0,0.0,0.0,0.0,0.0,0.0,0.0,0.0,0.0,0.0,0.0,0.0,0.0,0.0,0.0,0.0,0.0,0.0,0.0,0.0,0.0,0.0,0.0,0.0,0.0,0.0,0.0,0.0,0.0,0.0,0.0,0.0,0.0,0.0,0.0,0.0,0.0,0.0,0.0,0.0,0.0,0.0,0.0,0.0,0.0,0.0,0.0,0.0,0.0,0.0,0.0,0.0,0.0,0.0,0.0,0.0,0.0,0.0,0.0,0.0,0.0,0.0,0.0,0.0,0.0,0.0,0.0,0.0,0.0,0.0,0.0,0.0,0.0,0.0,0.0,0.0,0.0,0.0,0.0,0.0,0.0,0.0,0.0,0.0,0.0,0.0,0.0,0.0,0.0,0.0,0.0,0.0,0.0,0.0,0.0,0.0,0.0,0.0,0.0,0.0,0.0,0.0,0.0,0.0,0.0,0.0,-1.2526,-1.2452,-1.2452,-1.2684,-1.32,0.0,0.0,0.0,0.0,0.0,0.0,0.0,0.0,0.0,0.0,0.0,0.0,0.0,0.0,0.0,0.0,0.0,0.0,0.0,0.0,0.0,0.0,0.0,0.0,0.0,0.0,0.0,0.0,0.0,0.0,0.0,0.0,0.0,0.0,0.0,0.0,0.0,0.0,0.0,0.0,0.0,0.0,0.0,0.0,0.0,0.0,0.0,0.0,0.0,0.0,0.0,0.0,0.0,0.0,0.0,0.0,0.0,0.0,0.0,0.0,0.0,0.0,0.0,0.0,0.0,0.0,0.0,0.0,0.0,0.0,0.0,0.0,0.0,0.0,0.0,0.0,0.0,0.0,0.0,0.0,0.0,0.0,0.0,0.0,0.0,0.0,0.0,0.0,0.0,0.0,0.0,0.0,0.0,0.0,0.0,0.0,0.0,0.0,0.0,0.0,0.0,0.0,0.0,0.0,0.0,0.0,0.0,0.0,0.0,0.0,0.0,0.0,-1.2305,-1.2599,-1.3331,0.0,0.0,0.0,0.0,0.0,0.0,0.0,0.0,0.0,0.0,0.0,0.0,0.0,0.0,0.0,0.0,0.0,0.0,0.0,0.0,0.0,0.0,0.0,0.0,0.0,0.0,0.0,0.0,0.0,0.0,0.0,0.0,0.0,0.0,0.0,0.0,0.0,0.0,0.0,0.0,0.0,0.0,0.0,0.0,0.0,0.0,0.0,0.0,0.0,0.0,0.0,0.0,0.0,0.0,0.0,0.0,0.0,0.0,0.0,0.0,0.0,0.0,0.0,0.0,0.0,0.0,0.0,0.0,0.0,0.0,0.0,0.0,0.0,0.0,0.0,0.0,0.0,0.0,0.0,0.0,0.0,0.0,0.0,0.0,0.0,0.0,0.0,0.0,0.0,0.0,0.0,0.0,0.0,0.0,0.0,0.0,0.0,0.0,0.0,0.0,0.0,0.0,0.0,0.0,0.0,0.0,0.0,0.0,0.0,0.0,-1.2298,-1.2305,-1.2305,0.0,-1.376,0.0,0.0,0.0,0.0,0.0,0.0,0.0,0.0,0.0,0.0,0.0,0.0,0.0,0.0,0.0,0.0,0.0,0.0,0.0,0.0,0.0,0.0,0.0,0.0,0.0,0.0,0.0,0.0,0.0,0.0,0.0,0.0,0.0,0.0,0.0,0.0,0.0,0.0,0.0,0.0,0.0,0.0,0.0,0.0,0.0,0.0,0.0,0.0,0.0,0.0,0.0,0.0,0.0,0.0,0.0,0.0,0.0,0.0,0.0,0.0,0.0,0.0,0.0,0.0,0.0,0.0,0.0,0.0,0.0,0.0,0.0,0.0,0.0,0.0,0.0,0.0,0.0,0.0,0.0,0.0,0.0,0.0,0.0,0.0,0.0,0.0,0.0,0.0,0.0,0.0,0.0,0.0,0.0,0.0,0.0,0.0,0.0,0.0,0.0,0.0,0.0,0.0,0.0,0.0,0.0,0.0,0.0,0.0,0.0,0.0,-1.2305,-1.2305,-1.2526,-1.3032,0.0,0.0,0.0,0.0,0.0,0.0,0.0,0.0,0.0,0.0,0.0,0.0,0.0,0.0,0.0,0.0,0.0,0.0,0.0,0.0,0.0,0.0,0.0,0.0,0.0,0.0,0.0,0.0,0.0,0.0,0.0,0.0,0.0,0.0,0.0,0.0,0.0,0.0,0.0,0.0,0.0,0.0,0.0,0.0,0.0,0.0,0.0,0.0,0.0,0.0,0.0,0.0,0.0,0.0,0.0,0.0,0.0,0.0,0.0,0.0,0.0,0.0,0.0,0.0,0.0,0.0,0.0,0.0,0.0,0.0,0.0,0.0,0.0,0.0,0.0,0.0,0.0,0.0,0.0,0.0,0.0,0.0,0.0,0.0,0.0,0.0,0.0,0.0,0.0,0.0,0.0,0.0,0.0,0.0,0.0,0.0,0.0,0.0,0.0,0.0,0.0,0.0,0.0,0.0,0.0,0.0,0.0,0.0,0.0,0.0,-1.2305,-1.2305,-1.2305,-1.2599,-1.3119,-1.3688,0.0,0.0,0.0,0.0,0.0,0.0,0.0,0.0,0.0,0.0,0.0,0.0,0.0,0.0,0.0,0.0,0.0,0.0,0.0,0.0,0.0,0.0,0.0,0.0,0.0,0.0,0.0,0.0,0.0,0.0,0.0,0.0,0.0,0.0,0.0,0.0,0.0,0.0,0.0,0.0,0.0,0.0,0.0,0.0,0.0,0.0,0.0,0.0,0.0,0.0,0.0,0.0,0.0,0.0,0.0,0.0,0.0,0.0,0.0,0.0,0.0,0.0,0.0,0.0,0.0,0.0,0.0,0.0,0.0,0.0,0.0,0.0,0.0,0.0,0.0,0.0,0.0,0.0,0.0,0.0,0.0,0.0,0.0,0.0,0.0,0.0,0.0,0.0,0.0,0.0,0.0,0.0,0.0,0.0,0.0,0.0,0.0,0.0,0.0,0.0,0.0,0.0,0.0,0.0,0.0,0.0,0.0,0.0,-1.2305,-1.2305,-1.2305,-1.2298,-1.2526,-1.29,0.0,0.0,0.0,0.0,0.0,0.0,0.0,0.0,0.0,0.0,0.0,0.0,0.0,0.0,0.0,0.0,0.0,0.0,0.0,0.0,0.0,0.0,0.0,0.0,0.0,0.0,0.0,0.0,0.0,0.0,0.0,0.0,0.0,0.0,0.0,0.0,0.0,0.0,0.0,0.0,0.0,0.0,0.0,0.0,0.0,0.0,0.0,0.0,0.0,0.0,0.0,0.0,0.0,0.0,0.0,0.0,0.0,0.0,0.0,0.0,0.0,0.0,0.0,0.0,0.0,0.0,0.0,0.0,0.0,0.0,0.0,0.0,0.0,0.0,0.0,0.0,0.0,0.0,0.0,0.0,0.0,0.0,0.0,0.0,0.0,0.0,0.0,0.0,0.0,0.0,0.0,0.0,0.0,0.0,0.0,0.0,0.0,0.0,0.0,0.0,0.0,0.0,0.0,0.0,0.0,0.0,0.0,0.0,0.0,-1.2305,-1.2305,-1.2305,-1.2298,-1.2526,-1.29,0.0,0.0,0.0,0.0,0.0,0.0,0.0,0.0,0.0,0.0,0.0,0.0,0.0,0.0,0.0,0.0,0.0,0.0,0.0,0.0,0.0,0.0,0.0,0.0,0.0,0.0,0.0,0.0,0.0,0.0,0.0,0.0,0.0,0.0,0.0,0.0,0.0,0.0,0.0,0.0,0.0,0.0,0.0,0.0,0.0,0.0,0.0,0.0,0.0,0.0,0.0,0.0,0.0,0.0,0.0,0.0,0.0,0.0,0.0,0.0,0.0,0.0,0.0,0.0,0.0,0.0,0.0,0.0,0.0,0.0,0.0,0.0,0.0,0.0,0.0,0.0,0.0,0.0,0.0,0.0,0.0,0.0,0.0,0.0,0.0,0.0,0.0,0.0,0.0,0.0,0.0,0.0,0.0,0.0,0.0,0.0,0.0,0.0,0.0,0.0,0.0,0.0,0.0,0.0,0.0,0.0,0.0,0.0,0.0,-1.2305,0.0,-1.2305,-1.2298,-1.2452,-1.282,0.0,0.0,0.0,0.0,0.0,0.0,0.0,0.0,0.0,0.0,0.0,0.0,0.0,0.0,0.0,0.0,0.0,0.0,0.0,0.0,0.0,0.0,0.0,0.0,0.0,0.0,0.0,0.0,0.0,0.0,0.0,0.0,0.0,0.0,0.0,0.0,0.0,0.0,0.0,0.0,0.0,0.0,0.0,0.0,0.0,0.0,0.0,0.0,0.0,0.0,0.0,0.0,0.0,0.0,0.0,0.0,0.0,0.0,0.0,0.0,0.0,0.0,0.0,0.0,0.0,0.0,0.0,0.0,0.0,0.0,0.0,0.0,0.0,0.0,0.0,0.0,0.0,0.0,0.0,0.0,0.0,0.0,0.0,0.0,0.0,0.0,0.0,0.0,0.0,0.0,0.0,0.0,0.0,0.0,0.0,0.0,0.0,0.0,0.0,0.0,0.0,0.0,0.0,0.0,0.0,0.0,0.0,0.0,-1.2546,-1.2305,-1.2325,-1.2351,-1.2318,-1.2338,-1.2693,0.0,0.0,0.0,0.0,0.0,0.0,0.0,0.0,0.0,0.0,0.0,0.0,0.0,0.0,0.0,0.0,0.0,0.0,0.0,0.0,0.0,0.0,0.0,0.0,0.0,0.0,0.0,0.0,0.0,0.0,0.0,0.0,0.0,0.0,0.0,0.0,0.0,0.0,0.0,0.0,0.0,0.0,0.0,0.0,0.0,0.0,0.0,0.0,0.0,0.0,0.0,0.0,0.0,0.0,0.0,0.0,0.0,0.0,0.0,0.0,0.0,0.0,0.0,0.0,0.0,0.0,0.0,0.0,0.0,0.0,0.0,0.0,0.0,0.0,0.0,0.0,0.0,0.0,0.0,0.0,0.0,0.0,0.0,0.0,0.0,0.0,0.0,0.0,0.0,0.0,0.0,0.0,0.0,0.0,0.0,0.0,0.0,0.0,0.0,0.0,0.0,0.0,0.0,0.0,0.0,0.0,0.0,0.0,0.0,-1.2694,-1.2819,-1.2926,-1.2933,-1.2926,-1.3313,0.0,0.0,0.0,0.0,0.0,0.0,0.0,0.0,0.0,0.0,0.0,0.0,0.0,0.0,0.0,0.0,0.0,0.0,0.0,0.0,0.0,0.0,0.0,0.0,0.0,0.0,0.0,0.0,0.0,0.0,0.0,0.0,0.0,0.0,0.0,0.0,0.0,0.0,0.0,0.0,0.0,0.0,0.0,0.0,0.0,0.0,0.0,0.0,0.0,0.0,0.0,0.0,0.0,0.0,0.0,0.0,0.0,0.0,0.0,0.0,0.0,0.0,0.0,0.0,0.0,0.0,0.0,0.0,0.0,0.0,0.0,0.0,0.0,0.0,0.0,0.0,0.0,0.0,0.0,0.0,0.0,0.0,0.0,0.0,0.0,0.0,0.0,0.0,0.0,0.0,0.0,0.0,0.0,0.0,0.0,0.0,0.0,0.0,0.0,0.0,0.0,0.0,0.0,0.0,0.0,0.0,0.0,0.0,0.0,-1.3414,-1.3494,-1.354,-1.354,-1.3608,-1.3902,-1.4387,0.0,0.0,0.0,0.0,0.0,0.0,0.0,0.0,0.0,0.0,0.0,0.0,0.0,0.0,0.0,0.0,0.0,0.0,0.0,0.0,0.0,0.0,0.0,0.0,0.0,0.0,0.0,0.0,0.0,0.0,0.0,0.0,0.0,0.0,0.0,0.0,0.0,0.0,0.0,0.0,0.0,0.0,0.0,0.0,0.0,0.0,0.0,0.0,0.0,0.0,0.0,0.0,0.0,0.0,0.0,0.0,0.0,0.0,0.0,0.0,0.0,0.0,0.0,0.0,0.0,0.0,0.0,0.0,0.0,0.0,0.0,0.0,0.0,0.0,0.0,0.0,0.0,0.0,0.0,0.0,0.0,0.0,0.0,0.0,0.0,0.0,0.0,0.0,0.0,0.0,0.0,0.0,0.0,0.0,0.0,0.0,0.0,0.0,0.0,0.0,0.0,0.0,0.0,0.0,0.0,0.0,0.0,0.0,-1.4616,-1.4369,-1.4235,-1.4195,-1.4396,-1.4434,0.0,0.0,0.0,0.0,0.0,0.0,0.0,0.0,0.0,0.0,0.0,0.0,0.0,0.0,0.0,0.0,0.0,0.0,0.0,0.0,0.0,0.0,0.0,0.0,0.0,0.0,0.0,0.0,0.0,0.0,0.0,0.0,0.0,0.0,0.0,0.0,0.0,0.0,0.0,0.0,0.0,0.0,0.0,0.0,0.0,0.0,0.0,0.0,0.0,0.0,0.0,0.0,0.0,0.0,0.0,0.0,0.0,0.0,0.0,0.0,0.0,0.0,0.0,0.0,0.0,0.0,0.0,0.0,0.0,0.0,0.0,0.0,0.0,0.0,0.0,0.0,0.0,0.0,0.0,0.0,0.0,0.0,0.0,0.0,0.0,0.0,0.0,0.0,0.0,0.0,0.0,0.0,0.0,0.0,0.0,0.0,0.0,0.0,0.0,0.0,0.0,0.0,0.0,0.0,0.0,0.0,0.0,0.0,0.0,-1.6082,-1.6048,-1.5812,-1.5384,-1.5136,-1.535,0.0,0.0,0.0,0.0,0.0,0.0,0.0,0.0,0.0,0.0,0.0,0.0,0.0,0.0,0.0,0.0,0.0,0.0,0.0,0.0,0.0,0.0,0.0,0.0,0.0,0.0,0.0,0.0,0.0,0.0,0.0,0.0,0.0,0.0,0.0,0.0,0.0,0.0,0.0,0.0,0.0,0.0,0.0,0.0,0.0,0.0,0.0,0.0,0.0,0.0,0.0,0.0,0.0,0.0,0.0,0.0,0.0,0.0,0.0,0.0,0.0,0.0,0.0,0.0,0.0,0.0,0.0,0.0,0.0,0.0,0.0,0.0,0.0,0.0,0.0,0.0,0.0,0.0,0.0,0.0,0.0,0.0,0.0,0.0,0.0,0.0,0.0,0.0,0.0,0.0,0.0,0.0,0.0,0.0,0.0,0.0,0.0,0.0,0.0,0.0,0.0,0.0,0.0,0.0,0.0,0.0,0.0,0.0,-1.7198,-1.7043,-1.7589,-1.7507,-1.658,-1.6367,-1.633,0.0,0.0,0.0,0.0,0.0,0.0,0.0,0.0,0.0,0.0,0.0,0.0,0.0,0.0,0.0,0.0,0.0,0.0,0.0,0.0,0.0,0.0,0.0,0.0,0.0,0.0,0.0,0.0,0.0,0.0,0.0,0.0,0.0,0.0,0.0,0.0,0.0,0.0,0.0,0.0,0.0,0.0,0.0,0.0,0.0,0.0,0.0,0.0,0.0,0.0,0.0,0.0,0.0,0.0,0.0,0.0,0.0,0.0,0.0,0.0,0.0,0.0,0.0,0.0,0.0,0.0,0.0,0.0,0.0,0.0,0.0,0.0,0.0,0.0,0.0,0.0,0.0,0.0,0.0,0.0,0.0,0.0,0.0,0.0,0.0,0.0,0.0,0.0,0.0,0.0,0.0,0.0,0.0,0.0,0.0,0.0,0.0,0.0,0.0,0.0,0.0,0.0,0.0,0.0,0.0,0.0,0.0,0.0,-1.8839,-1.7889,-1.9157,-1.922,-1.8067,-1.7626,-1.7297,0.0,0.0,0.0,0.0,0.0,0.0,0.0,0.0,0.0,0.0,0.0,0.0,0.0,0.0,0.0,0.0,0.0,0.0,0.0,0.0,0.0,0.0,0.0,0.0,0.0,0.0,0.0,0.0,0.0,0.0,0.0,0.0,0.0,0.0,0.0,0.0,0.0,0.0,0.0,0.0,0.0,0.0,0.0,0.0,0.0,0.0,0.0,0.0,0.0,0.0,0.0,0.0,0.0,0.0,0.0,0.0,0.0,0.0,0.0,0.0,0.0,0.0,0.0,0.0,0.0,0.0,0.0,0.0,0.0,0.0,0.0,0.0,0.0,0.0,0.0,0.0,0.0,0.0,0.0,0.0,0.0,0.0,0.0,0.0,0.0,0.0,0.0,0.0,0.0,0.0,0.0,0.0,0.0,0.0,0.0,0.0,0.0,0.0,0.0,0.0,0.0,0.0,0.0,0.0,0.0,0.0,0.0,0.0,-2.0342,-2.0688,-2.1094,-2.1143,-2.0829,-1.8784,-1.7684,0.0,0.0,0.0,0.0,0.0,0.0,0.0,0.0,0.0,0.0,0.0,0.0,0.0,0.0,0.0,0.0,0.0,0.0,0.0,0.0,0.0,0.0,0.0,0.0,0.0,0.0,0.0,0.0,0.0,0.0,0.0,0.0,0.0,0.0,0.0,0.0,0.0,0.0,0.0,0.0,0.0,0.0,0.0,0.0,0.0,0.0,0.0,0.0,-2.2178,0.0,0.0,0.0,0.0,0.0,0.0,0.0,0.0,0.0,0.0,0.0,0.0,0.0,0.0,0.0,0.0,0.0,0.0,0.0,0.0,0.0,0.0,0.0,0.0,0.0,0.0,0.0,0.0,0.0,0.0,0.0,0.0,0.0,0.0,0.0,0.0,0.0,0.0,0.0,0.0,0.0,0.0,0.0,0.0,0.0,0.0,0.0,0.0,0.0,0.0,0.0,0.0,0.0,0.0,0.0,0.0,0.0,0.0,0.0,-2.1825,-2.191,-2.2378,-2.2366,-2.1719,-2.0556,-1.9829,0.0,0.0,0.0,0.0,0.0,0.0,0.0,0.0,0.0,0.0,0.0,0.0,0.0,0.0,0.0,0.0,0.0,0.0,0.0,0.0,0.0,0.0,0.0,0.0,0.0,0.0,0.0,0.0,0.0,0.0,0.0,0.0,0.0,0.0,0.0,0.0,0.0,0.0,0.0,0.0,0.0,0.0,0.0,0.0,0.0,0.0,0.0,0.0,0.0,0.0,0.0,0.0,0.0,0.0,0.0,0.0,0.0,0.0,0.0,0.0,0.0,0.0,0.0,0.0,0.0,0.0,0.0,0.0,0.0,0.0,0.0,0.0,0.0,0.0,0.0,0.0,0.0,0.0,0.0,0.0,0.0,0.0,0.0,0.0,0.0,0.0,0.0,0.0,0.0,0.0,0.0,0.0,0.0,0.0,0.0,0.0,0.0,0.0,0.0,0.0,0.0,0.0,0.0,0.0,0.0,0.0,0.0,-2.2843,-2.3168,-2.2877,-2.3619,-2.3484,-2.2357,-2.2617,-2.2467,-2.1913,0.0,0.0,0.0,0.0,0.0,0.0,0.0,0.0,0.0,0.0,0.0,0.0,0.0,0.0,0.0,0.0,0.0,0.0,0.0,0.0,0.0,0.0,0.0,0.0,0.0,0.0,0.0,0.0,0.0,0.0,0.0,0.0,0.0,0.0,0.0,0.0,0.0,0.0,-2.4808,-2.3709,0.0,0.0,0.0,0.0,0.0,0.0,0.0,0.0,-2.3271,0.0,0.0,0.0,0.0,0.0,0.0,0.0,0.0,0.0,0.0,0.0,0.0,0.0,0.0,0.0,0.0,0.0,0.0,0.0,0.0,0.0,0.0,0.0,0.0,0.0,0.0,0.0,0.0,0.0,0.0,0.0,0.0,0.0,0.0,0.0,0.0,0.0,0.0,0.0,0.0,0.0,0.0,0.0,0.0,0.0,0.0,0.0,0.0,0.0,0.0,0.0,0.0,0.0,0.0,0.0,0.0,-2.3118,-2.3707,-2.4361,-2.5101,-2.5294,-2.5226,-2.5011,-2.4794,-2.4438,-2.3919,0.0,0.0,0.0,0.0,0.0,0.0,0.0,0.0,0.0,0.0,0.0,0.0,0.0,0.0,0.0,0.0,0.0,0.0,0.0,0.0,0.0,0.0,0.0,0.0,0.0,0.0,0.0,0.0,0.0,0.0,0.0,0.0,0.0,0.0,0.0,0.0,0.0,0.0,0.0,-2.3743,-2.3145,0.0,0.0,0.0,0.0,0.0,0.0,0.0,0.0,-2.4227,0.0,0.0,0.0,0.0,0.0,0.0,0.0,0.0,0.0,0.0,0.0,0.0,0.0,0.0,0.0,0.0,0.0,0.0,0.0,0.0,0.0,0.0,0.0,0.0,0.0,0.0,0.0,0.0,0.0,0.0,0.0,0.0,0.0,0.0,0.0,0.0,0.0,0.0,0.0,0.0,0.0,0.0,0.0,0.0,0.0,0.0,0.0,0.0,0.0,0.0,0.0,0.0,0.0,0.0,0.0,-2.358,-2.4249,-2.4983,-2.5703,-2.5732,-2.5732,-2.5723,-2.5303,-2.4853,0.0,0.0,0.0,0.0,0.0,0.0,0.0,0.0,0.0,0.0,0.0,0.0,0.0,0.0,0.0,0.0,0.0,0.0,0.0,0.0,0.0,0.0,0.0,0.0,0.0,0.0,0.0,0.0,0.0,0.0,0.0,0.0,0.0,0.0,0.0,0.0,0.0,0.0,0.0,0.0,-2.4804,-2.4374,-2.3879,0.0,0.0,0.0,0.0,0.0,0.0,-2.4425,-2.4645,0.0,0.0,0.0,0.0,0.0,0.0,0.0,0.0,0.0,0.0,0.0,0.0,0.0,0.0,0.0,0.0,0.0,0.0,0.0,0.0,0.0,0.0,0.0,0.0,0.0,0.0,0.0,0.0,0.0,0.0,0.0,0.0,0.0,0.0,0.0,0.0,0.0,0.0,0.0,0.0,0.0,0.0,0.0,0.0,0.0,0.0,0.0,0.0,0.0,0.0,0.0,0.0,0.0,0.0,0.0,-2.3906,-2.4678,-2.5283,-2.5713,-2.5732,-2.5732,-2.5723,-2.532,-2.4952,0.0,0.0,0.0,0.0,0.0,0.0,0.0,0.0,0.0,0.0,0.0,0.0,0.0,0.0,0.0,0.0,0.0,0.0,0.0,0.0,0.0,0.0,0.0,0.0,0.0,0.0,0.0,0.0,0.0,0.0,0.0,0.0,0.0,0.0,0.0,0.0,0.0,0.0,0.0,0.0,0.0,-2.5865,-2.535,-2.4676,0.0,0.0,0.0,0.0,-2.4742,-2.4937,0.0,0.0,0.0,0.0,0.0,0.0,0.0,0.0,0.0,0.0,0.0,0.0,0.0,0.0,0.0,0.0,0.0,0.0,0.0,0.0,0.0,0.0,0.0,0.0,0.0,0.0,0.0,0.0,0.0,0.0,0.0,0.0,0.0,0.0,0.0,0.0,0.0,0.0,0.0,0.0,0.0,0.0,0.0,0.0,0.0,0.0,0.0,0.0,0.0,0.0,0.0,0.0,0.0,0.0,0.0,0.0,-2.4307,-2.4824,-2.5283,-2.5703,-2.5732,-2.5732,-2.5723,-2.5307,-2.5117,0.0,0.0,0.0,0.0,0.0,0.0,0.0,0.0,0.0,0.0,0.0,0.0,0.0,0.0,0.0,0.0,0.0,0.0,0.0,0.0,0.0,0.0,0.0,0.0,0.0,0.0,0.0,0.0,0.0,0.0,0.0,0.0,0.0,0.0,0.0,0.0,0.0,0.0,0.0,0.0,0.0,-2.7413,-2.5972,-2.5893,-2.5511,0.0,0.0,-2.4742,-2.4792,-2.6053,0.0,0.0,0.0,0.0,0.0,0.0,0.0,0.0,0.0,0.0,0.0,0.0,0.0,0.0,0.0,0.0,0.0,0.0,0.0,0.0,0.0,0.0,0.0,0.0,0.0,0.0,0.0,0.0,0.0,0.0,0.0,0.0,0.0,0.0,0.0,0.0,0.0,0.0,0.0,0.0,0.0,0.0,0.0,0.0,0.0,0.0,0.0,0.0,0.0,0.0,0.0,0.0,0.0,0.0,0.0,-2.3389,-2.4404,-2.5098,-2.5547,-2.5732,-2.5732,-2.6004,-2.6754,-2.5807,-2.5694,0.0,0.0,0.0,0.0,0.0,0.0,0.0,0.0,0.0,0.0,0.0,0.0,0.0,0.0,0.0,0.0,0.0,0.0,0.0,0.0,0.0,0.0,0.0,0.0,0.0,0.0,0.0,0.0,0.0,0.0,0.0,0.0,0.0,0.0,0.0,0.0,0.0,0.0,0.0,0.0,0.0,0.0,-2.7327,-2.7138,0.0,0.0,0.0,-2.6237,-2.5716,0.0,0.0,0.0,0.0,0.0,0.0,0.0,0.0,0.0,0.0,0.0,0.0,0.0,0.0,0.0,0.0,0.0,0.0,0.0,0.0,0.0,0.0,0.0,0.0,0.0,0.0,0.0,0.0,0.0,0.0,0.0,0.0,0.0,0.0,0.0,0.0,0.0,0.0,0.0,0.0,0.0,0.0,0.0,0.0,0.0,0.0,0.0,0.0,0.0,0.0,0.0,0.0,0.0,0.0,0.0,0.0,0.0,-2.4945,-2.5749,-2.6284,-2.6658,-2.6658,-2.7125,-2.8028,-2.6985,0.0,0.0,0.0,0.0,0.0,0.0,0.0,0.0,0.0,0.0,0.0,0.0,0.0,0.0,0.0,0.0,0.0,0.0,0.0,0.0,0.0,0.0,0.0,0.0,0.0,0.0,0.0,-3.4726,0.0,0.0,0.0,0.0,0.0,0.0,0.0,0.0,0.0,0.0,0.0,0.0,0.0,0.0,-2.9141,-2.8827,-2.8566,-2.8342,0.0,0.0,-2.7709,-2.708,-2.8589,-2.9616,0.0,0.0,0.0,0.0,0.0,0.0,0.0,0.0,0.0,0.0,0.0,0.0,0.0,0.0,0.0,0.0,0.0,0.0,0.0,0.0,0.0,0.0,0.0,0.0,0.0,0.0,0.0,0.0,0.0,0.0,0.0,0.0,0.0,0.0,0.0,0.0,0.0,0.0,0.0,0.0,0.0,0.0,0.0,0.0,0.0,0.0,0.0,0.0,0.0,0.0,0.0,0.0,0.0,0.0,-2.4834,-2.6451,-2.7106,-2.8049,-2.9039,-2.9131,-2.9223,-2.9304,-2.915,-2.8939,0.0,0.0,0.0,0.0,0.0,0.0,0.0,0.0,0.0,0.0,0.0,0.0,0.0,0.0,0.0,0.0,0.0,0.0,0.0,0.0,0.0,0.0,0.0,0.0,0.0,0.0,0.0,0.0,0.0,0.0,0.0,0.0,0.0,0.0,0.0,0.0,0.0,0.0,0.0,0.0,0.0,-3.0662,-3.0095,-3.0213,-3.0062,0.0,-2.8757,-2.8668,-2.888,-3.0148,-3.0832,-3.0109,0.0,0.0,0.0,0.0,0.0,0.0,0.0,0.0,0.0,0.0,0.0,0.0,0.0,0.0,0.0,0.0,0.0,0.0,0.0,0.0,0.0,0.0,0.0,0.0,0.0,0.0,0.0,0.0,0.0,0.0,0.0,0.0,0.0,0.0,0.0,0.0,0.0,0.0,0.0,0.0,0.0,0.0,0.0,0.0,0.0,0.0,0.0,0.0,0.0,0.0,0.0,0.0,0.0,-2.6006,-2.6985,-2.8109,-2.8947,-2.9407,-2.9396,-2.9772,-3.0496,-2.9931,-2.9781,0.0,0.0,0.0,0.0,0.0,0.0,0.0,0.0,0.0,0.0,0.0,0.0,0.0,0.0,0.0,0.0,0.0,0.0,0.0,0.0,0.0,0.0,0.0,0.0,0.0,0.0,0.0,0.0,-3.6911,-3.676,-3.5937,0.0,0.0,0.0,0.0,0.0,0.0,0.0,0.0,0.0,0.0,-3.1257,-3.1199,-3.1392,0.0,0.0,-3.1335,-3.0976,-3.0342,-3.1693,-3.2369,-3.1021,-3.1933,0.0,0.0,0.0,0.0,0.0,0.0,0.0,0.0,0.0,0.0,0.0,0.0,0.0,0.0,0.0,0.0,0.0,0.0,0.0,0.0,0.0,0.0,0.0,0.0,0.0,0.0,0.0,0.0,0.0,0.0,0.0,0.0,0.0,0.0,0.0,0.0,0.0,0.0,0.0,0.0,0.0,0.0,0.0,0.0,0.0,0.0,0.0,0.0,0.0,0.0,0.0,0.0,-2.7269,-2.8049,-2.9273,-3.0135,-3.0508,-3.0496,-3.0866,-3.1677,-3.1153,-3.0905,0.0,0.0,0.0,0.0,0.0,0.0,0.0,0.0,0.0,0.0,0.0,0.0,0.0,0.0,0.0,0.0,0.0,0.0,0.0,0.0,0.0,0.0,0.0,0.0,0.0,0.0,0.0,0.0,-3.73,-3.6945,-3.5884,0.0,0.0,0.0,0.0,0.0,0.0,0.0,0.0,0.0,0.0,-3.1755,-3.2247,-3.2192,-3.2448,-3.3076,-3.306,-3.2828,-3.2153,-3.3203,-3.3731,-3.241,0.0,0.0,0.0,0.0,0.0,0.0,0.0,0.0,0.0,0.0,0.0,0.0,0.0,0.0,0.0,0.0,0.0,0.0,0.0,0.0,0.0,0.0,0.0,0.0,0.0,0.0,0.0,0.0,0.0,0.0,-2.1191,0.0,0.0,0.0,0.0,0.0,0.0,0.0,0.0,0.0,0.0,0.0,0.0,0.0,0.0,0.0,0.0,0.0,0.0,0.0,0.0,0.0,0.0,-2.8545,-2.9689,-3.07,-3.1777,-3.2896,-3.2995,-3.2982,-3.2982,-3.3068,-3.2792,-3.2202,0.0,0.0,0.0,0.0,0.0,0.0,0.0,0.0,0.0,0.0,0.0,0.0,0.0,0.0,0.0,0.0,0.0,0.0,0.0,0.0,0.0,0.0,0.0,0.0,0.0,0.0,-3.6552,-3.7045,-3.7082,0.0,0.0,0.0,0.0,0.0,0.0,0.0,0.0,0.0,0.0,-3.2427,-3.2403,-3.2955,-3.2884,-3.291,-3.3746,-3.3644,-3.3729,-3.4445,-3.461,-3.4713,0.0,0.0,0.0,0.0,0.0,0.0,0.0,0.0,0.0,0.0,0.0,0.0,0.0,0.0,0.0,0.0,0.0,0.0,0.0,0.0,0.0,0.0,0.0,0.0,0.0,0.0,0.0,-2.2295,-2.2285,0.0,0.0,0.0,0.0,0.0,0.0,0.0,0.0,0.0,0.0,0.0,-2.515,-2.6022,0.0,0.0,0.0,0.0,0.0,0.0,0.0,0.0,0.0,0.0,0.0,0.0,-2.9869,-3.0516,-3.1786,-3.2698,-3.3081,-3.3081,-3.3081,-3.3081,-3.3081,-3.2805,-3.2227,0.0,0.0,0.0,0.0,0.0,0.0,0.0,0.0,0.0,0.0,0.0,0.0,0.0,0.0,0.0,0.0,0.0,0.0,0.0,0.0,0.0,0.0,0.0,0.0,0.0,-3.7105,0.0,0.0,0.0,0.0,0.0,0.0,0.0,0.0,0.0,0.0,0.0,-3.3648,-3.4139,-3.3671,-3.3416,-3.3746,-3.3398,-3.3568,0.0,0.0,0.0,0.0,0.0,0.0,0.0,0.0,0.0,0.0,0.0,0.0,0.0,0.0,-3.7751,-3.7436,-3.7938,-3.8587,-3.8825,0.0,0.0,0.0,0.0,0.0,0.0,0.0,0.0,0.0,0.0,0.0,0.0,0.0,0.0,-2.3174,0.0,-2.3018,0.0,0.0,0.0,0.0,0.0,0.0,0.0,0.0,-2.5988,-2.6826,-2.7312,-2.8109,-2.8464,0.0,-2.8928,-2.8145,0.0,0.0,0.0,0.0,0.0,0.0,0.0,0.0,-3.0741,-3.0956,-3.2334,-3.3081,-3.3081,-3.3081,-3.3081,-3.3081,-3.3081,-3.2905,-3.2528,-3.1976,-3.1524,0.0,0.0,0.0,0.0,0.0,0.0,0.0,0.0,0.0,0.0,0.0,0.0,0.0,0.0,0.0,0.0,0.0,0.0,0.0,0.0,0.0,0.0,0.0,-3.7749,0.0,0.0,0.0,0.0,0.0,0.0,0.0,0.0,0.0,-3.5642,-3.5194,-3.5114,-3.5398,-3.5169,-3.4899,-3.473,0.0,0.0,0.0,0.0,0.0,0.0,0.0,-3.6936,-3.6928,-3.7039,-3.7451,-3.83,-3.9061,-3.9672,-4.0169,0.0,0.0,-3.9469,-3.9764,-4.0182,-4.03,-4.0503,-4.0749,-4.0775,-4.0956,-4.1,0.0,0.0,0.0,0.0,0.0,0.0,0.0,0.0,-2.4258,-2.4414,0.0,-2.4004,0.0,0.0,0.0,0.0,0.0,-2.3861,0.0,0.0,-2.7374,-2.8234,-2.9181,-2.9401,-2.9565,-2.9542,-2.9839,-3.0037,-3.0145,-3.0013,0.0,0.0,0.0,0.0,0.0,0.0,-3.1083,-3.1158,-3.2444,-3.3081,-3.3081,-3.3081,-3.3081,-3.3081,-3.3081,-3.3154,-3.3129,-3.2613,-3.2311,-3.2261,-3.2081,0.0,0.0,0.0,0.0,0.0,0.0,0.0,0.0,0.0,0.0,0.0,0.0,0.0,0.0,0.0,0.0,0.0,0.0,0.0,0.0,-3.7659,0.0,0.0,0.0,0.0,0.0,0.0,0.0,0.0,0.0,0.0,-3.7008,-3.6321,-3.606,-3.6632,0.0,0.0,0.0,0.0,-3.7222,-3.7121,-3.7035,-3.7232,-3.7795,-3.8482,-3.893,-3.893,0.0,0.0,-4.0845,-4.0879,-4.0981,-4.168,-4.1932,-4.1804,-4.0793,-4.0627,-4.0749,-4.1085,-4.1211,-4.1285,-4.1386,-4.1492,-4.1549,-2.4419,0.0,0.0,0.0,0.0,-2.4053,-2.4307,-2.4707,-2.4824,-2.4883,-2.4873,-2.4756,0.0,0.0,0.0,0.0,0.0,0.0,-2.6672,-2.821,-2.9392,-3.0167,-3.0643,-3.1559,-3.2019,-3.2006,-3.2129,-3.2166,-3.2239,-3.2166,-3.1329,-2.9736,0.0,0.0,0.0,0.0,-3.1517,-3.1918,-3.2704,-3.3081,-3.3081,-3.3081,-3.3081,-3.3081,-3.3081,-3.3471,-3.4191,-3.4105,-3.4133,-3.4431,-3.4576,0.0,0.0,0.0,0.0,0.0,0.0,0.0,0.0,0.0,0.0,0.0,0.0,0.0,0.0,0.0,0.0,0.0,0.0,0.0,-3.7749,-3.8167,-3.8377,0.0,0.0,0.0,0.0,0.0,0.0,0.0,0.0,0.0,-3.9373,-3.8911,-3.8681,0.0,0.0,-3.8457,-3.8116,-3.8007,-3.8073,-3.8447,-3.8487,0.0,-3.9426,-3.9683,-3.9958,-4.036,-4.1057,-4.1645,-4.1825,-4.2254,-4.2634,-4.2808,-4.2902,-4.2842,-4.2585,-4.254,-4.2525,-4.2648,-4.2634,-4.2663,-4.2718,-4.2802,-4.2761,-2.5176,-2.4902,-2.456,-2.4512,-2.4668,-2.4668,-2.4932,-2.5332,-2.5332,-2.5332,-2.5332,-2.5332,-2.5088,-2.4668,-2.5117,0.0,0.0,0.0,-2.8399,-2.9777,-3.0584,-3.1375,-3.1952,-3.2711,-3.3081,-3.3081,-3.3081,-3.3081,-3.3081,-3.3081,-3.2381,-3.0889,0.0,0.0,-3.0773,-3.1354,-3.1876,-3.2215,-3.278,-3.3081,-3.3081,-3.3081,-3.3081,-3.3081,-3.3471,-3.4024,-3.4664,-3.5129,-3.5425,-3.5701,-3.585,-3.563,0.0,0.0,0.0,0.0,0.0,0.0,0.0,0.0,0.0,0.0,0.0,-3.6327,-3.5923,0.0,0.0,0.0,-3.709,-3.7674,-3.8706,-3.8796,0.0,0.0,0.0,0.0,0.0,0.0,0.0,-3.9738,-4.0157,-4.0502,-4.0756,-4.0784,-4.0692,-4.0212,-4.0261,-4.0176,-3.9853,0.0,-3.9883,-3.9929,-3.9957,-4.0055,-4.059,-4.0817,-4.1281,-4.1825,-4.2319,-4.2673,-4.2673,-4.2996,-4.325,-4.3344,-4.3344,-4.3344,-4.3344,-4.3344,-4.3344,-4.3344,-4.3344,-4.3344,-4.3344,-4.3344,-4.3344,-2.5732,-2.5664,-2.4863,-2.4756,-2.5117,-2.5117,-2.5352,-2.5732,-2.5732,-2.5732,-2.5732,-2.5732,-2.5508,-2.5372,-2.6396,0.0,-2.9014,-2.9192,-2.9978,-3.1311,-3.1311,-3.1965,-3.3081,-3.3081,-3.3081,-3.3081,-3.3081,-3.3081,-3.3081,-3.3081,-3.2805,-3.2303,-3.2277,-3.2001,-3.1512,-3.1964,-3.2227,-3.229,-3.2817,-3.3081,-3.3081,-3.3081,-3.3167,-3.324,-3.4191,-3.4746,-3.4979,-3.5828,-3.6369,-3.6434,-3.6485,-3.6639,-3.6716,0.0,0.0,0.0,0.0,0.0,0.0,0.0,0.0,0.0,0.0,0.0,0.0,0.0,0.0,0.0,-3.8093,0.0,-3.9364,-3.9424,0.0,0.0,0.0,-3.9424,-3.9424,-3.9469,-3.9738,-4.0337,0.0,0.0,-4.1369,-4.2028,-4.2222,-4.1409,-4.1778,-4.1991,-4.1324,-4.1872,-4.217,-4.1518,-4.1463,-4.1449,-4.1547,-4.199,-4.2496,-4.2996,-4.3344,-4.325,-4.325,-4.3265,-4.3344,-4.3344,-4.3344,-4.3344,-4.3344,-4.3344,-4.3344,-4.3344,-4.3344,-4.3344,-4.3344,-4.3344,-4.3344,-2.5732,-2.5713,-2.5508,-2.5478,-2.5576,-2.5576,-2.5635,-2.5732,-2.5732,-2.5732,-2.5732,-2.5732,-2.6234,-2.7044,-2.8202,-2.9387,-3.0601,-3.0678,-3.1392,-3.2612,-3.2612,-3.2797,-3.3081,-3.3081,-3.3081,-3.3081,-3.3081,-3.3081,-3.3081,-3.3081,-3.3006,-3.2867,-3.2867,-3.2591,-3.2051,-3.2152,-3.2428,-3.2867,-3.3006,-3.3081,-3.3081,-3.3081,-3.3471,-3.4275,-3.4594,-3.5453,-3.6958,-3.7266,-3.7814,-3.862,-3.8635,-3.8412,-3.7839,-3.7352,0.0,0.0,0.0,0.0,0.0,0.0,0.0,0.0,0.0,-3.6492,-3.6492,0.0,-3.7614,0.0,-3.8766,-3.9245,-3.9394,-3.9424,0.0,0.0,-3.9424,-3.9424,-3.9424,-3.9858,-4.0217,-4.0382,-4.128,-4.1953,-4.2102,-4.2701,-4.303,-4.2817,-4.2763,-4.2693,-4.2613,-4.2717,-4.282,-4.2644,-4.2659,-4.282,-4.282,-4.2915,-4.309,-4.325,-4.3344,-4.3344,-4.3344,-4.3344,-4.3344,-4.3344,-4.3344,-4.3344,-4.3344,-4.3344,-4.3344,-4.3344,-4.3344,-4.3344,-4.3344,-4.3344,-4.3344,-2.5732,-2.5732,-2.5732,-2.5732,-2.5732,-2.5732,-2.5732,-2.5732,-2.5732,-2.5732,-2.5742,-2.6294,-2.722,-2.8495,-2.9681,-3.0866,-3.2052,-3.2064,-3.2426,-3.3081,-3.3081,-3.3081,-3.3081,-3.3081,-3.3081,-3.3081,-3.3081,-3.3081,-3.3081,-3.3081,-3.3081,-3.3081,-3.3081,-3.2918,-3.2616,-3.2604,-3.2754,-3.3081,-3.3081,-3.3326,-3.3797,-3.3797,-3.4145,-3.4835,-3.5301,-3.5947,-3.6771,-3.7302,-3.784,-3.8456,-3.8512,-3.8292,-3.7848,-3.7545,-3.7067,0.0,0.0,0.0,0.0,0.0,0.0,0.0,0.0,0.0,0.0,0.0,-3.8452,-3.8826,-3.92,-3.9424,-3.9424,-3.9424,-3.9424,-3.9424,-3.9424,-3.9424,-3.9424,-4.0008,-4.0516,-4.0816,-4.1743,-4.2476,-4.2761,-4.309,-4.3344,-4.3344,-4.3235,-4.3155,-4.317,-4.317,-4.3155,-4.3155,-4.325,-4.3344,-4.3344,-4.3344,-4.3344,-4.3344,-4.3344,-4.3344,-4.3344,-4.3344,-4.3344,-4.3344,-4.3344,-4.3344,-4.3344,-4.3344,-4.3344,-4.3344,-4.3344,-4.3344,-4.3344,-4.3344,-4.3344,-2.5732,-2.5732,-2.5732,-2.5732,-2.5732,-2.5732,-2.5732,-2.5732,-2.5732,-2.5732,-2.583,-2.722,-2.8402,-2.9498,-3.0855,-3.2052,-3.3081,-3.3081,-3.3081,-3.3081,-3.3081,-3.3081,-3.3081,-3.3081,-3.3081,-3.3081,-3.3081,-3.3081,-3.3081,-3.3081,-3.3081,-3.3081,-3.3081,-3.3081,-3.3081,-3.3081,-3.3081,-3.3081,-3.3167,-3.3641,-3.4594,-3.4677,-3.4875,-3.5164,-3.6057,-3.6296,-3.5841,-3.6711,-3.7297,-3.7404,-3.7404,-3.7449,-3.7524,-3.7449,-3.721,0.0,-3.7165,0.0,0.0,0.0,0.0,0.0,0.0,0.0,0.0,-3.8676,-3.9424,-3.9424,-3.9424,-3.9424,-3.9424,-3.9424,-3.9424,-3.9424,-3.9424,-3.9439,-3.9559,-4.0127,-4.0771,-4.1414,-4.2087,-4.2701,-4.3225,-4.3344,-4.3344,-4.3344,-4.325,-4.3265,-4.3344,-4.3265,-4.3265,-4.3344,-4.3344,-4.3344,-4.3344,-4.3344,-4.3344,-4.3344,-4.3344,-4.3344,-4.3344,-4.3344,-4.3344,-4.3344,-4.3344,-4.3344,-4.3344,-4.3344,-4.3344,-4.3344,-4.3344,-4.3344,-4.3344,-4.3344,-4.3344,-2.5732,-2.5732,-2.5732,-2.5732,-2.5732,-2.5732,-2.5732,-2.5732,-2.5732,-2.5732,-2.5917,-2.8038,-2.9223,-2.959,-3.1777,-3.2884,-3.3081,-3.3081,-3.3081,-3.3081,-3.3081,-3.3081,-3.3081,-3.3081,-3.3081,-3.3081,-3.3081,-3.3081,-3.3081,-3.3081,-3.3081,-3.3081,-3.3081,-3.3081,-3.3081,0.0,0.0,0.0,-3.3398,-3.381,-3.423,-3.4716,-3.5224,-3.5809,-3.616,0.0,-3.6895,-3.7075,-3.7297,-3.7404,-3.7404,0.0,0.0,0.0,0.0,0.0,0.0,0.0,0.0,0.0,0.0,0.0,-3.7913,-3.8197,-3.8227,-3.8945,-3.9424,-3.9424,-3.9424,-3.9424,-3.9424,-3.9424,-3.9424,-3.9424,-3.9424,-3.9634,-4.0157,-4.0801,-4.1444,-4.2102,-4.2746,-4.318,-4.3299,-4.3344,-4.3344,-4.3344,-4.3344,-4.3344,-4.3344,-4.3344,-4.3344,-4.3344,-4.3344,-4.3344,-4.3344,-4.3344,-4.3344,-4.3344,-4.3344,-4.3344,-4.3344,-4.3344,-4.3344,-4.3344,-4.3344,-4.3344,-4.3344,-4.3344,-4.3344,-4.3344,-4.3344,-4.3344,-4.3344,-4.3344,-4.3344,-2.5732,0.0,-2.5732,-2.5732,0.0,-2.5732,-2.5732,-2.5732,-2.5732,-2.5732,-2.583,-2.8308,-2.9396,-2.9498,-3.1977,-3.3081,-3.3081,-3.3081,-3.3081,-3.3081,-3.3081,-3.3081,-3.3081,-3.3081,-3.3081,-3.3081,-3.3081,-3.3081,-3.3081,-3.3081,-3.3081,-3.3081,-3.3081,-3.3398,-3.3869,-3.4428,-3.4415,-3.3882,-3.4568,-3.521,-3.5883,-3.6188,-3.6613,-3.7024,0.0,0.0,0.0,0.0,0.0,0.0,0.0,0.0,0.0,0.0,0.0,-3.7898,-3.8212,-3.8242,-3.7943,-3.8227,-3.8407,-3.8422,-3.8706,-3.8901,-3.8901,-3.9215,-3.9424,-3.9424,-3.9424,-3.9424,-3.9424,-3.9424,-3.9424,-3.9424,-3.9424,-3.9679,-4.0322,-4.098,-4.1624,-4.2282,-4.2925,-4.3344,-4.3344,-4.3344,-4.3344,-4.3344,-4.3344,-4.3344,-4.3344,-4.3344,-4.3344,-4.3344,-4.3344,-4.3344,-4.3344,-4.3344,-4.3344,-4.3344,-4.3344,-4.3344,-4.3344,-4.3344,-4.3344,-4.3344,-4.3344,-4.3344,-4.3344,-4.3344,-4.3344,-4.3344,-4.3344,-4.3344,-4.3344,-4.3344,-4.3344,-2.5732,-2.5732,-2.5732,-2.5732,-2.5732,-2.5732,-2.5732,-2.5732,0.0,0.0,0.0,-2.8308,-2.9396,-2.9579,-3.1977,-3.3081,-3.3081,-3.3081,-3.3081,-3.3081,-3.3081,-3.3081,-3.3081,-3.3081,-3.3081,-3.3081,-3.3081,-3.3081,-3.3081,-3.3081,-3.324,-3.3398,-3.3398,-3.3966,-3.4966,-3.5987,-3.6067,-3.5305,-3.5987,-3.6774,-3.7677,-3.7829,-3.7928,-3.8083,-3.8139,-3.7842,-3.7189,-3.7174,-3.7297,-3.7404,-3.7404,-3.7464,-3.7599,-3.8093,-3.8197,-3.7853,-3.8796,-3.917,-3.8631,-3.9095,-3.9424,-3.9424,-3.9424,-3.9424,-3.9424,-3.9424,-3.9424,-3.9424,-3.9424,-3.9424,-3.9424,-3.9424,-3.9424,-3.9424,-3.9424,-3.9723,-4.0472,-4.104,-4.1683,-4.2417,-4.3015,-4.3344,-4.3344,-4.3344,-4.3344,-4.3344,-4.3344,-4.3344,-4.3344,-4.3344,-4.3344,-4.3344,-4.3344,-4.3344,-4.3344,-4.3344,-4.3344,-4.3344,-4.3344,-4.3344,-4.3344,-4.3344,-4.3344,-4.3344,-4.3344,-4.3344,-4.3344,-4.3344,-4.3344,-4.3344,-4.3344,-4.3344,-4.3344,-4.3344,-4.3344,-2.5732,-2.5732,-2.5732,-2.5732,-2.5732,-2.5732,-2.5732,-2.5732,-2.5732,-2.5732,-2.582,-2.8308,-2.9396,-2.9498,-3.1965,-3.3081,-3.3081,-3.3081,-3.3081,0.0,-3.3081,-3.3081,-3.3081,-3.3081,-3.3081,-3.3081,-3.3081,-3.3081,-3.3081,-3.3081,-3.3556,-3.4345,-3.4511,-3.4966,-3.5974,-3.7021,-3.751,-3.7357,-3.6972,-3.6958,-3.7281,-3.7872,-3.7972,-3.7681,-3.7868,-3.7701,-3.7189,-3.7189,-3.7297,-3.7404,-3.7404,-3.7659,-3.8227,-3.8347,-3.8601,-3.9095,-3.932,-3.9379,-3.9275,-3.9364,-3.9424,-3.9424,-3.9424,-3.9424,-3.9424,-3.9424,-3.9424,-3.9424,-3.9424,-3.9424,-3.9424,-3.9424,-3.9424,-3.9424,-3.9424,-3.9888,-4.1055,-4.1294,-4.1848,-4.2985,-4.3269,-4.3344,-4.3344,-4.3344,-4.3344,-4.3344,-4.3344,-4.3344,-4.3344,-4.3344,-4.3344,-4.3344,-4.3344,-4.3344,-4.3344,-4.3344,-4.3344,-4.3344,-4.3344,-4.3344,-4.3344,-4.3344,-4.3344,-4.3344,-4.3344,-4.3344,-4.3344,-4.3344,-4.3344,-4.3344,-4.3344,-4.3344,-4.3374,-4.3468,-4.3438,-2.5732,-2.5732,-2.5732,-2.5732,-2.5732,-2.5732,-2.5732,-2.5732,-2.5732,-2.5732,-2.5917,-2.8308,-2.9396,-2.959,-3.1977,-3.3081,-3.3081,-3.3081,-3.3081,-3.3081,-3.3081,-3.3081,-3.3081,-3.3081,-3.3081,-3.3081,-3.3081,-3.3081,-3.3081,-3.3081,-3.3641,-3.4746,-3.5775,-3.6632,-3.7098,-3.8144,-3.8694,-3.8708,-3.8397,-3.8308,-3.8383,-3.8723,-3.8752,-3.8616,-3.8689,-3.8627,-3.84,-3.837,-3.8441,-3.8497,-3.8497,-3.8631,-3.8931,-3.896,-3.908,-3.9394,-3.9424,-3.9424,-3.9424,-3.9424,-3.9424,-3.9424,-3.9424,-3.9424,-3.9424,-3.9424,-3.9424,-3.9424,-3.9424,-3.9424,-3.9424,-3.9424,-3.9424,-3.9424,-3.9424,-3.9963,-4.11,-4.1384,-4.1908,-4.3075,-4.3344,-4.3344,-4.3344,-4.3344,-4.3344,-4.3344,-4.3344,-4.3344,-4.3344,-4.3344,-4.3344,-4.3344,-4.3344,-4.3344,-4.3344,-4.3344,-4.3344,-4.3344,-4.3344,-4.3344,-4.3344,-4.3344,-4.3344,-4.3344,-4.3344,-4.3344,-4.3344,-4.3344,-4.3344,-4.3344,-4.3344,-4.3419,-4.3912,-4.4478,-4.445,-2.5732,-2.5732,-2.5732,-2.5732,-2.5732,-2.5732,-2.5732,-2.5732,-2.5732,-2.5732,-2.6004,-2.8297,-2.9396,-2.9681,-3.1977,-3.3081,-3.3081,-3.3081,-3.3081,-3.3081,-3.3081,-3.3081,-3.3081,-3.3081,-3.3081,-3.3081,-3.3081,-3.3081,-3.3081,-3.3081,-3.3784,-3.5129,-3.7112,-3.8144,-3.8144,-3.9017,-3.9424,-3.9424,-3.9424,-3.9424,-3.9424,-3.9424,-3.9424,-3.9424,-3.9424,-3.9424,-3.9424,-3.9424,-3.9424,-3.9424,-3.9424,-3.9424,-3.9424,-3.9424,-3.9424,-3.9424,-3.9424,-3.9424,-3.9424,-3.9424,-3.9424,-3.9424,-3.9424,-3.9424,-3.9424,-3.9424,-3.9424,-3.9424,-3.9424,-3.9424,-3.9424,-3.9424,-3.9424,-3.9424,-3.9424,-3.9946,-4.1203,-4.1504,-4.2077,-4.3334,-4.3684,-4.3791,-4.3866,-4.3771,-4.3551,-4.3329,-4.3344,-4.3344,-4.3344,-4.3344,-4.3344,-4.3344,-4.3344,-4.3344,-4.3344,-4.3344,-4.3344,-4.3344,-4.3344,-4.3344,-4.3344,-4.3344,-4.3344,-4.3344,-4.3344,-4.3344,-4.3344,-4.3344,-4.3344,-4.3344,-4.3344,-4.3623,-4.4491,-4.5394,-4.5714,-2.5732,-2.5732,-2.5732,-2.5732,-2.5732,-2.5732,-2.5732,-2.5732,-2.5732,-2.5732,-2.5917,-2.8308,-2.9396,-2.9761,-3.1977,-3.3081,-3.3081,-3.3081,-3.3081,-3.3081,-3.3081,-3.3081,-3.3081,-3.3081,-3.3081,-3.3081,-3.3081,-3.3154,-3.324,-3.324,-3.4165,-3.6132,-3.8204,-3.9192,-3.9265,-3.9337,-3.9424,-3.9424,-3.9424,-3.9424,-3.9424,-3.9424,-3.9424,-3.9424,-3.9424,-3.9424,-3.9424,-3.9424,-3.9424,-3.9424,-3.9424,-3.9424,-3.9424,-3.9424,-3.9424,-3.9424,-3.9424,-3.9424,-3.9424,-3.9424,-3.9424,-3.9424,-3.9424,-3.9424,-3.9424,-3.9424,-3.9424,-3.9424,-3.9424,-3.9424,-3.9424,-3.9424,-3.9424,-3.9553,-3.9481,-3.9983,-4.1377,-4.1641,-4.249,-4.4668,-4.4685,-4.5119,-4.5333,-4.4892,-4.4251,-4.3467,-4.3374,-4.3434,-4.3509,-4.3524,-4.3524,-4.3427,-4.3314,-4.3299,-4.3314,-4.3344,-4.3344,-4.3344,-4.3344,-4.3344,-4.3344,-4.3344,-4.3344,-4.3344,-4.3409,-4.3488,-4.3409,-4.3344,-4.3453,-4.3758,-4.3792,-4.375,-4.4648,-4.5723,-4.6143,-2.5732,-2.5732,-2.5732,-2.5732,-2.5732,-2.5732,-2.5732,-2.5732,-2.5732,-2.5732,-2.6014,-2.8308,-2.9396,-2.959,-3.1977,-3.3081,-3.3081,-3.3081,-3.3081,-3.3081,-3.3081,-3.3081,-3.3081,-3.3081,-3.3081,-3.3081,-3.3081,-3.3398,-3.4178,-3.5292,-3.6318,-3.7175,-3.8694,-3.9424,-3.9424,-3.9424,-3.9424,-3.9424,-3.9424,-3.9424,-3.9424,-3.9424,-3.9424,-3.9424,-3.9424,-3.9424,-3.9424,-3.9424,-3.9424,-3.9424,-3.9424,-3.9424,-3.9424,-3.9424,-3.9424,-3.9424,-3.9424,-3.9424,-3.9424,-3.9424,-3.9424,-3.9424,-3.9424,-3.9424,-3.9424,-3.9864,-4.0185,-4.0115,-3.9737,-3.9424,-3.9424,-3.9424,-3.961,-4.0045,-4.0185,-4.0763,-4.2307,-4.2453,-4.3067,-4.4229,-4.4457,-4.4553,-4.4793,-4.4611,-4.4189,-4.3759,-4.3718,-4.3816,-4.4215,-4.4382,-4.4398,-4.4398,-4.4382,-4.4004,-4.3542,-4.3344,-4.3314,-4.3314,-4.3344,-4.3344,-4.3349,-4.3329,-4.3344,-4.3299,-4.3758,-4.4052,-4.422,-4.4695,-4.5018,-4.4925,-4.5504,-4.599,-4.639,-4.7191,-4.7736,-2.5732,-2.5732,-2.5732,-2.5732,-2.5732,-2.5732,-2.5732,-2.5732,-2.5732,-2.5927,-2.6476,-2.8495,-2.9579,-3.0135,-3.2152,-3.3081,-3.3081,-3.3081,-3.3081,-3.3081,-3.3081,-3.3081,-3.3081,-3.3081,-3.3081,-3.3081,-3.3081,-3.3628,-3.4828,-3.6489,-3.751,-3.7904,-3.8855,-3.9424,-3.9424,-3.9424,-3.9424,-3.9424,-3.9424,-3.9424,-3.9424,-3.9424,-3.9424,-3.9424,-3.9424,-3.9424,-3.9424,-3.9424,-3.9424,-3.9424,-3.9424,-3.9424,-3.9424,-3.9424,-3.9424,-3.9424,-3.9424,-3.9424,-3.9424,-3.9424,-3.9481,-3.9737,-3.9737,-3.9864,-4.0185,-4.069,-4.1013,-4.1013,-4.0447,-4.02,-4.013,-4.013,-4.0378,-4.0946,-4.108,-4.1633,-4.2864,-4.3089,-4.3412,-4.4269,-4.4626,-4.4431,-4.4395,-4.4425,-4.4407,-4.4054,-4.4022,-4.4154,-4.4649,-4.4724,-4.4724,-4.4793,-4.4777,-4.4409,-4.3683,-4.3532,-4.3503,-4.3503,-4.3548,-4.3517,-4.3503,-4.3488,-4.3472,-4.3673,-4.4278,-4.4471,-4.4252,-4.5022,-4.5618,-4.5806,-4.6288,-4.6843,-4.6531,-4.7688,-4.8203,-2.5732,-2.5732,-2.5732,-2.5732,-2.5732,-2.5732,-2.5732,-2.5732,-2.5732,-2.639,-2.7494,-2.8762,-3.0045,-3.1134,-3.2513,-3.3081,-3.3081,-3.3081,-3.3081,-3.3081,-3.3081,-3.3081,-3.3081,-3.3081,-3.3081,-3.3167,-3.324,-3.3797,-3.4828,-3.5908,-3.6774,-3.7829,-3.887,-3.9424,-3.9424,-3.9424,-3.9424,-3.9424,-3.9424,-3.9424,-3.9424,-3.9424,-3.9424,-3.9424,-3.9424,-3.9424,-3.9424,-3.9424,-3.9424,-3.9424,-3.9424,-3.9424,-3.9424,-3.9424,-3.9424,-3.9424,-3.9424,-3.9424,-3.9424,-3.9424,-3.9737,-4.0432,-4.0569,-4.0946,-4.1559,-4.1804,-4.1933,-4.1933,-4.1933,-4.1869,-4.1853,-4.1674,-4.1739,-4.1933,-4.1917,-4.2364,-4.3235,-4.341,-4.4019,-4.511,-4.5354,-4.5223,-4.525,-4.5368,-4.4804,-4.425,-4.3997,-4.4113,-4.4278,-4.4209,-4.4276,-4.4276,-4.4276,-4.409,-4.3986,-4.3819,-4.388,-4.3857,-4.382,-4.3955,-4.3965,-4.3986,-4.3981,-4.4013,-4.4257,-4.4273,-4.4134,-4.4218,-4.4613,-4.4953,-4.5538,-4.595,-4.6394,-4.6541,-4.7031,-2.5732,-2.5732,-2.5732,-2.5732,-2.5732,-2.5732,-2.5732,-2.5732,-2.5732,-2.639,-2.7683,-2.8866,-3.0033,-3.1235,-3.2513,-3.3081,-3.3081,-3.3081,-3.3081,-3.3081,-3.3081,-3.3081,-3.3081,-3.3081,-3.3081,-3.324,-3.3797,-3.4979,-3.6646,-3.7738,-3.8457,-3.8767,-3.9192,-3.9424,-3.9424,-3.9424,-3.9424,-3.9424,-3.9424,-3.9424,-3.9424,-3.9424,-3.9424,-3.9424,-3.9424,-3.9424,-3.9424,-3.9424,-3.9424,-3.9424,-3.9424,-3.9424,-3.9424,-3.9424,-3.9424,-3.9424,-3.9424,-3.9424,-3.9424,-3.9424,-3.9809,-4.0554,-4.069,-4.1147,-4.1869,-4.2458,-4.2831,-4.2892,-4.335,-4.3604,-4.341,-4.2707,-4.2252,-4.2707,-4.2847,-4.3169,-4.3873,-4.4138,-4.4387,-4.4868,-4.4993,-4.498,-4.4968,-4.4926,-4.4775,-4.4461,-4.4401,-4.4572,-4.4998,-4.5097,-4.4958,-4.5036,-4.5097,-4.4931,-4.4401,-4.4107,-4.3974,-4.3974,-4.4006,-4.399,-4.4029,-4.4067,-4.4048,-4.4168,-4.4333,-4.4642,-4.461,-4.4976,-4.5055,-4.5371,-4.5881,-4.5688,-4.6327,-4.6321,-4.6523,-2.5732,-2.5732,-2.5732,-2.5732,-2.5732,-2.5732,-2.5732,-2.5732,-2.611,-2.703,-2.8215,-2.9487,-3.0676,-3.1777,-3.2711,-3.3081,-3.3081,-3.3081,-3.3081,-3.3081,-3.3081,-3.3081,-3.3081,-3.3081,-3.3081,-3.324,-3.4178,-3.5628,-3.719,-3.8383,-3.9031,-3.9337,-3.9424,-3.9424,-3.9424,-3.9424,-3.9424,-3.9424,-3.9424,-3.9424,-3.9424,-3.9424,-3.9424,-3.9424,-3.9424,-3.9424,-3.9424,-3.9424,-3.9424,-3.9424,-3.9424,-3.9424,-3.9424,-3.9424,-3.9424,-3.9424,-3.9424,-3.9553,-3.9793,-3.9778,-4.0309,-4.1412,-4.1593,-4.1933,-4.2769,-4.3366,-4.368,-4.3873,-4.4196,-4.457,-4.4384,-4.3545,-4.3092,-4.3621,-4.3756,-4.3948,-4.4514,-4.457,-4.457,-4.4604,-4.4621,-4.4604,-4.457,-4.4587,-4.4621,-4.457,-4.457,-4.484,-4.5213,-4.5348,-4.5331,-4.5331,-4.5199,-4.4973,-4.4646,-4.4346,-4.4289,-4.4259,-4.4248,-4.4187,-4.4172,-4.414,-4.4188,-4.4331,-4.4568,-4.4941,-4.5324,-4.574,-4.5966,-4.6109,-4.5771,-4.5351,-4.5703,-4.5886,-4.5977,-2.5732,-2.5732,-2.5732,-2.5732,-2.5732,-2.5732,-2.5732,-2.5917,-2.6935,-2.8049,-2.9223,-3.0586,-3.1689,-3.2797,-3.3081,-3.3081,-3.3081,-3.3081,-3.3081,-3.3081,-3.3081,-3.3081,-3.3081,-3.3081,-3.3313,-3.3471,-3.4249,-3.5319,-3.6521,-3.7491,-3.8341,-3.916,-3.923,-3.9155,-3.9349,-3.92,-3.929,-3.9245,-3.92,-3.9275,-3.9394,-3.9305,-3.932,-3.9349,-3.9394,-3.9424,-3.9424,-3.9424,-3.9424,-3.9424,-3.9424,-3.9424,-3.9424,-3.9424,-3.9424,-3.9424,-3.9424,-3.9793,-4.0432,-4.0569,-4.128,-4.252,-4.3125,-4.3366,-4.4121,-4.4384,-4.444,-4.444,-4.4497,-4.457,-4.457,-4.444,-4.4384,-4.4553,-4.444,-4.4514,-4.457,-4.457,-4.457,-4.457,-4.457,-4.457,-4.457,-4.457,-4.457,-4.457,-4.457,-4.4604,-4.4722,-4.4773,-4.4654,-4.4654,-4.4756,-4.4739,-4.4637,-4.4587,-4.4564,-4.4558,-4.4522,-4.4482,-4.4423,-4.4456,-4.4404,-4.4506,-4.4464,-4.485,-4.4867,-4.5139,-4.5094,-4.5134,-4.488,-4.497,-4.5106,-4.5224,-4.5055,-2.5732,-2.5732,-2.5732,-2.5732,-2.5732,-2.5732,-2.5732,-2.582,-2.703,-2.8319,-2.9498,-3.0676,-3.1865,-3.2884,-3.3081,-3.3081,-3.3081,-3.3081,-3.3081,-3.3081,-3.3081,-3.3081,-3.3081,-3.3081,-3.3869,-3.4967,-3.5101,-3.6004,-3.7375,-3.7575,-3.7723,-3.7963,-3.8063,-3.8048,-3.8093,-3.8033,-3.8033,-3.8033,-3.8048,-3.8033,-3.8093,-3.8497,-3.8706,-3.8766,-3.917,-3.9424,-3.9424,-3.9424,-3.9424,-3.9424,-3.9424,-3.9424,-3.9424,-3.9424,-3.9424,-3.9424,-3.9424,-3.9481,-3.9809,-4.0432,-4.128,-4.2252,-4.2986,-4.368,-4.444,-4.457,-4.457,-4.457,-4.457,-4.457,-4.457,-4.457,-4.457,-4.457,-4.457,-4.457,-4.457,-4.457,-4.457,-4.457,-4.457,-4.457,-4.457,-4.457,-4.457,-4.457,-4.457,-4.457,-4.457,-4.457,-4.457,-4.457,-4.457,-4.457,-4.457,-4.457,-4.457,-4.457,-4.457,-4.457,-4.457,-4.457,-4.457,-4.457,-4.457,-4.457,-4.457,-4.457,-4.457,-4.457,-4.471,-4.471,-4.4587,-4.457,-4.457,-2.5732,-2.5732,-2.5732,-2.5732,-2.5732,-2.5732,-2.5732,-2.5917,-2.704,-2.8319,-2.9487,-3.0676,-3.1865,-3.2896,-3.3081,-3.3081,-3.3081,-3.3081,-3.3081,-3.3081,-3.3081,-3.3081,-3.3031,-3.283,-3.363,-3.4994,-3.5041,-3.584,-3.7411,-3.7421,-3.7404,-3.7404,-3.7404,-3.7434,-3.7404,-3.7404,-3.7404,-3.7404,-3.7419,-3.7404,-3.7479,-3.7808,-3.8018,-3.8093,-3.8452,-3.8781,-3.9005,-3.9035,-3.917,-3.9364,-3.9424,-3.9424,-3.9424,-3.9666,-3.9864,-3.9935,-4.0185,-4.0516,-4.0842,-4.1478,-4.2062,-4.2892,-4.3486,-4.3989,-4.4497,-4.457,-4.457,-4.457,-4.457,-4.457,-4.457,-4.457,-4.457,-4.457,-4.457,-4.457,-4.457,-4.457,-4.457,-4.457,-4.457,-4.457,-4.457,-4.457,-4.457,-4.457,-4.457,-4.457,-4.457,-4.457,-4.457,-4.457,-4.457,-4.457,-4.457,-4.457,-4.457,-4.457,-4.457,-4.457,-4.457,-4.457,-4.457,-4.457,-4.457,-4.457,-4.457,-4.457,-4.457,-4.457,-4.457,-4.457,-4.457,-4.457,-4.457,-2.5732,-2.5732,-2.5732,-2.5732,-2.5732,-2.5732,-2.5732,-2.5917,-2.703,-2.8319,-2.9498,-3.0676,-3.1877,-3.2896,-3.3081,-3.3081,-3.3068,-3.2968,-3.2943,-3.293,-3.2893,-3.2842,-3.2855,-3.2571,-3.3036,-3.3967,-3.4347,-3.5057,-3.6256,-3.6823,-3.73,-3.7135,-3.7105,-3.7255,-3.7105,-3.7255,-3.715,-3.7105,-3.718,-3.7165,-3.7195,-3.7345,-3.736,-3.736,-3.7509,-3.7808,-3.8257,-3.8437,-3.8837,-3.9376,-3.961,-3.9681,-3.9737,-4.0378,-4.0758,-4.0826,-4.1543,-4.2125,-4.2909,-4.2909,-4.335,-4.3989,-4.431,-4.457,-4.457,-4.457,-4.457,-4.457,-4.457,-4.457,-4.457,-4.457,-4.457,-4.457,-4.457,-4.457,-4.457,-4.457,-4.457,-4.457,-4.457,-4.457,-4.457,-4.457,-4.457,-4.457,-4.457,-4.457,-4.457,-4.457,-4.457,-4.457,-4.457,-4.457,-4.457,-4.457,-4.457,-4.457,-4.457,-4.457,-4.457,-4.457,-4.457,-4.457,-4.457,-4.457,-4.457,-4.457,-4.457,-4.457,-4.457,-4.457,-4.457,-4.457,-4.457,-2.5732,-2.5732,-2.5732,-2.5732,-2.5732,-2.5732,-2.5732,-2.583,-2.703,-2.8319,-2.9498,-3.0676,-3.1865,-3.3068,-3.3068,-3.3081,-3.293,-3.2616,-3.2453,-3.2365,-3.2001,-3.2102,-3.242,-3.2577,-3.312,-3.4113,-3.444,-3.5336,-3.6251,-3.6164,-3.6088,-3.6013,-3.6118,-3.6058,-3.5998,-3.6073,-3.6013,-3.5998,-3.6013,-3.6043,-3.6133,-3.6522,-3.6716,-3.6776,-3.7135,-3.7434,-3.7704,-3.8138,-3.9013,-4.0232,-4.0378,-4.0706,-4.1095,-4.1478,-4.1609,-4.1723,-4.1917,-4.2125,-4.2442,-4.297,-4.3426,-4.3621,-4.4327,-4.457,-4.457,-4.457,-4.457,-4.457,-4.457,-4.457,-4.457,-4.457,-4.457,-4.457,-4.457,-4.457,-4.457,-4.457,-4.457,-4.457,-4.457,-4.457,-4.457,-4.457,-4.457,-4.457,-4.457,-4.457,-4.457,-4.457,-4.457,-4.457,-4.457,-4.457,-4.457,-4.457,-4.457,-4.457,-4.457,-4.457,-4.457,-4.457,-4.457,-4.457,-4.457,-4.457,-4.457,-4.457,-4.457,-4.457,-4.457,-4.457,-4.457,-4.457,-4.457,-2.5732,-2.5732,-2.5732,-2.5732,-2.5732,-2.5732,-2.5732,-2.5917,-2.703,-2.8319,-2.9498,-3.0676,-3.1731,-3.2644,-3.2717,-3.2566,-3.234,-3.2026,-3.1876,-3.1775,-3.1336,-3.1399,-3.1776,-3.1999,-3.2616,-3.3872,-3.3956,-3.4715,-3.58,-3.5669,-3.5519,-3.5549,-3.5489,-3.5489,-3.5564,-3.5489,-3.5489,-3.5519,-3.5489,-3.5489,-3.5549,-3.5863,-3.6028,-3.6118,-3.6462,-3.6701,-3.703,-3.7956,-3.8933,-3.9635,-3.9986,-4.0569,-4.1396,-4.1804,-4.2125,-4.2442,-4.2831,-4.3092,-4.3152,-4.3621,-4.3814,-4.3931,-4.4367,-4.4497,-4.457,-4.457,-4.457,-4.457,-4.457,-4.457,-4.457,-4.457,-4.457,-4.457,-4.457,-4.457,-4.457,-4.457,-4.457,-4.457,-4.457,-4.457,-4.457,-4.457,-4.457,-4.457,-4.457,-4.457,-4.457,-4.457,-4.457,-4.457,-4.457,-4.457,-4.457,-4.457,-4.457,-4.457,-4.457,-4.457,-4.457,-4.457,-4.457,-4.457,-4.457,-4.457,-4.457,-4.457,-4.457,-4.457,-4.457,-4.457,-4.457,-4.457,-4.457,-2.5732,-2.5732,-2.5732,-2.5732,-2.5723,-2.5684,-2.5625,-2.5828,-2.6835,-2.8,-2.9251,-3.0477,-3.1331,-3.2127,-3.2127,-3.1876,-3.1461,-3.1386,-3.1235,-3.106,-3.0771,-3.0771,-3.1115,-3.1304,-3.2199,-3.3412,-3.3056,-3.4088,-3.5236,-3.5534,-3.5504,-3.5489,-3.5489,-3.5489,-3.5489,-3.5489,-3.5489,-3.5489,-3.5489,-3.5489,-3.5489,-3.5594,-3.5624,-3.5639,-3.5654,-3.5938,-3.6601,-3.7476,-3.8335,-3.8331,-3.9094,-4.0245,-4.1044,-4.1853,-4.2518,-4.335,-4.3989,-4.4367,-4.4497,-4.4384,-4.4514,-4.4497,-4.4497,-4.457,-4.457,-4.457,-4.457,-4.457,-4.457,-4.457,-4.457,-4.457,-4.457,-4.457,-4.457,-4.457,-4.457,-4.457,-4.457,-4.457,-4.457,-4.457,-4.457,-4.457,-4.457,-4.457,-4.457,-4.457,-4.457,-4.457,-4.457,-4.457,-4.457,-4.457,-4.457,-4.457,-4.457,-4.457,-4.457,-4.457,-4.457,-4.457,-4.457,-4.457,-4.457,-4.457,-4.457,-4.457,-4.457,-4.457,-4.457,-4.457,-4.457,-4.457,-4.457,-2.5732,-2.5732,-2.5732,-2.5732,-2.5674,-2.5371,-2.5215,-2.5281,-2.6136,-2.7284,-2.8363,-2.9495,-3.0567,-3.1574,-3.1562,-3.1486,-3.1248,-3.0934,-3.057,-3.0131,-3.0055,-3.0018,-3.052,-3.1395,-3.2698,-3.3717,-3.4578,-3.5082,-3.5439,-3.5489,-3.5489,-3.5489,-3.5489,-3.5489,-3.5489,-3.5489,-3.5489,-3.5489,-3.5489,-3.5489,-3.5489,-3.5489,-3.5489,-3.5489,-3.5489,-3.5564,-3.5789,-3.6526,-3.7218,-3.8067,-3.9564,-4.1047,-4.2209,-4.2725,-4.3297,-4.392,-4.4333,-4.4536,-4.457,-4.457,-4.457,-4.457,-4.457,-4.457,-4.457,-4.457,-4.457,-4.457,-4.457,-4.457,-4.457,-4.457,-4.457,-4.457,-4.457,-4.457,-4.457,-4.457,-4.457,-4.457,-4.457,-4.457,-4.457,-4.457,-4.457,-4.457,-4.457,-4.457,-4.457,-4.457,-4.457,-4.457,-4.457,-4.457,-4.457,-4.457,-4.457,-4.457,-4.457,-4.457,-4.457,-4.4418,-4.4367,-4.4451,-4.457,-4.457,-4.457,-4.457,-4.457,-4.457,-4.457,-4.457,-4.457,-4.457,-4.457,-2.5303,-2.5127,-2.5117,-2.5117,-2.5078,-2.4873,-2.4766,-2.5079,-2.6399,-2.7327,-2.8189,-2.9665,-3.0651,-3.1035,-3.1009,-3.0909,-3.0633,-3.0382,-3.0093,-2.9854,-2.9869,-3.0292,-3.1206,-3.1974,-3.2961,-3.3463,-3.4245,-3.4986,-3.5359,-3.5489,-3.5489,-3.5489,-3.5489,-3.5489,-3.5489,-3.5489,-3.5489,-3.5489,-3.5489,-3.5489,-3.5489,-3.5489,-3.5489,-3.5489,-3.5489,-3.5619,-3.6067,-3.6753,-3.7512,-3.8355,-3.9713,-4.1067,-4.2005,-4.2295,-4.2864,-4.3804,-4.4028,-4.4265,-4.4434,-4.457,-4.457,-4.457,-4.457,-4.457,-4.457,-4.457,-4.457,-4.457,-4.457,-4.457,-4.457,-4.457,-4.457,-4.457,-4.457,-4.457,-4.457,-4.457,-4.457,-4.457,-4.457,-4.457,-4.457,-4.457,-4.457,-4.457,-4.457,-4.457,-4.457,-4.457,-4.457,-4.457,-4.457,-4.457,-4.457,-4.457,-4.457,-4.457,-4.457,-4.457,-4.457,-4.435,-4.4113,-4.4231,-4.4384,-4.4553,-4.457,-4.457,-4.4451,-4.4536,-4.4536,-4.4553,-4.4519,-4.4434,-4.4468,-2.4746,-2.4424,-2.4424,-2.4424,-2.4414,-2.4355,-2.4326,-2.4673,-2.6691,-2.7506,-2.8123,-3.0104,-3.0691,-3.0557,-3.0495,-3.0206,-2.9942,-2.9842,-2.9817,-2.9804,-2.9779,-3.0419,-3.1549,-3.2177,-3.2678,-3.2749,-3.3973,-3.4839,-3.5344,-3.5489,-3.5489,-3.5489,-3.5489,-3.5489,-3.5489,-3.5489,-3.5489,-3.5489,-3.5489,-3.5489,-3.5489,-3.5489,-3.5489,-3.5504,-3.5718,-3.6006,-3.6569,-3.7282,-3.8084,-3.8854,-3.9542,-4.0174,-4.074,-4.112,-4.1621,-4.3111,-4.325,-4.3589,-4.4113,-4.4316,-4.435,-4.4502,-4.457,-4.457,-4.457,-4.457,-4.457,-4.457,-4.457,-4.457,-4.457,-4.457,-4.457,-4.457,-4.457,-4.457,-4.457,-4.457,-4.457,-4.457,-4.457,-4.457,-4.457,-4.457,-4.457,-4.4553,-4.4536,-4.4519,-4.4485,-4.4519,-4.4485,-4.4553,-4.457,-4.4248,-4.4181,-4.3741,-4.3842,-4.3961,-4.4096,-4.4096,-4.4079,-4.3707,-4.3453,-4.3961,-4.4164,-4.4164,-4.4012,-4.3758,-4.3826,-4.4231,-4.4113,-4.3724,-4.3859,-4.4198,-4.4164,-2.4482,-2.4424,-2.4424,-2.4414,-2.4355,-2.4043,-2.3896,-2.4257,-2.5926,-2.6729,-2.7096,-2.9071,-3.0002,-2.9967,-2.993,-2.9854,-2.9804,-2.9779,-2.9779,-2.9779,-2.9779,-3.0279,-3.0921,-3.2105,-3.2593,-3.3115,-3.4192,-3.5279,-3.5424,-3.5489,-3.5489,-3.5489,-3.5489,-3.5489,-3.5489,-3.5489,-3.5489,-3.5489,-3.5489,-3.5489,-3.5489,-3.5489,-3.5489,-3.5569,-3.6006,-3.6446,-3.6737,-3.7381,-3.8133,-3.8799,-3.9016,-3.9534,-4.0215,-4.0807,-4.1536,-4.2233,-4.2489,-4.2811,-4.347,-4.3623,-4.3961,-4.4367,-4.4485,-4.4502,-4.4519,-4.457,-4.457,-4.457,-4.457,-4.457,-4.457,-4.4485,-4.4536,-4.4536,-4.4418,-4.4401,-4.4418,-4.4384,-4.4333,-4.4231,-4.435,-4.4384,-4.4181,-4.4062,-4.4028,-4.3978,-4.3995,-4.4028,-4.4062,-4.4181,-4.4316,-4.4434,-4.457,-4.4113,-4.369,-4.3064,-4.276,-4.2895,-4.298,-4.2997,-4.2912,-4.2675,-4.2726,-4.3098,-4.3166,-4.3014,-4.2895,-4.2912,-4.301,-4.3242,-4.301,-4.2743,-4.3017,-4.3308,-4.3064,-2.3955,-2.376,-2.376,-2.376,-2.3711,-2.3555,-2.3457,-2.3673,-2.4988,-2.5975,-2.6801,-2.8199,-2.9275,-2.9624,-2.9779,-2.9779,-2.9779,-2.9779,-2.9779,-2.9779,-2.9779,-3.0419,-3.1057,-3.2249,-3.3185,-3.4041,-3.5067,-3.5489,-3.5489,-3.5489,-3.5489,-3.5489,-3.5489,-3.5489,-3.5489,-3.5489,-3.5489,-3.5489,-3.5489,-3.5489,-3.5489,-3.5489,-3.5489,-3.5733,-3.6228,-3.6798,-3.7338,-3.7962,-3.8761,-3.9385,-3.9542,-3.9731,-4.007,-4.0443,-4.0967,-4.1559,-4.1745,-4.2049,-4.2675,-4.2844,-4.3014,-4.3318,-4.3724,-4.3961,-4.4096,-4.4265,-4.4468,-4.4536,-4.457,-4.457,-4.457,-4.4198,-4.4012,-4.3893,-4.369,-4.3487,-4.3436,-4.3436,-4.347,-4.3555,-4.3656,-4.3555,-4.325,-4.3234,-4.3335,-4.3403,-4.3453,-4.3504,-4.3572,-4.3623,-4.3724,-4.3623,-4.3623,-4.3335,-4.2895,-4.2422,-4.1931,-4.1982,-4.2033,-4.2033,-4.2016,-4.1897,-4.1863,-4.2033,-4.1982,-4.2016,-4.2303,-4.2506,-4.2399,-4.224,-4.2281,-4.2339,-4.2326,-4.2328,-4.2119,-2.3447,-2.3144,-2.3144,-2.3144,-2.3144,-2.3144,-2.3154,-2.3299,-2.4296,-2.5473,-2.6554,-2.7695,-2.8767,-2.9534,-2.9779,-2.9779,-2.9779,-2.9779,-2.9779,-2.9779,-2.9779,-3.0709,-3.1888,-3.2735,-3.3325,-3.4543,-3.5359,-3.5489,-3.5489,-3.5489,-3.5489,-3.5489,-3.5489,-3.5489,-3.5489,-3.5489,-3.5489,-3.5489,-3.5489,-3.5489,-3.5489,-3.5489,-3.5619,-3.5782,-3.6461,-3.7263,-3.7962,-3.8761,-3.9385,-3.985,-4.002,-4.007,-4.007,-4.0087,-4.0358,-4.0849,-4.0984,-4.139,-4.1863,-4.2083,-4.2202,-4.254,-4.2912,-4.3132,-4.3267,-4.3589,-4.3995,-4.413,-4.4045,-4.3961,-4.3792,-4.3521,-4.3267,-4.3098,-4.2726,-4.2354,-4.2472,-4.2506,-4.2439,-4.2557,-4.2794,-4.2794,-4.2574,-4.2658,-4.2828,-4.2828,-4.2878,-4.2828,-4.2861,-4.2743,-4.2726,-4.254,-4.2422,-4.2269,-4.1999,-4.1779,-4.1407,-4.1288,-4.1305,-4.1305,-4.1305,-4.1271,-4.1238,-4.1187,-4.1271,-4.139,-4.1745,-4.1863,-4.1523,-4.1439,-4.1745,-4.1747,-4.1443,-4.1443,-4.1374,-2.3184,-2.3144,-2.3144,-2.3144,-2.3144,-2.3144,-2.3144,-2.3222,-2.4296,-2.5462,-2.6565,-2.7614,-2.8767,-2.9534,-2.9779,-2.9779,-2.9779,-2.9779,-2.9779,-2.9779,-2.9856,-3.0419,-3.1462,-3.2236,-3.3241,-3.4543,-3.5213,-3.5424,-3.5489,-3.5489,-3.5489,-3.5489,-3.5489,-3.5489,-3.5489,-3.5489,-3.5489,-3.5489,-3.5489,-3.5489,-3.5489,-3.5554,-3.5894,-3.6461,-3.7203,-3.7962,-3.8635,-3.9385,-3.9952,-4.002,-4.0087,-4.0087,-4.0087,-4.0087,-4.0138,-4.0189,-4.029,-4.0544,-4.117,-4.1322,-4.1525,-4.1897,-4.232,-4.2405,-4.2608,-4.2642,-4.2828,-4.2574,-4.2642,-4.276,-4.2844,-4.254,-4.2422,-4.2354,-4.2151,-4.2066,-4.21,-4.1677,-4.1593,-4.1491,-4.1677,-4.1965,-4.2016,-4.2185,-4.2337,-4.2303,-4.2269,-4.2185,-4.2066,-4.1897,-4.183,-4.166,-4.1508,-4.1356,-4.1271,-4.1035,-4.0933,-4.0713,-4.0696,-4.0696,-4.0696,-4.0696,-4.0476,-4.046,-4.0595,-4.0663,-4.0832,-4.0781,-4.0476,-4.0578,-4.0899,-4.0696,-4.0358,-4.0392,-4.0663,-2.3144,-2.3144,-2.3144,-2.3144,-2.3144,-2.3144,-2.3144,-2.3299,-2.4296,-2.5462,-2.6554,-2.7602,-2.8767,-2.9611,-2.9779,-2.9779,-2.9779,-2.9779,-2.9779,-2.9779,-2.9934,-3.057,-3.1829,-3.2464,-3.3255,-3.4624,-3.5213,-3.5424,-3.5489,-3.5489,-3.5489,-3.5489,-3.5489,-3.5489,-3.5489,-3.5489,-3.5489,-3.5489,-3.5489,-3.5489,-3.5619,-3.5894,-3.6275,-3.6661,-3.7774,-3.8469,-3.9032,-3.9662,-4.007,-4.0087,-4.0087,-4.0087,-4.0087,-4.0087,-4.0087,-4.0087,-4.0087,-4.0257,-4.051,-4.0561,-4.0815,-4.1068,-4.1441,-4.1863,-4.2134,-4.2236,-4.2236,-4.232,-4.2303,-4.2252,-4.2117,-4.1897,-4.1745,-4.161,-4.1424,-4.1255,-4.1204,-4.1052,-4.0798,-4.0679,-4.0629,-4.1001,-4.1255,-4.1238,-4.1271,-4.1238,-4.117,-4.1085,-4.0984,-4.0832,-4.0815,-4.0865,-4.0713,-4.0578,-4.0527,-4.0409,-4.0476,-4.0358,-4.0341,-4.0324,-4.024,-4.0138,-4.0087,-4.0087,-4.0257,-4.024,-4.0087,-4.0138,-4.024,-4.0172,-4.0087,-4.0087,-4.0087,-4.0121,-4.0324,-2.2822,-2.2842,-2.296,-2.3144,-2.3144,-2.3144,-2.3144,-2.3222,-2.4286,-2.5462,-2.6637,-2.7936,-2.9106,-2.9611,-2.9779,-2.9779,-2.9779,-2.9779,-2.9779,-2.9779,-2.9998,-3.0921,-3.196,-3.2749,-3.3616,-3.5489,-3.5424,-3.5489,-3.5489,-3.5489,-3.5489,-3.5489,-3.5489,-3.5489,-3.5489,-3.5489,-3.5489,-3.5504,-3.5733,-3.5846,-3.5943,-3.6569,-3.6964,-3.7467,-3.8213,-3.8962,-3.9262,-3.9714,-4.007,-4.0087,-4.0087,-4.0087,-4.0087,-4.0087,-4.0087,-4.0087,-4.0087,-4.0087,-4.0172,-4.0172,-4.0087,-4.0257,-4.0476,-4.1102,-4.1491,-4.1745,-4.1728,-4.1559,-4.1576,-4.1627,-4.1627,-4.117,-4.1018,-4.0764,-4.0527,-4.0257,-4.0104,-4.0324,-4.0426,-4.0375,-4.0307,-4.0223,-4.0375,-4.024,-4.0189,-4.0155,-4.0087,-4.0087,-4.0104,-4.0155,-4.024,-4.0426,-4.0358,-4.0257,-4.0189,-4.0104,-4.0087,-4.0087,-4.0087,-4.0087,-4.0087,-4.0087,-4.0087,-4.0087,-4.0087,-4.0087,-4.0087,-4.0087,-4.0087,-4.0087,-4.0087,-4.0087,-4.0087,-4.0087,-4.0087,-2.1973,-2.2041,-2.2803,-2.3096,-2.3086,-2.3144,-2.3115,-2.3104,-2.431,-2.546,-2.6816,-2.8481,-2.9462,-2.9679,-2.9591,-2.9616,-2.9729,-2.9779,-2.9641,-2.9641,-2.9908,-3.0738,-3.1802,-3.2639,-3.3391,-3.505,-3.5205,-3.5235,-3.54,-3.5145,-3.5325,-3.5489,-3.5415,-3.5459,-3.5489,-3.5489,-3.5489,-3.5619,-3.5958,-3.6228,-3.6523,-3.71,-3.7863,-3.8453,-3.8799,-3.9246,-3.9969,-4.007,-4.0087,-4.0087,-4.0087,-4.0087,-4.0087,-4.0087,-4.0087,-4.0087,-4.0087,-4.0087,-4.0087,-4.0087,-4.0087,-4.0104,-4.0206,-4.0358,-4.0612,-4.0375,-4.029,-4.0476,-4.0663,-4.0527,-4.0426,-4.0206,-4.0341,-4.0307,-4.0223,-4.0172,-4.0087,-4.0104,-4.0172,-4.0104,-4.0087,-4.0087,-4.0087,-4.0087,-4.0087,-4.0087,-4.0087,-4.0087,-4.0087,-4.0104,-4.0104,-4.0172,-4.0155,-4.0121,-4.0104,-4.0087,-4.0087,-4.0087,-4.0087,-4.0087,-4.0087,-4.0087,-4.0087,-4.0087,-4.0087,-4.0087,-4.0087,-4.0087,-4.0087,-4.0087,-4.0087,-4.0087,-4.0087,-4.0087,-4.0087,-2.1894,-2.1924,-2.2246,-2.2363,-2.2373,-2.2373,-2.2373,-2.2681,-2.4204,-2.595,-2.75,-2.8362,-2.875,-2.8775,-2.875,-2.8762,-2.8762,-2.875,-2.8787,-2.8762,-2.8961,-2.9849,-3.0948,-3.1845,-3.2449,-3.3976,-3.4307,-3.4277,-3.4218,-3.4412,-3.4292,-3.4442,-3.504,-3.5429,-3.5489,-3.537,-3.5429,-3.5524,-3.5767,-3.5943,-3.618,-3.7175,-3.7921,-3.8206,-3.9385,-3.9662,-4.007,-4.007,-4.0087,-4.0087,-4.0087,-4.0087,-4.0087,-4.0087,-4.0087,-4.0087,-4.0087,-4.0087,-4.0087,-4.0087,-4.0087,-4.0087,-4.0087,-4.0087,-4.0087,-4.0087,-4.0087,-4.0104,-4.0087,-4.0087,-4.0104,-4.0104,-4.0138,-4.0087,-4.0087,-4.0087,-4.0087,-4.0087,-4.0087,-4.0087,-4.0087,-4.0087,-4.0087,-4.0087,-4.0087,-4.0087,-4.0087,-4.0087,-4.0087,-4.0087,-4.0087,-4.0087,-4.0087,-4.0087,-4.0087,-4.0087,-4.0087,-4.0087,-4.0087,-4.0087,-4.0087,-4.0087,-4.0087,-4.0087,-4.0121,-4.0121,-4.0121,-4.0121,-4.0087,-4.0087,-4.0087,-4.0087,-4.0087,-4.0087,-4.0087,-2.1484,-2.1494,-2.1484,-2.166,-2.1865,-2.1894,-2.1894,-2.2195,-2.3775,-2.5689,-2.7619,-2.795,-2.8109,-2.8109,-2.8134,-2.816,-2.8222,-2.8197,-2.816,-2.8185,-2.8417,-2.9183,-3.0256,-3.1121,-3.1909,-3.3084,-3.3499,-3.3574,-3.3634,-3.3529,-3.3619,-3.3933,-3.4367,-3.4711,-3.4831,-3.4921,-3.4996,-3.516,-3.5717,-3.6011,-3.6415,-3.7748,-3.8557,-3.8723,-3.9627,-3.9969,-4.007,-4.0087,-4.0087,-4.0087,-4.0087,-4.0087,-4.0087,-4.0087,-4.0087,-4.0087,-4.0087,-4.0087,-4.0087,-4.0087,-4.0087,-4.0087,-4.0087,-4.0087,-4.0087,-4.0087,-4.0087,-4.0087,-4.0087,-4.0087,-4.0087,-4.0087,-4.0087,-4.0087,-4.0087,-4.0087,-4.0087,-4.0087,-4.0087,-4.0087,-4.0087,-4.0087,-4.0087,-4.0087,-4.0087,-4.0087,-4.0087,-4.0087,-4.0087,-4.0087,-4.0087,-4.0087,-4.0087,-4.0087,-4.0087,-4.0087,-4.0087,-4.0087,-4.0087,-4.0087,-4.0087,-4.0121,-4.0121,-4.0087,-4.0121,-4.0154,-4.0305,-4.0472,-4.0339,-4.0155,-4.0172,-4.0222,-4.0087,-4.0087,-4.0087,-2.0635,-2.0596,-2.0635,-2.1103,-2.1768,-2.1865,-2.1836,-2.1892,-2.3148,-2.4847,-2.6733,-2.7556,-2.7959,-2.7946,-2.7833,-2.7821,-2.7846,-2.7908,-2.7908,-2.7846,-2.7843,-2.9026,-2.9956,-3.0696,-3.1211,-3.2995,-3.3245,-3.314,-3.332,-3.3155,-3.3245,-3.3275,-3.341,-3.3664,-3.3574,-3.3589,-3.3903,-3.4633,-3.5845,-3.6468,-3.7118,-3.8215,-3.8877,-3.9035,-3.9463,-3.9648,-3.9834,-3.9851,-3.9901,-4.0054,-4.007,-4.0087,-4.0087,-4.0087,-4.0087,-4.0087,-4.0087,-4.0087,-4.0087,-4.0087,-4.0087,-4.0087,-4.0087,-4.0087,-4.0087,-4.0087,-4.0087,-4.0087,-4.0087,-4.0087,-4.0087,-4.0087,-4.0087,-4.0087,-4.0087,-4.0087,-4.0087,-4.0087,-4.0087,-4.0087,-4.0087,-4.0087,-4.0087,-4.0087,-4.0087,-4.0087,-4.0087,-4.0087,-4.0087,-4.0087,-4.0087,-4.0087,-4.0087,-4.0087,-4.0087,-4.0087,-4.0087,-4.0087,-4.0087,-4.0087,-4.0171,-4.0254,-4.0204,-4.0171,-4.0434,-4.072,-4.0827,-4.0934,-4.081,-4.0703,-4.0441,-4.0391,-4.0222,-4.0288,-4.0453,-2.0576,-2.0576,-2.0576,-2.0732,-2.0996,-2.1016,-2.1016,-2.1313,-2.2807,-2.4613,-2.6259,-2.6934,-2.7017,-2.7017,-2.7067,-2.7092,-2.7067,-2.7017,-2.7005,-2.7042,-2.7092,-2.7717,-2.8665,-2.9669,-3.0319,-3.1238,-3.1812,-3.2287,-3.2138,-3.2332,-3.2258,-3.2198,-3.2452,-3.2721,-3.3275,-3.3514,-3.3679,-3.3845,-3.4334,-3.4726,-3.5164,-3.6501,-3.7416,-3.7485,-3.8305,-3.8954,-3.9309,-3.936,-3.9512,-3.9834,-3.9884,-3.9935,-3.9986,-4.0003,-4.0054,-4.007,-4.0087,-4.0087,-4.0087,-4.0087,-4.0087,-4.0087,-4.0087,-4.0087,-4.0087,-4.0087,-4.0087,-4.0087,-4.0087,-4.0087,-4.0087,-4.0087,-4.0087,-4.0087,-4.0087,-4.0087,-4.0087,-4.0087,-4.0087,-4.0087,-4.0087,-4.0087,-4.0087,-4.0087,-4.0087,-4.0087,-4.0087,-4.0087,-4.0087,-4.0087,-4.0087,-4.0087,-4.0087,-4.0087,-4.0138,-4.0121,-4.0204,-4.0254,-4.0154,-4.0087,-4.0204,-4.0417,-4.0577,-4.0672,-4.0984,-4.1303,-4.1398,-4.1513,-4.1446,-4.1332,-4.1233,-4.1086,-4.1024,-4.1134,-4.1348,-2.0235,-2.0566,-2.0576,-2.0576,-2.0576,-2.0576,-2.0576,-2.0934,-2.2627,-2.4325,-2.537,-2.6107,-2.6559,-2.6559,-2.6521,-2.6521,-2.6521,-2.6533,-2.6533,-2.6521,-2.6533,-2.7374,-2.8183,-2.8748,-2.9922,-3.0524,-3.1087,-3.1511,-3.1601,-3.1511,-3.1556,-3.1586,-3.1482,-3.2033,-3.2572,-3.2721,-3.2871,-3.3171,-3.3768,-3.443,-3.5002,-3.586,-3.6711,-3.6949,-3.7502,-3.8176,-3.8481,-3.8684,-3.8819,-3.9225,-3.9377,-3.9478,-3.9597,-3.9698,-3.9834,-3.9969,-4.0087,-4.0087,-4.0087,-4.0087,-4.0087,-4.0087,-4.0087,-4.0087,-4.0087,-4.0087,-4.0087,-4.0087,-4.0087,-4.0087,-4.0087,-4.0087,-4.0087,-4.0087,-4.0087,-4.0087,-4.0087,-4.0087,-4.0087,-4.0087,-4.0087,-4.0087,-4.0087,-4.0087,-4.0087,-4.0087,-4.0087,-4.0087,-4.0087,-4.0087,-4.0121,-4.0154,-4.0204,-4.0286,-4.0237,-4.0204,-4.0286,-4.0368,-4.0368,-4.0368,-4.0594,-4.0874,-4.1041,-4.1223,-4.1446,-4.1717,-4.2055,-4.2163,-4.223,-4.2346,-4.2382,-4.2199,-4.1931,-4.1895,-4.1973,-1.9608,-2.0489,-2.0566,-2.0576,-2.0576,-2.0576,-2.0644,-2.0867,-2.2638,-2.3526,-2.3818,-2.5721,-2.6383,-2.6452,-2.6521,-2.6521,-2.6521,-2.6521,-2.6521,-2.6521,-2.6521,-2.7471,-2.8233,-2.8876,-2.9642,-3.0718,-3.1409,-3.1467,-3.1467,-3.1467,-3.1467,-3.1467,-3.1467,-3.1661,-3.1809,-3.1913,-3.2108,-3.2641,-3.3253,-3.3948,-3.4613,-3.6097,-3.6555,-3.6868,-3.7242,-3.7584,-3.7787,-3.7905,-3.7973,-3.8091,-3.8091,-3.843,-3.8717,-3.8937,-3.9394,-3.9783,-3.9952,-3.9952,-4.0087,-4.0087,-4.0087,-4.0087,-4.0087,-4.0087,-4.0087,-4.0087,-4.0087,-4.0087,-4.0087,-4.0087,-4.0087,-4.0087,-4.0087,-4.0087,-4.0087,-4.0087,-4.0087,-4.0087,-4.0087,-4.0087,-4.0087,-4.0087,-4.0087,-4.0087,-4.0171,-4.0087,-4.0087,-4.0087,-4.0087,-4.0087,-4.0171,-4.0319,-4.0417,-4.0497,-4.0497,-4.0625,-4.072,-4.0938,-4.0967,-4.0949,-4.1161,-4.1358,-4.1664,-4.1853,-4.1895,-4.2115,-4.2588,-4.2936,-4.3214,-4.3251,-4.3029,-4.2878,-4.2483,-4.23,-4.2301,-1.9195,-1.952,-2.0245,-2.0576,-2.0576,-2.0566,-2.0934,-2.1659,-2.2253,-2.3147,-2.4636,-2.5146,-2.5873,-2.6452,-2.6521,-2.6521,-2.6521,-2.6521,-2.6521,-2.6521,-2.6521,-2.6837,-2.7537,-2.8505,-2.9254,-3.0072,-3.0837,-3.1467,-3.1467,-3.1467,-3.1467,-3.1467,-3.1467,-3.1467,-3.1467,-3.1524,-3.1689,-3.1968,-3.2583,-3.3184,-3.3824,-3.4813,-3.5366,-3.5854,-3.6329,-3.6624,-3.7009,-3.7094,-3.7263,-3.7719,-3.7838,-3.8091,-3.8142,-3.8244,-3.8514,-3.9174,-3.9343,-3.9478,-3.9952,-4.007,-4.0037,-4.0003,-4.0054,-4.007,-4.0087,-4.0087,-4.0087,-4.0087,-4.0087,-4.0087,-4.0087,-4.0087,-4.0087,-4.0087,-4.0087,-4.0087,-4.0087,-4.0087,-4.0087,-4.0087,-4.0087,-4.0154,-4.0171,-4.0204,-4.0237,-4.0171,-4.0171,-4.0204,-4.0171,-4.0171,-4.0286,-4.0449,-4.0625,-4.0797,-4.1178,-4.1402,-4.1446,-4.149,-4.1534,-4.156,-4.1707,-4.1937,-4.2284,-4.2462,-4.2523,-4.2808,-4.3196,-4.3391,-4.3206,-4.3387,-4.3249,-4.3178,-4.3086,-4.2717,-4.2459,-1.8311,-1.8861,-1.9726,-2.0059,-2.0088,-2.0244,-2.0675,-2.1206,-2.1717,-2.2925,-2.4337,-2.4862,-2.5581,-2.6383,-2.6521,-2.6521,-2.6521,-2.6521,-2.6521,-2.6521,-2.6521,-2.7162,-2.7736,-2.8427,-2.9442,-3.0072,-3.0763,-3.1467,-3.1467,-3.1467,-3.1467,-3.1467,-3.1467,-3.1467,-3.1467,-3.1524,-3.1754,-3.1883,-3.2135,-3.2367,-3.2986,-3.3633,-3.4333,-3.4894,-3.547,-3.5898,-3.6265,-3.6349,-3.6637,-3.6958,-3.7009,-3.7195,-3.7415,-3.7719,-3.7973,-3.8531,-3.8582,-3.8734,-3.9056,-3.9478,-3.958,-3.9732,-3.9884,-4.007,-4.0087,-4.0087,-4.0087,-4.0087,-4.0087,-4.0087,-4.0087,-4.0087,-4.0087,-4.0087,-4.0087,-4.0087,-4.0087,-4.0087,-4.0087,-4.0087,-4.0171,-4.0237,-4.0336,-4.0319,-4.0546,-4.0861,-4.0984,-4.0984,-4.072,-4.0368,-4.0497,-4.0703,-4.0874,-4.1087,-4.1603,-4.2044,-4.2021,-4.2038,-4.2162,-4.2203,-4.2284,-4.2429,-4.2757,-4.3014,-4.3196,-4.3228,-4.2935,-4.2917,-4.2842,-4.2894,-4.2727,-4.2351,-4.2333,-4.2509,-4.2359,-1.7122,-1.8204,-1.8982,-1.9355,-1.9346,-1.9717,-1.9863,-1.9987,-2.1094,-2.2477,-2.3565,-2.4492,-2.5441,-2.6302,-2.6521,-2.6521,-2.6521,-2.6521,-2.6521,-2.6521,-2.6521,-2.704,-2.7934,-2.8989,-2.9504,-3.0718,-3.1482,-3.1467,-3.1467,-3.1467,-3.1467,-3.1467,-3.1467,-3.1467,-3.1467,-3.1467,-3.1697,-3.2007,-3.2382,-3.2803,-3.3582,-3.4284,-3.4894,-3.5424,-3.5577,-3.569,-3.569,-3.5656,-3.5639,-3.5656,-3.5774,-3.6129,-3.6637,-3.7144,-3.7483,-3.7787,-3.7804,-3.8024,-3.8294,-3.8684,-3.8853,-3.9123,-3.9495,-3.9681,-3.9681,-3.9986,-4.007,-4.007,-4.0087,-4.0087,-4.0087,-4.0087,-4.0087,-4.0087,-4.0087,-4.0087,-4.0087,-4.0087,-4.0087,-4.0087,-4.0121,-4.0254,-4.0417,-4.0449,-4.0685,-4.1313,-4.1639,-4.1578,-4.1385,-4.081,-4.088,-4.1091,-4.1402,-4.175,-4.2266,-4.2619,-4.2501,-4.2559,-4.2582,-4.2515,-4.2392,-4.2723,-4.3169,-4.2894,-4.253,-4.2509,-4.2378,-4.2271,-4.2069,-4.1805,-4.157,-4.1232,-4.1339,-4.1695,-4.193,-1.583,-1.6894,-1.8563,-1.9277,-1.9287,-1.9394,-1.9434,-1.9443,-1.9742,-2.1335,-2.3256,-2.3857,-2.4886,-2.6239,-2.6377,-2.6458,-2.6521,-2.6521,-2.6521,-2.6521,-2.6521,-2.6782,-2.7484,-2.8556,-2.9254,-2.9889,-3.0584,-3.1467,-3.1467,-3.1467,-3.1467,-3.1467,-3.1467,-3.1467,-3.1467,-3.1467,-3.1682,-3.2064,-3.2586,-3.3303,-3.4186,-3.4479,-3.4894,-3.5379,-3.5639,-3.5639,-3.5639,-3.5639,-3.5639,-3.5639,-3.5639,-3.5757,-3.5893,-3.6113,-3.6502,-3.6907,-3.7043,-3.728,-3.7635,-3.7939,-3.8125,-3.8193,-3.8464,-3.8785,-3.9174,-3.9732,-4.0087,-4.0037,-4.0087,-4.0087,-4.0087,-4.0087,-4.0087,-4.0087,-4.0087,-4.0087,-4.0087,-4.0087,-4.0087,-4.0087,-4.0087,-4.0286,-4.0449,-4.0703,-4.0903,-4.1206,-4.1578,-4.1732,-4.1747,-4.148,-4.1516,-4.1759,-4.2167,-4.2559,-4.2904,-4.2869,-4.2631,-4.2668,-4.2723,-4.263,-4.2428,-4.2331,-4.2231,-4.1827,-4.1534,-4.1607,-4.1625,-4.1445,-4.1222,-4.0813,-4.068,-4.0469,-4.0272,-4.0515,-4.0813,-1.5101,-1.6121,-1.7965,-1.8721,-1.876,-1.8916,-1.9004,-1.9033,-1.9199,-2.04,-2.2186,-2.2816,-2.4038,-2.5877,-2.6076,-2.6264,-2.6364,-2.6521,-2.6521,-2.6521,-2.6433,-2.6769,-2.7471,-2.8322,-2.9178,-2.9813,-3.0763,-3.1467,-3.1467,-3.1467,-3.1467,-3.1467,-3.1467,-3.1467,-3.1467,-3.1524,-3.1697,-3.2079,-3.268,-3.3531,-3.4528,-3.4671,-3.4941,-3.5424,-3.5639,-3.5639,-3.5639,-3.5639,-3.5639,-3.5639,-3.5639,-3.5639,-3.569,-3.5757,-3.5876,-3.6129,-3.6315,-3.6451,-3.6891,-3.7212,-3.7381,-3.7415,-3.7804,-3.8294,-3.8379,-3.892,-3.9512,-3.958,-4.002,-4.0087,-4.0087,-4.0087,-4.0087,-4.0087,-4.0087,-4.0087,-4.0087,-4.0087,-4.0087,-4.0087,-4.0286,-4.0797,-4.1105,-4.1682,-4.1902,-4.235,-4.2544,-4.207,-4.2052,-4.1787,-4.1969,-4.2101,-4.2301,-4.2504,-4.2611,-4.2587,-4.2496,-4.2601,-4.2635,-4.2161,-4.1672,-4.1394,-4.1167,-4.1001,-4.091,-4.0928,-4.0859,-4.0639,-4.023,-3.9772,-3.9761,-3.9774,-3.9595,-3.9454,-3.9748,-1.4536,-1.5721,-1.7316,-1.8018,-1.8066,-1.8389,-1.8555,-1.8623,-1.8936,-1.9717,-2.0914,-2.1583,-2.3262,-2.47,-2.5511,-2.5862,-2.6038,-2.5937,-2.6088,-2.6113,-2.6113,-2.6547,-2.7394,-2.8379,-2.9364,-3.0271,-3.1161,-3.1409,-3.1467,-3.1467,-3.1467,-3.1467,-3.1467,-3.1467,-3.1467,-3.1582,-3.1739,-3.2422,-3.3077,-3.3836,-3.4333,-3.4671,-3.5098,-3.547,-3.5639,-3.5639,-3.5639,-3.5639,-3.5639,-3.5639,-3.5639,-3.5639,-3.5639,-3.5639,-3.5639,-3.5791,-3.5825,-3.5842,-3.596,-3.6383,-3.6535,-3.6772,-3.7364,-3.7635,-3.7686,-3.8058,-3.8633,-3.9205,-3.9628,-3.9897,-3.9929,-3.9946,-3.9946,-3.9995,-3.9995,-3.9995,-3.9995,-3.9995,-3.9995,-4.0012,-4.0375,-4.0919,-4.1329,-4.1962,-4.2445,-4.2958,-4.3057,-4.2708,-4.2276,-4.1795,-4.1631,-4.1704,-4.1831,-4.199,-4.2124,-4.2084,-4.1956,-4.1864,-4.1772,-4.1332,-4.0891,-4.0487,-4.0322,-4.0469,-4.0414,-4.0194,-3.9997,-3.9777,-3.9313,-3.9001,-3.9105,-3.9265,-3.9124,-3.9001,-3.8872,-1.3689,-1.5468,-1.7254,-1.8008,-1.8027,-1.8115,-1.8125,-1.8135,-1.8223,-1.911,-2.0302,-2.084,-2.2043,-2.3923,-2.4698,-2.5159,-2.5335,-2.5322,-2.5184,-2.5121,-2.536,-2.6077,-2.6918,-2.7863,-2.9462,-3.047,-3.1185,-3.1407,-3.1165,-3.13,-3.1422,-3.1347,-3.1377,-3.1392,-3.1407,-3.1477,-3.1626,-3.2214,-3.2877,-3.3562,-3.4379,-3.4825,-3.5345,-3.5577,-3.5639,-3.5639,-3.5639,-3.5639,-3.5639,-3.5639,-3.5639,-3.5639,-3.5639,-3.5639,-3.5639,-3.5639,-3.5639,-3.5639,-3.5791,-3.5893,-3.6062,-3.6028,-3.6468,-3.6603,-3.6768,-3.7085,-3.7687,-3.8235,-3.8699,-3.9133,-3.924,-3.9371,-3.9433,-3.9504,-3.9547,-3.9591,-3.9591,-3.9608,-3.9608,-3.9652,-3.9806,-4.0017,-4.0141,-4.0656,-4.107,-4.1502,-4.18,-4.1522,-4.1479,-4.135,-4.1258,-4.1174,-4.1147,-4.1287,-4.1332,-4.1332,-4.124,-4.113,-4.0928,-4.0524,-4.0047,-3.9423,-3.935,-3.9662,-3.9496,-3.9203,-3.9038,-3.9203,-3.9038,-3.8817,-3.8781,-3.8781,-3.8707,-3.8707,-3.8707]}]]